     2.11           OBSERVATION DATA    G (GPS)             RINEX VERSION / TYPE
teqc 2010Oct21 OPUS Account 20111030 16:48:32UTC            PGM / RUN BY / DATE
A 1523                                                      MARKER NAME
1180                                                        MARKER NUMBER
CSMIDDLETON NGS                                             OBSERVER / AGENCY
0220316069 TRIMBLE 5700 1.30                                REC # / TYPE / VERS
12469273 TRM41249.00 NONE                                   ANT # / TYPE
  -744906.0003 -5505780.9848  3122147.8500                  APPROX POSITION XYZ
        2.0000        0.0000        0.0000                  ANTENNA: DELTA H/E/N
     1     1                                                WAVELENGTH FACT L1/2
     5    L1    L2    C1    P1    P2                        # / TYPES OF OBSERV
    15                                                      LEAP SECONDS
  2011     9    30     0     0   30.0000000     GPS         TIME OF FIRST OBS
                                                            END OF HEADER
 11  9 30  0  0 30.0000000  0  9G15G29G12G02G30G21G05G25G26
 -11078210.01657  -8611823.03654  23554958.1564                   23554959.0274
 -32525592.18758 -25325584.96956  21679113.3524                   21679112.6294
 -58777766.67657 -45777546.80055  22511972.4694                   22511972.4924
 -78797720.79757 -61376357.36755  22189012.2584                   22189010.1414
 -22469886.25057 -17489107.37155  22821118.7344                   22821119.3284
  -2409075.38356  -1860589.45653  25054287.9694                   25054289.8444
 -60165054.58658 -46857652.58056  20837184.2734                   20837181.9844
 -44691570.02358 -34800521.34556  21886573.2664                   21886575.2274
 -22165359.54357 -17251570.42354  22692620.6644                   22692620.2424
 11  9 30  0  1  0.0000000  0  9G15G29G12G02G30G21G05G25G26
 -11261464.67647  -8754618.61344  23520085.3914                   23520086.7114
 -32684507.80548 -25449415.26846  21648872.8054                   21648871.5354
 -58777977.10947 -45777710.80345  22511932.3754                   22511932.7974
 -78838234.60947 -61407926.57945  22181303.0004                   22181300.6214
 -22563203.46147 -17561822.05145  22803360.6024                   22803361.7544
  -2553352.46946  -1973013.06943  25026833.3444                   25026833.8094
 -60199792.37548 -46884720.97746  20830573.2194                   20830571.1844
 -44736931.75448 -34835868.15246  21877941.2114                   21877942.7934
 -22336240.11347 -17384724.01644  22660103.2114                   22660103.0124
 11  9 30  0  1 30.0000000  0  9G15G29G12G02G30G21G05G25G26
 -11444676.30946  -8897380.67244  23485221.6024                   23485222.9264
 -32843205.79348 -25573075.97546  21618673.2894                   21618672.3404
 -58777953.67247 -45777692.57045  22511937.2894                   22511936.8914
 -78878653.56647 -61439421.83445  22173611.5234                   22173608.8284
 -22655947.43047 -17634090.01344  22785712.2194                   22785712.1884
  -2697631.76646  -2085438.35043  24999377.3914                   24999377.9844
 -60234129.62148 -46911477.27546  20824039.3134                   20824037.1214
 -44781812.67648 -34870840.30046  21869400.8594                   21869402.5594
 -22506827.71547 -17517649.30545  22627641.0394                   22627640.7384
 11  9 30  0  2  0.0000000  0  9G15G29G12G02G30G21G05G25G26
 -11627842.99247  -9040107.71744  23450365.5234                   23450367.6374
 -33001685.29348 -25696566.42546  21588515.5004                   21588514.4774
 -58777700.81647 -45777495.54645  22511984.9774                   22511985.0434
 -78918979.23847 -61470844.43845  22165937.7664                   22165934.9264
 -22748120.10947 -17705912.80645  22768172.2194                   22768172.8794
  -2841914.99246  -2197866.63243  24971921.6414                   24971922.1094
 -60268070.03948 -46937924.34546  20817580.6254                   20817578.8054
 -44826216.43448 -34905440.63046  21860951.1254                   21860953.1684
 -22677120.18747 -17650344.59044  22595235.2274                   22595234.9614
 11  9 30  0  2 30.0000000  0  9G15G29G12G02G30G21G05G25G26
 -11810962.54347  -9182797.98844  23415519.1174                   23415520.2114
 -33159944.73848 -25819885.43046  21558399.1724                   21558398.5164
 -58777221.80147 -45777122.30745  22512076.1954                   22512076.1954
 -78959211.75847 -61502194.44645  22158281.8444                   22158279.6054
 -22839722.46947 -17777291.25645  22750741.1094                   22750740.9534
  -2986203.32046  -2310298.97643  24944464.4064                   24944465.5984
 -60301616.31648 -46964064.29746  20811196.8594                   20811195.4024
 -44870145.68748 -34939671.22446  21852591.5234                   21852593.7424
 -22847114.07847 -17782807.25545  22562886.5394                   22562886.2584
 11  9 30  0  3  0.0000000  0  9G15G29G12G02G30G21G05G25G26
 -11994028.94547  -9325446.91044  23380682.8754                   23380683.5394
 -33317978.87148 -25943028.86246  21528326.7584                   21528325.5704
 -58776516.82447 -45776573.01445  22512210.4224                   22512210.0234
 -78999348.41847 -61533469.74845  22150643.8444                   22150641.6804
 -22930752.30147 -17848223.52044  22733418.7344                   22733417.9304
  -3130494.42246  -2422733.43943  24917006.0004                   24917007.0354
 -60334768.32848 -46989897.03646  20804887.4844                   20804886.4614
 -44913599.73448 -34973531.54346  21844322.5864                   21844324.2704
 -23016803.12547 -17915032.36645  22530595.5554                   22530595.6644
 11  9 30  0  3 30.0000000  0  9G15G29G12G02G30G21G05G25G26
 -12177040.13747  -9468052.75344  23345856.2504                   23345856.1374
 -33475785.67648 -26065995.16146  21498297.0314                   21498295.9774
 -58775589.57047 -45775850.49945  22512386.9534                   22512387.2504
 -79039389.28547 -61564670.41945  22143024.9144                   22143022.0864
 -23021210.91447 -17918710.71644  22716204.6484                   22716204.5864
  -3274789.41846  -2535170.99743  24889547.4774                   24889548.3524
 -60367529.13748 -47015424.91446  20798654.0394                   20798652.2814
 -44956581.67248 -35007023.97846  21836143.0084                   21836144.8484
 -23186184.61347 -18047017.81245  22498363.7034                   22498362.9024
 11  9 30  0  4  0.0000000  0  9G15G29G12G02G30G21G05G25G26
 -12359994.68447  -9610614.50044  23311041.2034                   23311041.2974
 -33633364.46548 -26188783.78646  21468310.6804                   21468310.0234
 -58774445.39147 -45774958.96045  22512604.4774                   22512604.8954
 -79079335.93047 -61595797.66445  22135423.1564                   22135420.6294
 -23111100.39547 -17988754.45844  22699099.2664                   22699099.8014
  -3419090.53146  -2647613.16743  24862087.7894                   24862089.2154
 -60399902.45748 -47040650.86846  20792493.7734                   20792492.1524
 -44999095.26648 -35040151.46946  21828053.1094                   21828055.1804
 -23355256.16847 -18178761.75145  22466190.4534                   22466190.5944
 11  9 30  0  4 30.0000000  0  9G15G29G12G02G30G21G05G25G26
 -12542887.27047  -9753127.96544  23276238.2894                   23276237.3674
 -33790711.10548 -26311391.50446  21438368.7194                   21438367.5514
 -58773084.34847 -45773898.40345  22512863.4534                   22512864.0354
 -79119185.58648 -61626849.33745  22127839.8674                   22127837.3324
 -23200419.09447 -18058353.40445  22682102.8054                   22682102.5944
  -3563395.84446  -2760058.70243  24834628.1484                   24834628.0434
 -60431887.57448 -47065574.33946  20786406.9064                   20786405.2464
 -45041140.39848 -35072913.92746  21820052.5634                   21820054.2274
 -23524011.78947 -18310259.49845  22434076.4384                   22434077.2664
 11  9 30  0  5  0.0000000  0  9G15G29G12G02G30G21G05G25G26
 -12725716.89846  -9895592.33744  23241445.3834                   23241445.2464
 -33947825.23048 -26433818.04446  21408470.4844                   21408469.9534
 -58771511.93747 -45772673.17645  22513163.3364                   22513162.6724
 -79158940.35946 -61657827.05745  22120274.5084                   22120272.2154
 -23289169.75047 -18127509.75145  22665213.9454                   22665214.1644
  -3707707.94146  -2872509.66343  24807166.4384                   24807166.3984
 -60463490.29348 -47090199.81546  20780393.2114                   20780391.2974
 -45082721.44947 -35105314.76746  21812139.7814                   21812141.1954
 -23692449.89547 -18441509.83644  22402023.6884                   22402023.8164
 11  9 30  0  5 30.0000000  0  9G15G29G12G02G30G21G05G25G26
 -12908481.70347 -10038006.23044  23206666.5004                   23206667.0204
 -34104705.47348 -26556062.33046  21378617.6564                   21378616.5594
 -58769732.39547 -45771286.55045  22513501.9534                   22513501.1054
 -79198601.00847 -61688731.45545  22112727.8204                   22112724.8634
 -23377354.17647 -18196224.85745  22648433.4614                   22648433.1414
  -3852028.63746  -2984967.18742  24779702.0164                   24779702.8134
 -60494713.49648 -47114529.55746  20774451.2584                   20774450.0944
 -45123841.87547 -35137356.65846  21804315.0394                   21804316.4064
 -23860567.89847 -18572510.75945  22370031.8674                   22370032.0234
 11  9 30  0  6  0.0000000  0  9G15G29G12G02G30G21G05G25G26
 -13091177.16447 -10180366.09944  23171900.7584                   23171901.1954
 -34261348.07048 -26678121.45846  21348809.4694                   21348807.9064
 -58767747.34447 -45769739.78645  22513879.5164                   22513878.9024
 -79238165.87147 -61719561.18745  22105199.1174                   22105196.3444
 -23464971.56247 -18264498.16845  22631759.4304                   22631760.1604
  -3996356.73046  -3097430.51743  24752237.0084                   24752237.4384
 -60525558.02748 -47138564.23646  20768581.8914                   20768579.7304
 -45164502.52047 -35169040.27246  21796577.7194                   21796579.0004
 -24028361.02047 -18703258.52345  22338101.8834                   22338102.3094
 11  9 30  0  6 30.0000000  0  9G15G29G12G02G30G21G05G25G26
 -11698373.21547  -9095064.10644  23436942.3284                   23436942.9574
 -32842324.51648 -25572388.76546  21618840.3754                   21618839.6764
 -57190138.73447 -44540434.39645  22814088.4844                   22814087.4064
 -77702212.09047 -60522714.05445  22397481.0864                   22397478.4534
 -21976598.68047 -17104727.11045  22914988.0164                   22914987.7704
  -2565267.16846  -1982295.66143  25024564.4224                   25024564.8404
 -58980604.05548 -45934703.99646  21062576.7504                   21062575.5474
 -43629283.22748 -33972765.52746  22088719.8674                   22088721.2504
 -22620398.62947 -17606144.84145  22606028.3524                   22606027.7934
 11  9 30  0  7  0.0000000  0  9G15G29G12G02G30G21G05G25G26
 -11880916.43047  -9237305.36144  23402205.2894                   23402207.0354
 -32998480.39548 -25694068.61546  21589125.1724                   21589123.8634
 -57187746.97747 -44538570.69645  22814543.1334                   22814542.9884
 -77741580.10248 -60553390.39945  22389989.7974                   22389986.2704
 -22063079.73847 -17172115.00045  22898530.8984                   22898531.3914
  -2709607.34446  -2094768.34643  24997097.3754                   24997098.6054
 -59010693.71948 -45958150.46746  21056850.8134                   21056849.2194
 -43669026.74248 -34003734.51646  22081156.8754                   22081158.7894
 -22787525.94947 -17736373.80045  22574225.2194                   22574224.4964
 11  9 30  0  7 30.0000000  0  9G15G29G12G02G30G21G05G25G26
 -12063383.10247  -9379486.96144  23367482.9224                   23367484.7704
 -33154394.05148 -25815559.72046  21559455.9224                   21559454.5434
 -57185160.89147 -44536555.59445  22815035.4304                   22815035.2624
 -77780853.85247 -60583993.31545  22382515.6564                   22382512.8524
 -22148998.18447 -17239064.47144  22882181.5474                   22882181.1764
  -2853958.73446  -2207249.84743  24969627.6334                   24969628.2194
 -59040413.95348 -45981309.08446  21051195.3524                   21051193.3204
 -43708319.73448 -34034352.43746  22073679.7194                   22073681.9024
 -22954319.54347 -17866342.71145  22542485.2114                   22542484.5044
 11  9 30  0  8  0.0000000  0  9G15G29G12G02G30G21G05G25G26
 -12245766.04347  -9521603.31445  23332776.6254                   23332777.6214
 -33310058.12548 -25936856.34746  21529833.5704                   21529832.6524
 -57182379.15647 -44534388.04845  22815564.6174                   22815565.1414
 -77820028.49647 -60614518.99045  22375060.6024                   22375058.0234
 -22234350.29747 -17305572.62944  22865939.1254                   22865939.4414
  -2998317.37146  -2319736.95043  24942157.2814                   24942157.8204
 -59069762.38748 -46004177.97546  21045610.7034                   21045608.6914
 -43747159.82048 -34064617.45046  22066289.1724                   22066290.9344
 -23120770.87547 -17996044.93845  22510810.1024                   22510810.0744
 11  9 30  0  8 30.0000000  0  9G15G29G12G02G30G21G05G25G26
 -12428064.08247  -9663653.54944  23298086.0314                   23298087.3014
 -33465472.18448 -26057958.15246  21500259.3674                   21500257.7774
 -57179406.59847 -44532071.77345  22816130.9924                   22816130.6334
 -77859105.10947 -60644968.29545  22367624.8674                   22367622.3794
 -22319138.57047 -17371641.47745  22849805.5474                   22849804.4804
  -3142685.30946  -2432231.29443  24914685.3444                   24914685.1334
 -59098743.47348 -46026760.62746  21040095.9534                   21040093.7624
 -43785551.34847 -34094532.93346  22058983.1804                   22058984.6294
 -23286878.30947 -18125479.16745  22479201.0004                   22479200.3284
 11  9 30  0  9  0.0000000  0  9G15G29G12G02G30G21G05G25G26
 -12610273.07847  -9805634.38344  23263412.5704                   23263413.7154
 -33620633.09848 -26178862.70646  21470733.2114                   21470732.1254
 -57176245.21147 -44529608.37545  22816731.7114                   22816732.1884
 -77898082.95346 -60675340.63345  22360207.7194                   22360205.1884
 -22403363.09847 -17437271.00545  22833777.6094                   22833777.1914
  -3287062.04746  -2544732.57043  24887211.5864                   24887211.2074
 -59127358.26248 -46049057.84946  21034650.5164                   21034648.5594
 -43823495.81647 -34124100.05946  22051762.9064                   22051764.2584
 -23452637.37547 -18254641.94645  22447657.9844                   22447657.4264
 11  9 30  0  9 30.0000000  0  9G15G29G12G02G30G21G05G25G26
 -12792390.68447  -9947544.03744  23228756.6804                   23228757.1684
 -33775539.23048 -26299568.74046  21441255.4694                   21441254.2934
 -57172898.92247 -44527000.93945  22817368.8984                   22817368.9614
 -77936962.33246 -60705636.22745  22352809.6174                   22352806.5314
 -22487025.29347 -17502462.33344  22817857.1564                   22817856.5864
  -3431449.03946  -2657241.81243  24859735.8054                   24859735.2234
 -59155610.26647 -46071072.38446  21029274.3204                   21029272.5904
 -43860996.28547 -34153321.20746  22044626.8914                   22044628.1804
 -23618045.08247 -18383530.96445  22416182.0164                   22416181.5784
 11  9 30  0 10  0.0000000  0  9G15G29G12G02G30G21G05G25G26
 -12974413.72347 -10089379.94544  23194118.9534                   23194119.0744
 -33930188.16848 -26420074.34146  21411826.9534                   21411825.2934
 -57169370.55947 -44524251.58845  22818040.3204                   22818040.4804
 -77975742.90647 -60735854.86045  22345430.2034                   22345426.3714
 -22570126.08647 -17567216.21945  22802043.6724                   22802043.2854
  -3575846.50046  -2769759.26943  24832256.7114                   24832258.2304
 -59183501.76248 -46092805.99946  21023966.4614                   21023965.0634
 -43898055.16048 -34182198.27546  22037573.8984                   22037576.2304
 -23783097.67247 -18512143.27545  22384773.0864                   22384772.8954
 11  9 30  0 10 30.0000000  0  9G15G29G12G02G30G21G05G25G26
 -13156338.78947 -10231139.57944  23159499.6484                   23159499.4614
 -34084577.23848 -26540377.45246  21382447.4384                   21382446.0474
 -57165663.29747 -44521362.84045  22818745.7664                   22818746.0394
 -78014424.30547 -60765996.19345  22338068.8674                   22338065.7664
 -22652666.14147 -17631533.17145  22786336.4924                   22786337.1214
  -3720254.80146  -2882285.05243  24804777.9454                   24804777.5594
 -59211034.76648 -46114260.29646  21018727.4384                   21018725.4654
 -43934674.59048 -34210732.89846  22030605.8204                   22030607.7624
 -23947791.34847 -18640475.90445  22353433.4534                   22353432.4184
 11  9 30  0 11  0.0000000  0  9G15G29G12G02G30G21G05G25G26
 -13338163.20747 -10372820.78445  23124899.3834                   23124899.6564
 -34238704.50448 -26660476.56446  21353118.3054                   21353116.4384
 -57161780.46147 -44518337.31245  22819485.3284                   22819484.5594
 -78053006.27747 -60796060.07445  22330726.7664                   22330724.3094
 -22734646.69147 -17695414.13445  22770735.7814                   22770736.6414
  -3864674.65246  -2994819.93243  24777294.9844                   24777295.0394
 -59238212.00847 -46135437.36746  21013555.7664                   21013554.2424
 -43970857.41048 -34238927.33246  22023720.7734                   22023722.3404
 -24112122.66447 -18768526.17945  22322162.3524                   22322161.6524
 11  9 30  0 11 30.0000000  0  9G15G29G12G02G30G21G05G25G26
 -13519882.55547 -10514420.08244  23090319.1564                   23090319.2114
 -34392566.28947 -26780368.80946  21323839.3984                   21323837.6094
 -57157723.82847 -44515176.32845  22820257.1414                   22820256.8714
 -78091487.58647 -60826045.47945  22323403.9304                   22323400.7894
 -22816067.60947 -17758859.00344  22755241.7974                   22755242.7154
  -4009105.91046  -3107363.65943  24749810.8594                   24749810.9304
 -59265034.86348 -46156338.27946  21008451.2814                   21008449.6374
 -44006605.03948 -34266782.64146  22016918.2504                   22016920.0664
 -24276087.07447 -18896290.52945  22290960.1884                   22290959.8754
 11  9 30  0 12  0.0000000  0  9G15G29G12G02G30G21G05G25G26
 -13701495.56247 -10655936.55244  23055759.1414                   23055759.2464
 -34546161.97348 -26900053.69446  21294610.7034                   21294609.0514
 -57153497.85547 -44511883.42745  22821061.4844                   22821060.8014
 -78129869.45747 -60855953.42445  22316100.0864                   22316096.5864
 -22896931.41847 -17821869.76245  22739854.7034                   22739855.1524
  -4153549.53546  -3219917.07143  24722323.5474                   24722324.4024
 -59291506.97748 -46176965.89146  21003414.1804                   21003412.7894
 -44041921.41448 -34294301.90646  22010197.5004                   22010199.4924
 -24439682.45347 -19023767.36045  22259829.1414                   22259829.2664
 11  9 30  0 12 30.0000000  0 10G15G29G12G02G30G21G05G25G26G18
 -13882998.93047 -10797367.55145  23021219.8674                   23021220.5554
 -34699488.91047 -27019529.18646  21265433.3284                   21265431.7894
 -57149105.68447 -44508460.98045  22821897.2114                   22821896.8204
 -78168151.55147 -60885783.60545  22308815.0554                   22308812.4884
 -22977239.07847 -17884447.14445  22724572.7664                   22724572.6134
  -4298006.38746  -3332480.72643  24694834.7584                   24694834.9344
 -59317630.85247 -46197322.15346  20998442.5394                   20998441.0744
 -44076808.90648 -34321486.99546  22003558.7814                   22003560.4144
 -24602905.27747 -19150953.86645  22228768.9144                   22228768.6954
   1317192.42255   1037725.75052  24625207.8984                   24625211.3984
 11  9 30  0 13  0.0000000  0 10G15G29G12G02G30G21G05G25G26G18
 -14064396.13347 -10938715.83445  22986700.9384                   22986701.8874
 -34852551.14147 -27138798.40946  21236306.3204                   21236305.0314
 -57144556.78547 -44504916.43945  22822762.9694                   22822762.2344
 -78206339.61347 -60915540.52745  22301548.5084                   22301545.8984
 -23056997.96147 -17946596.91245  22709395.1414                   22709395.2774
  -4442483.33646  -3445060.09243  24667340.5784                   24667341.1024
 -59343415.25048 -46217413.89046  20993536.3134                   20993534.8324
 -44111276.48447 -34348344.86846  21996999.7504                   21997001.4224
 -24765757.87947 -19277851.88945  22197778.9844                   22197778.4224
   1140510.56645    900052.14142  24591586.5314                   24591589.3014
 11  9 30  0 13 30.0000000  0 10G15G29G12G02G30G21G05G25G26G18
 -14245689.69147 -11079983.35844  22952202.0864                   22952202.3834
 -35005352.30547 -27257864.20646  21207229.4924                   21207228.0234
 -57139860.31647 -44501256.90445  22823656.4534                   22823656.6094
 -78244439.29748 -60945228.59845  22294298.5474                   22294295.2424
 -23136215.24647 -18008324.64445  22694320.8364                   22694320.1374
  -4586986.69946  -3557659.98543  24639843.2664                   24639842.7934
 -59368868.52748 -46237247.60746  20988692.7584                   20988691.1374
 -44145332.70348 -34374882.20846  21990519.0864                   21990520.8134
 -24928243.16447 -19404463.70945  22166858.4924                   22166857.8284
    963975.22346    762492.62743  24557992.6804                   24557995.6994
 11  9 30  0 14  0.0000000  0 10G15G29G12G02G30G21G05G25G26G18
 -14426872.34447 -11221164.47145  22917724.2584                   22917724.8834
 -35157885.55547 -27376721.24546  21178202.9144                   21178202.0664
 -57135014.85947 -44497481.27245  22824578.6094                   22824579.0434
 -78282446.21547 -60974844.35945  22287065.9144                   22287062.9144
 -23214887.50047 -18069627.70245  22679349.5784                   22679349.5744
  -4731512.74646  -3670277.59543  24612340.8984                   24612340.6454
 -59393988.68448 -46256821.76346  20983912.5634                   20983910.9574
 -44178975.60247 -34401097.47646  21984116.9924                   21984118.6524
 -25090352.74647 -19530782.76645  22136009.9224                   22136009.3444
    787591.73446    625051.47543  24524427.7814                   24524430.8244
 11  9 30  0 14 30.0000000  0 10G15G29G12G02G30G21G05G25G26G18
 -14607942.83247 -11362258.18445  22883267.2734                   22883267.7194
 -35310150.44947 -27495369.17346  21149228.0474                   21149226.8714
 -57130024.79747 -44493592.97245  22825527.9614                   22825528.4184
 -78320361.65247 -61004388.84345  22279850.7894                   22279847.6294
 -23293017.68447 -18130508.34645  22664481.1484                   22664481.6884
  -4876063.66846  -3782914.50743  24584833.3984                   24584832.8324
 -59418780.00448 -46276139.65846  20979194.7584                   20979192.7704
 -44212209.59448 -34426994.12746  21977792.8524                   21977794.5554
 -25252085.19947 -19656807.93945  22105232.6804                   22105232.5204
    611359.82446    487728.34943  24490891.4304                   24490895.4144
 11  9 30  0 15  0.0000000  0 10G15G29G12G02G30G21G05G25G26G18
 -14788893.07847 -11503258.20645  22848833.7734                   22848834.0984
 -35462139.23848 -27613801.94546  21120305.7664                   21120304.0354
 -57124888.78547 -44489590.91945  22826505.5394                   22826505.3054
 -78358180.01247 -61033857.68745  22272654.1094                   22272651.1844
 -23370601.64847 -18190963.38744  22649718.2584                   22649718.0984
  -5020634.69546  -3895567.14743  24557322.2114                   24557322.9384
 -59443239.49248 -46295198.99346  20974540.2814                   20974538.4804
 -44245032.06647 -34452570.10746  21971547.0084                   21971549.1254
 -25413431.58247 -19782532.30245  22074530.1484                   22074529.3674
    435286.21946    350528.59543  24457385.1954                   24457388.8364
 11  9 30  0 15 30.0000000  0 10G15G29G12G02G30G21G05G25G26G18
 -14969721.64847 -11644163.39445  22814423.1484                   22814422.8714
 -35613852.14848 -27732019.76846  21091435.5084                   21091434.3014
 -57119611.79747 -44485479.04645  22827509.8134                   22827509.5044
 -78395903.66047 -61063252.69445  22265475.7664                   22265472.0904
 -23447643.14847 -18250995.71144  22635057.5394                   22635057.2584
  -5165228.69546  -4008237.67643  24529807.5234                   24529806.6604
 -59467371.94948 -46314003.50146  20969947.9774                   20969946.3244
 -44277447.93048 -34477829.23446  21965378.6564                   21965380.3134
 -25574390.59847 -19907954.82945  22043900.3984                   22043899.5274
    259369.30146    213450.96743  24423908.9144                   24423912.6994
 11  9 30  0 16  0.0000000  0 10G15G29G12G02G30G21G05G25G26G18
 -13574997.23047 -10557364.94945  23079829.9224                   23079830.0634
 -34189858.87948 -26622414.58246  21362412.5474                   21362411.3364
 -55538773.88747 -43253657.33845  23128333.6024                   23128333.4614
 -76858108.11347 -59864970.45045  22558108.0474                   22558105.2544
 -21948718.02347 -17083002.10044  22920293.4454                   22920293.4844
  -3734418.36346  -2893320.39443  24802081.3284                   24802081.6524
 -57915756.39548 -45104952.42046  21265210.5554                   21265209.0944
 -42734036.09048 -33275170.67046  22259080.0234                   22259081.9384
 -24159530.83647 -18805466.61445  22313139.2974                   22313138.6374
   1659039.27746   1304103.27643  24690257.3834                   24690260.4734
 11  9 30  0 16 30.0000000  0 10G15G29G12G02G30G21G05G25G26G18
 -13755566.95347 -10698068.45445  23045468.6174                   23045468.7814
 -34341005.42648 -26740191.06946  21333650.3204                   21333648.9654
 -55533217.00847 -43249327.33445  23129390.9144                   23129390.8324
 -76895633.99647 -59894211.36145  22550967.2814                   22550964.0234
 -22024670.98847 -17142186.21644  22905839.7344                   22905840.4224
  -3879052.25046  -3006021.99643  24774558.3444                   24774558.6054
 -57939235.28548 -45123247.66546  21260742.6804                   21260740.9494
 -42765639.67248 -33299796.83446  22253066.1174                   22253067.7304
 -24319697.85247 -18930272.01745  22282660.0554                   22282660.0204
   1483447.20746   1167278.71343  24656843.0784                   24656846.1804
 11  9 30  0 17  0.0000000  0 10G15G29G12G02G30G21G05G25G26G18
 -13936001.93747 -10838666.95245  23011132.3674                   23011132.9344
 -34491864.76248 -26857743.74646  21304942.5704                   21304941.6054
 -55527524.28147 -43244891.50145  23130474.2034                   23130474.0634
 -76933059.64147 -59923374.16745  22543845.7034                   22543842.2544
 -22100080.85947 -17200947.15345  22891490.4384                   22891489.8364
  -4023706.03146  -3118739.06843  24747031.5314                   24747030.7934
 -57962390.43048 -45141290.62446  21256336.3364                   21256334.5354
 -42796840.43448 -33324109.11746  22247128.8984                   22247130.4454
 -24479462.92247 -19054764.18845  22252258.1254                   22252257.5704
   1308019.99246   1030582.57543  24623459.9774                   24623463.1684
 11  9 30  0 17 30.0000000  0 10G15G29G12G02G30G21G05G25G26G18
 -14116298.73047 -10979157.75645  22976822.5944                   22976822.2934
 -34642433.87148 -26975070.28746  21276290.2584                   21276288.9144
 -55521698.54347 -43240352.00345  23131582.8674                   23131582.2854
 -76970384.78547 -59952458.66545  22536742.7734                   22536739.5594
 -22174948.60247 -17259285.64244  22877243.2974                   22877243.4384
  -4168380.00046  -3231471.88843  24719500.2194                   24719499.9264
 -57985223.74648 -45159082.81646  21251991.3834                   21251989.6524
 -42827640.62148 -33348109.25846  22241267.6174                   22241269.4534
 -24638822.14547 -19178940.14345  22221933.0944                   22221932.3794
   1132759.43846    894016.30243  24590108.9844                   24590112.0784
 11  9 30  0 18  0.0000000  0 10G15G29G12G02G30G21G05G25G26G18
 -14296454.95347 -11119539.07045  22942540.5314                   22942539.8244
 -34792711.42248 -27092169.61846  21247693.8834                   21247692.7344
 -55515743.80147 -43235711.98545  23132715.7504                   23132716.3094
 -77007609.73047 -59981465.07645  22529659.0004                   22529656.4884
 -22249276.55547 -17317203.54245  22863099.5554                   22863099.1724
  -4313075.28946  -3344221.27643  24691965.9304                   24691965.4494
 -58007738.32848 -45176626.63746  21247706.7424                   21247705.2274
 -42858043.85548 -33371800.07046  22235482.0234                   22235483.9964
 -24797773.07447 -19302797.90045  22191685.5164                   22191684.7544
    957666.04746    757580.31343  24556788.6724                   24556791.3204
 11  9 30  0 18 30.0000000  0 10G15G29G12G02G30G21G05G25G26G18
 -14476465.53947 -11259806.84745  22908284.8984                   22908284.3954
 -34942693.31248 -27209038.56746  21219153.1174                   21219151.2504
 -55509660.59047 -43230971.87845  23133873.4534                   23133873.3134
 -77044731.96947 -60010391.46245  22522594.9224                   22522591.8364
 -22323063.76647 -17374700.08145  22849057.8364                   22849058.4654
  -4457790.58646  -3456986.43943  24664427.1724                   24664427.0554
 -58029935.02048 -45193922.76046  21243482.8444                   21243481.0394
 -42888050.66848 -33395181.98946  22229772.1644                   22229773.4654
 -24956309.79347 -19426332.96645  22161517.4844                   22161517.1914
    782743.05945    621277.02342  24523500.8524                   24523504.5824
 11  9 30  0 19  0.0000000  0 10G15G29G12G02G30G21G05G25G26G18
 -14656328.27347 -11399959.46345  22874058.5554                   22874058.4734
 -35092377.77748 -27325675.74246  21190668.8284                   21190667.5784
 -55503453.04347 -43226134.86045  23135055.0234                   23135054.5944
 -77081752.28547 -60039238.42645  22515550.4844                   22515547.2854
 -22396312.62147 -17431777.08945  22835119.4924                   22835119.7624
  -4602527.08646  -3569768.01643  24636884.8524                   24636885.0084
 -58051817.13748 -45210973.75046  21239318.8754                   21239317.2584
 -42917664.72348 -33418257.85046  22224136.7584                   22224138.2424
 -25114429.94547 -19549543.38645  22131428.1804                   22131427.3134
    607990.61746    485106.62542  24490247.3444                   24490249.5984
 11  9 30  0 19 30.0000000  0 10G15G29G12G02G30G21G05G25G26G18
 -14836038.28947 -11539993.08045  22839860.9064                   22839860.2544
 -35241760.93748 -27442078.15446  21162242.0554                   21162240.6214
 -55497122.77047 -43221202.23445  23136259.6564                   23136259.1524
 -77118668.42247 -60068004.19845  22508525.2344                   22508522.3484
 -22469022.75847 -17488434.31545  22821283.0634                   22821283.3444
  -4747283.32046  -3682564.93643  24609337.8754                   24609338.2544
 -58073385.21548 -45227780.02646  21235214.6334                   21235213.0864
 -42946887.00448 -33441028.44046  22218576.0164                   22218576.9654
 -25272128.20347 -19672425.07845  22101419.0944                   22101418.7194
    433411.89846    349071.67443  24457025.0554                   24457028.2774
 11  9 30  0 20  0.0000000  0 10G15G29G12G02G30G21G05G25G26G18
 -15015594.91446 -11679907.15845  22805692.6414                   22805692.3094
 -35390842.30548 -27558245.38646  21133872.6174                   21133871.3674
 -55490674.53547 -43216177.67545  23137486.8444                   23137486.4024
 -77155482.55547 -60096690.48345  22501520.0314                   22501517.0314
 -22541197.73047 -17544674.54045  22807548.2974                   22807548.5864
  -4892062.28946  -3795379.60543  24581787.9064                   24581787.9574
 -58094644.01648 -45244345.31046  21231169.2974                   21231167.3874
 -42975722.54747 -33463497.66646  22213088.6884                   22213090.3834
 -25429403.74647 -19794977.37045  22071490.0394                   22071489.5864
    259005.92246    213171.19942  24423837.6024                   24423839.7114
 11  9 30  0 20 30.0000000  0 10G15G29G12G02G30G21G05G25G26G18
 -15194990.47747 -11819695.77345  22771554.2424                   22771553.7344
 -35539615.19948 -27674172.26846  21105561.8284                   21105561.0044
 -55484107.39547 -43211060.48145  23138736.7424                   23138736.0314
 -77192189.46547 -60125293.25445  22494535.1644                   22494531.6644
 -22612834.63747 -17600495.47745  22793915.9534                   22793916.4804
  -5036859.55146  -3908208.54843  24554234.2274                   24554233.7074
 -58115591.22748 -45260667.77846  21227182.9774                   21227181.4264
 -43004169.53548 -33485664.12346  22207675.6334                   22207677.2934
 -25586248.34047 -19917193.85445  22041644.1094                   22041643.3444
     84778.35546     77409.76642  24390682.2734                   24390684.7664
 11  9 30  0 21  0.0000000  0 10G15G29G12G02G30G21G05G25G26G18
 -15374224.13747 -11959358.21745  22737447.0784                   22737446.3754
 -35688079.57448 -27789858.74046  21077310.6804                   21077308.5664
 -55477426.63347 -43205854.75644  23140007.7584                   23140007.1134
 -77228791.28947 -60153814.13645  22487569.7344                   22487566.7274
 -22683937.00447 -17655899.93445  22780385.7344                   22780386.1884
  -5181677.89846  -4021053.85243  24526675.2894                   24526675.6024
 -58136231.57448 -45276751.15246  21223255.7344                   21223253.6414
 -43032232.87947 -33507531.66146  22202334.6724                   22202336.3834
 -25742661.01647 -20039073.77745  22011879.4694                   22011878.7664
    -89271.65246    -58213.29743  24357562.1024                   24357564.1334
 11  9 30  0 21 30.0000000  0 10G15G29G12G02G30G21G05G25G26G18
 -15553294.62947 -12098893.53045  22703371.3524                   22703371.2774
 -35836234.93748 -27905304.43146  21049117.1884                   21049115.3954
 -55470636.97347 -43200564.16245  23141299.9304                   23141299.5474
 -77265289.36347 -60182254.16945  22480624.1334                   22480620.7344
 -22754508.32847 -17710890.56845  22766956.5864                   22766956.2894
  -5326519.86746  -4133917.57843  24499112.3754                   24499113.2734
 -58156569.77048 -45292599.05946  21219385.3594                   21219383.9104
 -43059917.39547 -33529104.00046  22197066.8524                   22197068.6524
 -25898639.98447 -20160615.73545  21982197.1484                   21982196.0124
   -263145.13746   -193698.89743  24324474.8594                   24324477.4694
 11  9 30  0 22  0.0000000  0 10G15G29G12G02G30G21G05G25G26G18
 -15732196.77047 -12238297.64045  22669326.5864                   22669326.7344
 -35984077.12548 -28020506.09846  21020983.7504                   21020982.3204
 -55463739.69147 -43195189.70145  23142612.7424                   23142612.4104
 -77301681.82847 -60210611.89345  22473698.8444                   22473694.8014
 -22824548.58247 -17765467.36344  22753628.7584                   22753628.5354
  -5471383.62146  -4246798.28543  24471545.8524                   24471546.6524
 -58176606.34448 -45308211.95346  21215572.5084                   21215570.6094
 -43087224.10547 -33550381.95646  22191870.7034                   22191872.0664
 -26054180.16447 -20281815.78445  21952599.0704                   21952598.0514
   -436838.77346   -329044.24843  24291421.5314                   24291423.7114
 11  9 30  0 22 30.0000000  0 10G15G29G12G02G30G21G05G25G26G18
 -15910927.83647 -12377568.46645  22635315.5944                   22635315.8674
 -36131604.09048 -28135462.14346  20992910.5314                   20992908.9064
 -55456738.22347 -43189734.09245  23143944.9144                   23143944.7584
 -77337968.50847 -60238887.20545  22466793.5634                   22466790.1024
 -22894059.13747 -17819631.38344  22740401.0634                   22740400.6094
  -5616269.39146  -4359696.06043  24443976.5004                   24443975.5234
 -58196343.76648 -45323591.73346  21211816.6644                   21211814.9144
 -43114155.86747 -33571367.73246  22186745.2584                   22186747.3714
 -26209278.44947 -20402671.49845  21923084.7664                   21923084.1604
   -610351.87946   -464249.03443  24258402.9534                   24258404.2584
 11  9 30  0 23  0.0000000  0 10G15G29G12G02G30G21G05G25G26G18
 -16089483.86347 -12516702.92145  22601337.4144                   22601336.8594
 -36278812.42648 -28250169.90346  20964897.4304                   20964896.0944
 -55449634.84847 -43184199.06944  23145296.4534                   23145295.8404
 -77374148.11347 -60267079.07145  22459909.0704                   22459905.5124
 -22963040.70747 -17873383.29245  22727274.4304                   22727274.1804
  -5761177.41856  -4472611.14454  24416400.3674                   24416400.6564
 -58215783.85948 -45338739.83146  21208117.3054                   21208115.3984
 -43140714.61747 -33592062.85446  22181691.6644                   22181693.3244
 -26363930.43047 -20523179.44445  21893655.6954                   21893654.2424
   -783682.39146   -599311.42443  24225418.6094                   24225421.4264
 11  9 30  0 23 30.0000000  0 10G15G29G12G02G30G21G05G25G26G18
 -16267860.52047 -12655697.58145  22567393.4144                   22567393.1134
 -36425698.49647 -28364626.54246  20936946.0314                   20936944.3954
 -55442430.75047 -43178585.55144  23146667.2194                   23146666.7304
 -77410218.98047 -60295186.22145  22453045.1174                   22453041.9224
 -23031493.62147 -17926723.19244  22714248.2194                   22714248.1254
  -5906107.56246  -4585543.59144  24388820.8594                   24388820.6024
 -58234927.02048 -45353656.54646  21204474.0164                   21204472.4964
 -43166901.78147 -33612468.44545  22176708.1334                   22176709.7934
 -26518131.43447 -20643335.98245  21864311.5704                   21864310.7194
   -956827.35546   -734229.26943  24192470.0004                   24192472.5044
 11  9 30  0 24  0.0000000  0 10G15G29G12G02G30G21G05G25G26G18
 -16446058.09447 -12794552.69545  22533483.5164                   22533482.8914
 -36572263.58648 -28478833.07146  20909055.4694                   20909053.9304
 -55435133.28547 -43172899.25744  23148055.9144                   23148056.0434
 -77446184.28947 -60323211.12345  22446200.7274                   22446197.7304
 -23099423.12947 -17979655.25744  22701321.6564                   22701321.1764
  -6051062.99646  -4698495.72543  24361236.3914                   24361236.2504
 -58253780.11348 -45368347.25446  21200886.6954                   21200884.8014
 -43192723.95747 -33632589.62946  22171794.5394                   22171796.9384
 -26671881.92247 -20763141.47545  21835054.0474                   21835052.6414
  -1129789.71946   -869004.83243  24159557.1884                   24159557.5044
 11  9 30  0 24 30.0000000  0 10G15G29G12G02G30G21G05G25G26G18
 -16624068.34447 -12933261.84545  22499609.0234                   22499608.2234
 -36718499.89548 -28592783.39146  20881227.3834                   20881226.0394
 -55427739.58247 -43167138.00644  23149463.2894                   23149462.6334
 -77482038.41447 -60351149.38945  22439378.0234                   22439374.7584
 -23166825.49247 -18032176.54444  22688495.0784                   22688494.7464
  -6196038.73046  -4811463.63043  24333647.9614                   24333648.3674
 -58272340.25848 -45382809.67746  21197354.8984                   21197352.8244
 -43218178.55147 -33652424.38645  22166950.7114                   22166952.4184
 -26825173.15247 -20882589.09145  21805883.4224                   21805882.7774
  -1302562.81646  -1003632.90243  24126678.7344                   24126680.2274
 11  9 30  0 25  0.0000000  0 10G15G29G12G02G30G21G05G25G26G18
 -15226462.91047 -11844218.52845  22765564.1174                   22765563.7274
 -35288981.39848 -27478872.82246  21153255.5164                   21153254.5124
 -53844834.05947 -41933705.18744  23450679.7274                   23450680.2544
 -75942360.64847 -59151400.45045  22732368.8054                   22732366.3554
 -21658280.95747 -16856687.32544  22975561.9844                   22975561.3324
  -4765611.13746  -3696844.57643  24605849.4924                   24605848.7934
 -56715189.91448 -44169445.75046  21493670.6094                   21493668.6994
 -41667848.48447 -32444374.99246  22461969.1094                   22461970.5044
 -25402577.43747 -19774072.88045  22076594.3364                   22076593.5394
    100279.40646     89491.24543  24393630.5004                   24393632.0044
 11  9 30  0 25 30.0000000  0 10G15G29G12G02G30G21G05G25G26G18
 -15404090.59047 -11982629.59745  22731762.7814                   22731762.1954
 -35434555.22347 -27592306.91046  21125553.8594                   21125552.7974
 -53837259.13347 -41927802.71944  23452121.4844                   23452121.3054
 -75977992.94147 -59179165.86145  22725588.1174                   22725585.1524
 -21724635.74247 -16908392.34144  22962935.1804                   22962934.6884
  -4910629.81646  -3809845.97843  24578253.7664                   24578252.7074
 -56733172.48048 -44183458.11346  21490248.3054                   21490246.5594
 -41692578.22747 -32463644.94546  22457263.1024                   22457264.2584
 -25554941.70347 -19892798.16745  22047600.2894                   22047599.0234
    -72113.30146    -44840.38943  24360825.2274                   24360825.2304
 11  9 30  0 26  0.0000000  0 10G15G29G12G02G30G21G05G25G26G18
 -15581525.82847 -12120890.67245  22697997.5634                   22697997.3284
 -35579797.82847 -27705482.89546  21097915.2194                   21097914.0314
 -53829601.61747 -41921835.90644  23453578.3204                   23453578.5274
 -76013517.32047 -59206847.17345  22718828.2584                   22718825.5394
 -21790472.74647 -16959693.88844  22950406.6644                   22950406.3054
  -5055674.93746  -3922867.99943  24550651.6954                   24550651.7854
 -56750873.55948 -44197251.15146  21486880.1724                   21486878.4574
 -41716953.22347 -32482638.46945  22452624.5084                   22452625.7934
 -25706841.06647 -20011161.23845  22018694.7034                   22018693.9384
   -244317.67646   -179025.24343  24328055.4064                   24328056.3364
 11  9 30  0 26 30.0000000  0 10G15G29G12G02G30G21G05G25G26G18
 -15758763.80547 -12258998.06245  22664270.5634                   22664269.2234
 -35724704.94548 -27818397.47946  21070340.3134                   21070338.7814
 -53821862.88747 -41915805.74444  23455051.5704                   23455051.0704
 -76048931.98447 -59234442.98445  22712089.1954                   22712085.4534
 -21855792.04347 -17010592.03644  22937976.4694                   22937976.4184
  -5200744.79746  -4035909.32544  24523046.4384                   24523045.4654
 -56768293.92248 -44210825.45046  21483565.0474                   21483563.2114
 -41740974.85547 -32501356.65245  22448053.1414                   22448054.7504
 -25858270.66047 -20129158.22045  21989879.0634                   21989877.4264
   -416330.91046   -313061.20443  24295322.6884                   24295322.9534
 11  9 30  0 27  0.0000000  0 10G15G29G12G02G30G21G05G25G26G18
 -15935799.42647 -12396947.77045  22630581.5164                   22630581.3014
 -35869272.33247 -27931047.32446  21042830.0474                   21042828.3244
 -53814043.64847 -41909712.91344  23456538.7584                   23456539.3244
 -76084234.15247 -59261951.14145  22705371.6724                   22705367.0664
 -21920593.19547 -17061086.42645  22925645.4304                   22925645.4384
  -5345837.60246  -4148968.51143  24495435.3914                   24495434.7894
 -56785433.89848 -44224181.27846  21480303.4924                   21480301.3794
 -41764643.73847 -32519799.94145  22443548.8914                   22443550.8794
 -26009224.94547 -20246784.86145  21961153.5784                   21961151.8754
   -588149.87146   -446945.66643  24262625.9694                   24262626.5514
 11  9 30  0 27 30.0000000  0 10G15G29G12G02G30G21G05G25G26G18
 -16112630.65247 -12534738.21445  22596932.0474                   22596931.0634
 -36013498.87548 -28043431.57846  21015384.7194                   21015382.6564
 -53806148.38747 -41903560.85644  23458041.8444                   23458042.4344
 -76119424.42647 -59289372.10645  22698674.9774                   22698671.3524
 -21984879.16447 -17111179.36144  22913412.3524                   22913412.2154
  -5490954.77746  -4262046.69343  24467820.7344                   24467819.8714
 -56802297.06648 -44237321.40346  21477094.4304                   21477092.7154
 -41787963.95347 -32537971.57845  22439111.4534                   22439112.9224
 -26159701.83647 -20364039.48645  21932517.9924                   21932516.3364
   -759774.10546   -580678.54643  24229965.9384                   24229966.4264
 11  9 30  0 28  0.0000000  0 10G15G29G12G02G30G21G05G25G26G18
 -16289254.69947 -12672367.23345  22563321.2584                   22563320.5164
 -36157382.38748 -28155548.53546  20988004.5474                   20988002.8244
 -53798180.36747 -41897352.05144  23459558.4534                   23459558.2664
 -76154502.78947 -59316705.87445  22691999.7894                   22691995.9844
 -22048652.01647 -17160872.45844  22901276.8134                   22901276.1254
  -5636097.06246  -4375144.46643  24440201.3594                   24440200.2344
 -56818886.07448 -44250247.88046  21473937.4534                   21473935.4694
 -41810938.77047 -32555874.04245  22434739.7034                   22434741.1374
 -26309698.72747 -20480920.11145  21903974.5554                   21903973.4884
   -931203.50846   -714259.54943  24197344.3594                   24197344.1174
 11  9 30  0 28 30.0000000  0 10G15G29G12G02G30G21G05G25G26G18
 -16465665.74247 -12809830.25945  22529751.3444                   22529750.6054
 -36300918.14148 -28267394.52146  20960690.5474                   20960688.6214
 -53790140.14547 -41891087.03044  23461088.0084                   23461088.1454
 -76189466.64847 -59343950.37945  22685346.2894                   22685342.5354
 -22111911.21947 -17210165.31644  22889238.5634                   22889237.9884
  -5781262.32446  -4488260.22043  24412577.4064                   24412576.1564
 -56835200.98448 -44262960.79046  21470833.0554                   21470831.2664
 -41833568.64147 -32573507.73445  22430433.7114                   22430434.6414
 -26459209.58647 -20597421.98645  21875523.7734                   21875523.1134
  -1102434.27046   -847685.77843  24164759.8524                   24164760.3014
 11  9 30  0 29  0.0000000  0 10G15G29G12G02G30G21G05G25G26G18
 -16641863.06647 -12947126.76245  22496221.9224                   22496220.9064
 -36444105.98848 -28378969.41246  20933442.4844                   20933440.8164
 -53782032.57446 -41884769.49344  23462630.6884                   23462631.6724
 -76224317.54747 -59371106.88145  22678714.3594                   22678710.9694
 -22174660.60547 -17259060.89344  22877297.5004                   22877297.5164
  -5926453.03146  -4601395.74243  24384947.7664                   24384947.1644
 -56851246.33648 -44275463.62946  21467779.6644                   21467777.2274
 -41855858.52747 -32590876.47645  22426191.6484                   22426193.3524
 -26608233.22347 -20713544.21545  21847164.9844                   21847163.7734
  -1273467.25446   -980957.96743  24132213.0314                   24132213.9924
 11  9 30  0 29 30.0000000  0 10G15G29G12G02G30G21G05G25G26G18
 -16817843.85247 -13084254.53145  22462734.2424                   22462733.0044
 -36586944.03548 -28490271.74046  20906261.3444                   20906259.7274
 -53773861.24246 -41878402.29544  23464186.1884                   23464186.2384
 -76259055.58247 -59398175.45345  22672103.4534                   22672100.2704
 -22236902.34047 -17307560.94944  22865453.5864                   22865453.0234
  -6071669.72346  -4714551.47443  24357313.8524                   24357313.7774
 -56867024.82848 -44287758.55246  21464777.2344                   21464775.0784
 -41877811.72347 -32607982.88945  22422013.9144                   22422016.0984
 -26756766.93047 -20829284.67545  21818899.9534                   21818899.4574
  -1444302.02346  -1114075.69343  24099704.1254                   24099704.7704
 11  9 30  0 30  0.0000000  0 10G15G29G12G02G30G21G05G25G26G18
 -16993603.04747 -13221209.64545  22429287.9924                   22429286.8834
 -36729427.94948 -28601298.12146  20879147.6174                   20879146.4344
 -53765627.19946 -41871986.24444  23465752.9844                   23465752.9804
 -76293678.60947 -59425154.39445  22665515.5474                   22665511.7074
 -22298636.40247 -17355665.38544  22853705.6094                   22853706.3204
  -6216911.24246  -4827726.66743  24329675.6174                   24329674.6254
 -56882537.20348 -44299846.09846  21461825.4694                   21461822.9654
 -41899429.16847 -32624827.68445  22417901.1644                   22417902.0554
 -26904805.52747 -20944639.35545  21790729.5784                   21790727.9184
  -1614935.21546  -1247036.34843  24067233.5314                   24067233.9534
 11  9 30  0 30 30.0000000  0 10G15G29G12G02G30G21G05G25G26G18
 -17169140.47747 -13357991.94545  22395884.4144                   22395883.0664
 -36871558.25848 -28712048.96346  20852101.3204                   20852099.3874
 -53757336.55147 -41865526.09544  23467330.5784                   23467331.5164
 -76328189.02347 -59452045.57145  22658948.3834                   22658944.7584
 -22359867.74647 -17403378.10645  22842054.1564                   22842054.1174
  -6362180.72746  -4940923.59143  24302031.6094                   24302030.7894
 -56897788.65648 -44311730.33546  21458923.0634                   21458920.5514
 -41920716.98847 -32641415.60246  22413850.2194                   22413851.2704
 -27052349.11747 -21059608.29645  21762652.2894                   21762651.6684
  -1785369.10546  -1379841.72643  24034801.1564                   24034801.3834
 11  9 30  0 31  0.0000000  0 10G15G29G12G02G30G21G05G25G26G18
 -17344449.70347 -13494596.43245  22362523.5164                   22362523.0044
 -37013329.68748 -28822520.15346  20825123.0704                   20825121.0434
 -53748988.44147 -41859021.13144  23468919.6024                   23468919.8094
 -76362582.87547 -59478845.94845  22652403.3134                   22652399.7584
 -22420594.80147 -17450697.87445  22830498.3134                   22830497.7464
  -6507474.98046  -5054139.78444  24274382.3444                   24274382.4104
 -56912777.93048 -44323410.26746  21456070.7424                   21456068.2504
 -41941674.50847 -32657746.14845  22409861.3834                   22409863.2344
 -27199390.86347 -21174186.20445  21734671.3524                   21734670.1094
  -1955598.96146  -1512488.10443  24002406.9534                   24002407.6134
 11  9 30  0 31 30.0000000  0 10G15G29G12G02G30G21G05G25G26G18
 -17519527.32847 -13631020.45645  22329206.9924                   22329206.2234
 -37154739.09048 -28932709.25446  20798213.1564                   20798211.6054
 -53740585.93446 -41852473.81444  23470518.8444                   23470519.3094
 -76396859.91047 -59505555.28445  22645880.3284                   22645876.7154
 -22480819.13347 -17497625.87345  22819038.1024                   22819037.2584
  -6652794.10346  -5167375.33944  24246729.6094                   24246729.0164
 -56927507.70748 -44334888.00846  21453267.4694                   21453265.8054
 -41962304.47347 -32673821.45445  22405936.1174                   22405937.6524
 -27345927.47747 -21288370.50245  21706786.3364                   21706785.0594
  -2125623.69946  -1644974.62243  23970052.2504                   23970052.8014
 11  9 30  0 32  0.0000000  0 10G15G29G12G02G30G21G05G25G26G18
 -17694371.33247 -13767262.43245  22295935.9454                   22295935.1844
 -37295785.30148 -29042615.34447  20771373.0704                   20771371.6604
 -53732132.96546 -41845887.13444  23472126.7664                   23472128.0904
 -76431020.22347 -59532173.67845  22639380.0864                   22639376.9304
 -22540543.85947 -17544164.62944  22807672.4454                   22807672.4144
  -6798139.27746  -5280631.24443  24219071.5784                   24219069.9964
 -56941981.07848 -44346165.94246  21450513.2894                   21450510.9734
 -41982610.89147 -32689644.64345  22402071.7424                   22402072.7544
 -27491956.62547 -21402159.36345  21678998.5474                   21678996.9454
  -2295443.10246  -1777301.18143  23937736.1484                   23937736.3984
 11  9 30  0 32 30.0000000  0 10G15G29G12G02G30G21G05G25G26G18
 -17868979.02347 -13903320.28245  22262709.1644                   22262708.2194
 -37436467.07048 -29152237.45546  20744602.6484                   20744600.6914
 -53723633.22746 -41839264.05344  23473744.7194                   23473745.3054
 -76465064.44947 -59558701.60845  22632901.6254                   22632898.4804
 -22599771.55947 -17590316.08144  22796401.7584                   22796401.5824
  -6943511.89146  -5393908.46444  24191408.1024                   24191407.1024
 -56956201.04348 -44357246.41246  21447807.3364                   21447805.0084
 -42002597.57447 -32705218.70345  22398268.2974                   22398270.0904
 -27637476.41847 -21515551.32845  21651306.4774                   21651305.5354
  -2465056.97746  -1909467.60043  23905459.2974                   23905460.2544
 11  9 30  0 33  0.0000000  0 10G15G29G12G02G30G21G05G25G26G18
 -18043346.67247 -14039191.06745  22229527.9224                   22229526.7544
 -37576780.96148 -29261572.92247  20717901.6804                   20717899.8914
 -53715088.98046 -41832606.26844  23475371.0004                   23475370.7234
 -76498991.48847 -59585138.23045  22626445.3594                   22626441.6844
 -22658503.51647 -17636081.22445  22785225.7194                   22785225.4774
  -7088911.40246  -5507206.65943  24163738.4454                   24163738.1724
 -56970169.70348 -44368131.06646  21445149.3204                   21445146.8954
 -42022266.54347 -32720545.19145  22394525.3754                   22394526.8324
 -27782482.42247 -21628542.94145  21623712.8984                   21623711.0274
  -2634463.48846  -2041472.39343  23873222.1724                   23873222.5394
 11  9 30  0 33 30.0000000  0 10G15G29G12G02G30G21G05G25G26G18
 -18217469.35547 -14174870.97345  22196392.9774                   22196392.4964
 -37716723.00048 -29370618.61846  20691271.1724                   20691269.5824
 -53706501.15647 -41825914.50744  23477004.8674                   23477005.2854
 -76532799.04347 -59611481.72445  22620012.0554                   22620008.0124
 -22716739.84047 -17681460.14944  22774143.4774                   22774143.3324
  -7234336.03146  -5620524.44043  24136064.8754                   24136064.0634
 -56983887.71148 -44378820.40146  21442538.7274                   21442535.9144
 -42041618.98847 -32735625.03445  22390842.7344                   22390844.5904
 -27926970.11747 -21741130.67945  21596217.9844                   21596216.5274
  -2803659.67646  -2173313.31943  23841025.2344                   23841024.7934
 11  9 30  0 34  0.0000000  0 10G15G29G12G02G30G21G05G25G26G18
 -16815919.87147 -13082754.39345  22463099.2274                   22463098.1414
 -36280868.54748 -28251770.94947  20964505.2424                   20964503.7194
 -52122454.69947 -40591592.66344  23778439.1094                   23778439.3834
 -74991067.41047 -58410132.36845  22913393.2424                   22913390.0314
 -21199062.50847 -16498854.42844  23062948.1884                   23062947.9494
  -5804363.14846  -4506259.71544  24408180.0234                   24408178.9454
 -55421938.45348 -43161717.06746  21739768.1334                   21739765.4454
 -40485239.06647 -31522861.49245  22687012.2114                   22687014.2274
 -26495513.28548 -20625709.70045  21868615.2894                   21868613.1334
  -1397220.98046  -1077386.83043  24108660.7504                   24108662.7464
 11  9 30  0 34 30.0000000  0 10G15G29G12G02G30G21G05G25G26G18
 -16989544.69947 -13218046.37645  22430059.2814                   22430058.1604
 -36420061.89148 -28360233.25647  20938017.7894                   20938016.3014
 -52113789.99647 -40584841.03044  23780088.3134                   23780087.9964
 -75024635.85247 -58436289.56745  22907005.7504                   22907002.1684
 -21256315.27347 -16543466.96944  23052052.6884                   23052052.8244
  -5949840.78146  -4619618.72443  24380496.1414                   24380495.9654
 -55435163.18448 -43172022.02746  21737251.9774                   21737249.1844
 -40503968.97747 -31537456.23445  22683447.5864                   22683449.1644
 -26638956.30147 -20737483.39945  21841317.9924                   21841316.9734
  -1565995.36746  -1208899.06043  24076544.0164                   24076544.4844
 11  9 30  0 35  0.0000000  0 10G15G29G12G02G30G21G05G25G26G18
 -17162913.46947 -13353138.82945  22397068.4144                   22397067.5044
 -36558874.27348 -28468398.70546  20911602.2114                   20911601.0204
 -52105089.01246 -40578061.07844  23781743.3134                   23781743.9184
 -75058082.08647 -58462351.52245  22900641.0234                   22900637.4884
 -21313076.80547 -16587696.72044  23041251.6334                   23041251.3284
  -6095342.85246  -4732996.88443  24352807.9454                   24352806.8794
 -55448142.16848 -43182135.49846  21734781.5474                   21734779.0354
 -40522389.52047 -31551809.90245  22679942.4304                   22679944.3164
 -26781870.06647 -20848844.72545  21814122.6804                   21814121.6214
  -1734554.89846  -1340243.93643  24044468.7274                   24044468.4884
 11  9 30  0 35 30.0000000  0 10G15G29G12G02G30G21G05G25G26G18
 -17336027.41047 -13488032.71045  22364125.4844                   22364124.9494
 -36697308.19548 -28576269.25547  20885258.9844                   20885257.6764
 -52096358.61746 -40571258.29244  23783404.9694                   23783405.1914
 -75091409.56247 -58488320.96745  22894299.3444                   22894296.4144
 -21369353.33247 -16631548.54344  23030543.2194                   23030541.8634
  -6240874.03146  -4846397.67344  24325114.6094                   24325113.7274
 -55460882.06648 -43192062.66246  21732357.0234                   21732355.2894
 -40540507.95347 -31565928.20145  22676494.5784                   22676496.1844
 -26924255.54347 -20959794.35545  21787027.7974                   21787026.0554
  -1902902.68046  -1471423.76743  24012432.6954                   24012432.3404
 11  9 30  0 36  0.0000000  0 10G15G29G12G02G30G21G05G25G26G18
 -17508878.78547 -13622721.98745  22331233.2274                   22331232.7424
 -36835357.29348 -28683839.92647  20858989.2734                   20858987.9104
 -52087597.58647 -40564431.50444  23785072.2814                   23785071.6604
 -75124613.48847 -58514194.09245  22887980.3134                   22887977.4024
 -21425142.71547 -16675020.78444  23019926.0084                   23019925.5864
  -6386430.06246  -4959817.82944  24297415.9454                   24297414.8714
 -55473380.72748 -43201801.85446  21729978.4224                   21729976.3164
 -40558322.97747 -31579810.03645  22673104.7034                   22673106.3714
 -27066105.73847 -21070326.91245  21760034.6414                   21760033.0204
  -2071033.37146  -1602434.50243  23980438.8284                   23980438.9064
 11  9 30  0 36 30.0000000  0 10G15G29G12G02G30G21G05G25G26G18
 -17681465.59847 -13757205.09945  22298391.2114                   22298390.1724
 -36973019.89848 -28791109.45047  20832792.9224                   20832791.4144
 -52078809.78946 -40557583.95844  23786744.4774                   23786745.3054
 -75157694.37547 -58539971.37145  22881685.4144                   22881682.4264
 -21480447.99247 -16718115.77444  23009401.7424                   23009401.3914
  -6532012.33247  -5073258.50444  24269712.7344                   24269711.3714
 -55485642.07848 -43211356.12446  21727645.3914                   21727643.7504
 -40575838.50847 -31593458.50045  22669771.5314                   22669773.4774
 -27207418.39147 -21180440.58745  21733143.6414                   21733141.8094
  -2238947.05146  -1733276.15343  23948485.3984                   23948485.3054
 11  9 30  0 37  0.0000000  0 10G15G29G12G02G30G21G05G25G26G18
 -17853783.95347 -13891479.04145  22265600.2194                   22265598.5554
 -37110293.09048 -28898075.52047  20806671.1174                   20806669.4804
 -52069997.21547 -40550717.06944  23788421.5164                   23788422.4344
 -75190651.21147 -58565651.99445  22875414.1644                   22875410.8164
 -21535270.38747 -16760834.49644  22998969.5784                   22998969.1484
  -6677620.32446  -5186719.12744  24242003.7974                   24242002.7194
 -55497667.64848 -43220726.67446  21725356.9224                   21725354.8594
 -40593056.85247 -31606875.41445  22666495.0394                   22666496.7504
 -27348189.96547 -21290132.66545  21706355.4064                   21706353.6644
  -2406641.92646  -1863947.25343  23916574.6484                   23916574.3094
 11  9 30  0 37 30.0000000  0 10G15G29G12G02G30G21G05G25G26G18
 -18025831.25847 -14025541.78145  22232860.4614                   22232858.6374
 -37247175.10548 -29004736.76646  20780622.7734                   20780621.1684
 -52061163.62147 -40543833.82344  23790102.8834                   23790103.3364
 -75223484.09847 -58591236.03645  22869166.0314                   22869162.7274
 -21589612.94147 -16803179.36644  22988628.6254                   22988628.1054
  -6823254.59447  -5300200.27244  24214290.8914                   24214290.3134
 -55509460.06248 -43229915.55546  21723113.1174                   21723110.8954
 -40609981.69147 -31620063.60545  22663274.4534                   22663275.8164
 -27488417.85947 -21399401.08845  21679671.0084                   21679669.2274
  -2574117.82046  -1994447.80243  23884704.1094                   23884704.3364
 11  9 30  0 38  0.0000000  0 10G15G29G12G02G30G21G05G25G26G18
 -18197602.48047 -14159389.39045  22200173.4224                   22200171.8954
 -37383661.67648 -29111089.87847  20754650.4614                   20754648.7074
 -52052309.37947 -40536934.48344  23791788.1724                   23791788.0864
 -75256190.60547 -58616721.58945  22862942.2814                   22862938.5124
 -21643475.52347 -16845150.19544  22978378.2504                   22978378.9494
  -6968913.22347  -5413700.40244  24186573.1414                   24186571.3984
 -55521019.82448 -43238923.14246  21720913.1884                   21720911.2584
 -40626613.73047 -31633023.66345  22660109.3524                   22660111.5234
 -27628097.16847 -21508242.04845  21653090.8364                   21653089.9654
  -2741371.41446  -2124775.06643  23852877.0784                   23852876.5004
 11  9 30  0 38 30.0000000  0 10G15G29G12G02G30G21G05G25G26G18
 -18369096.48047 -14293020.97145  22167539.0704                   22167537.6804
 -37519752.50448 -29217134.61747  20728753.0234                   20728751.1914
 -52043439.90646 -40530023.26144  23793474.6414                   23793476.2584
 -75288772.38747 -58642109.97345  22856742.2814                   22856738.9734
 -21696862.50447 -16886750.45744  22968219.3914                   22968220.2664
  -7114598.95747  -5527221.63744  24158849.5004                   24158848.4304
 -55532351.37148 -43247752.89846  21718756.7894                   21718755.1294
 -40642958.31247 -31645759.71945  22656999.0784                   22657001.7234
 -27767227.23447 -21616655.02045  21626615.1884                   21626613.5204
  -2908403.98846  -2254930.20243  23821091.3444                   23821090.8524
 11  9 30  0 39  0.0000000  0 10G15G29G12G02G30G21G05G25G26G18
 -18540307.11747 -14426431.76345  22134958.2424                   22134956.8714
 -37655442.29348 -29322866.85447  20702932.1174                   20702930.0274
 -52034554.53947 -40523099.66844  23795166.6564                   23795166.7734
 -75321225.60547 -58667398.16145  22850566.8914                   22850562.4144
 -21749772.79347 -16927979.26044  22958150.9924                   22958151.3794
  -7260308.37547  -5640761.33944  24131122.7424                   24131121.0744
 -55543453.48848 -43256403.88146  21716644.2344                   21716642.0704
 -40659015.14547 -31658271.56445  22653943.8284                   22653946.0704
 -27905801.80947 -21724635.17045  21600245.3364                   21600243.6174
  -3075210.89846  -2384909.44943  23789348.3674                   23789349.3054
 11  9 30  0 39 30.0000000  0 10G15G29G12G02G30G21G05G25G26G18
 -18711234.77747 -14559622.03945  22102431.8834                   22102430.5314
 -37790732.30148 -29428287.57047  20677187.3134                   20677185.1804
 -52025659.78947 -40516168.78544  23796858.9614                   23796859.0434
 -75353553.50047 -58692588.68345  22844414.7504                   22844410.8444
 -21802212.21547 -16968841.15044  22948171.9774                   22948172.0474
  -7406045.78147  -5754322.79744  24103389.1484                   24103387.3594
 -55554332.27748 -43264880.82946  21714573.5314                   21714571.8554
 -40674790.79347 -31670564.28745  22650941.7974                   22650944.0824
 -28043821.54747 -21832182.94045  21573980.9614                   21573979.7584
  -3241795.49646  -2514715.52143  23757649.3054                   23757648.8524
 11  9 30  0 40  0.0000000  0 10G15G29G12G02G30G21G05G25G26G18
 -18881872.54347 -14692586.45445  22069960.3674                   22069959.5204
 -37925616.47748 -29533392.06146  20651519.3914                   20651517.5554
 -52016754.74246 -40509229.86044  23798552.6174                   23798553.5514
 -75385751.81647 -58717678.25045  22838287.3524                   22838284.1214
 -21854179.18447 -17009334.89644  22938283.1644                   22938283.0394
  -7551807.22747  -5867902.98444  24075651.3364                   24075650.5474
 -55564986.03148 -43273182.43146  21712546.2974                   21712544.5314
 -40690284.59847 -31682637.39245  22647993.4064                   22647995.3954
 -28181279.93447 -21939293.29945  21547823.3284                   21547821.5164
  -3408152.82846  -2644344.50343  23725991.5004                   23725992.4774
 11  9 30  0 40 30.0000000  0 10G15G29G12G02G30G21G05G25G26G18
 -19052216.45747 -14825321.87745  22037545.1024                   22037543.5044
 -38060091.94148 -29638178.07146  20625929.8524                   20625927.7194
 -52007841.63746 -40502284.63644  23800249.0234                   23800250.4414
 -75417819.51647 -58742666.03144  22832184.9694                   22832181.3714
 -21905675.16047 -17049461.64444  22928483.8134                   22928483.3244
  -7697592.20747  -5981501.51644  24047909.3284                   24047908.0354
 -55575416.65648 -43281310.15646  21710561.5784                   21710559.9694
 -40705498.76647 -31694492.60945  22645098.4144                   22645099.7114
 -28318173.40647 -22045963.45845  21521773.6174                   21521771.4844
  -3574280.95746  -2773794.84543  23694378.8134                   23694378.7664
 11  9 30  0 41  0.0000000  0 10G15G29G12G02G30G21G05G25G26G18
 -19222264.16847 -14957826.48145  22005185.7504                   22005184.4454
 -38194156.96148 -29742644.26247  20600418.2504                   20600416.2504
 -51998923.48846 -40495335.50944  23801947.0164                   23801947.3054
 -75449756.38747 -58767551.86844  22826107.6414                   22826103.4804
 -21956702.96147 -17089223.57544  22918774.1804                   22918773.8794
  -7843401.67246  -6095119.11744  24020161.7114                   24020161.0744
 -55585626.94948 -43289266.22046  21708618.7114                   21708616.4384
 -40720436.88347 -31706132.69645  22642255.0784                   22642257.4614
 -28454499.53947 -22152191.56745  21495831.2114                   21495829.8484
  -3740179.86346  -2903066.58143  23662809.1024                   23662809.0004
 11  9 30  0 41 30.0000000  0 10G15G29G12G02G30G21G05G25G26G18
 -19392010.56647 -15090096.33045  21972884.2114                   21972882.2154
 -38327807.46548 -29846787.45547  20574984.8914                   20574983.0124
 -51990001.62146 -40488383.43944  23803644.7734                   23803645.1294
 -75481560.07847 -58792333.91944  22820056.3204                   22820051.5124
 -22007263.04747 -17128621.07844  22909152.6094                   22909152.2034
  -7989233.73446  -6208754.36144  23992411.4144                   23992410.1884
 -55595617.46148 -43297051.02046  21706717.4064                   21706715.7424
 -40735100.15647 -31717558.64145  22639465.2584                   22639467.2664
 -28590253.75447 -22257974.00545  21469998.2274                   21469996.9304
  -3905846.90647  -3032157.66043  23631283.4844                   23631282.6724
 11  9 30  0 42  0.0000000  0 10G15G29G12G02G30G21G05G25G26G18
 -19561456.60247 -15222132.12345  21940640.1954                   21940638.6134
 -38461045.05948 -29950608.89747  20549630.7734                   20549628.8794
 -51981082.75046 -40481433.77144  23805341.6644                   23805342.0704
 -75513234.30147 -58817015.08944  22814028.1804                   22814024.2704
 -22057361.42247 -17167658.79744  22899619.2034                   22899619.2544
  -8135092.36747  -6322410.23744  23964655.4384                   23964654.3324
 -55605394.16048 -43304669.20846  21704856.7274                   21704854.9654
 -40749495.37947 -31728775.71145  22636725.7274                   22636728.0164
 -28725437.02747 -22363311.56445  21444273.8054                   21444272.0434
  -4071284.60946  -3161069.99743  23599802.2814                   23599800.8834
 11  9 30  0 42 30.0000000  0 10G15G29G12G02G30G21G05G25G26G18
 -19730595.47747 -15353928.56345  21908453.4844                   21908451.8524
 -38593864.23048 -30054104.31247  20524356.3444                   20524353.9734
 -51972165.76647 -40474485.55144  23807039.3674                   23807039.1844
 -75544775.31647 -58841592.49744  22808025.6724                   22808022.7734
 -22106997.27347 -17206336.07345  22890173.7974                   22890173.8524
  -8280974.78947  -6436084.66743  23936894.3914                   23936894.2384
 -55614956.04348 -43312120.00946  21703037.5164                   21703035.8134
 -40763622.40647 -31739783.79745  22634037.5634                   22634039.8284
 -28860043.51247 -22468199.67145  21418658.9694                   21418657.2034
  -4236488.96946  -3289800.49643  23568363.7664                   23568363.3984
 11  9 30  0 43  0.0000000  0 10G15G29G12G02G30G21G05G25G26G18
 -18323997.97347 -14257878.48145  22176120.5634                   22176118.1024
 -37150837.24648 -28929667.65547  20798954.6414                   20798953.2734
 -50387833.36346 -39239940.89344  24108526.5314                   24108528.4654
 -74000760.42647 -57638463.95644  23101841.8204                   23101838.5824
 -20580750.17647 -16017052.63045  23180609.0234                   23180609.1414
  -6851455.13346  -5322173.09443  24208923.0554                   24208921.9654
 -54048884.05948 -42091804.17246  22001051.0474                   22001049.2074
 -39202062.82847 -30522984.12145  22931192.4534                   22931194.2384
 -27418644.91447 -21345031.86345  21692947.8914                   21692946.3014
  -2826032.68046  -2190743.47543  23836765.3204                   23836764.1334
 11  9 30  0 43 30.0000000  0 10G15G29G12G02G30G21G05G25G26G18
 -18492512.53947 -14389188.43445  22144052.4534                   22144051.5984
 -37282811.27747 -29032504.53247  20773841.2344                   20773839.3554
 -50378928.35947 -39233002.01244  24110221.7734                   24110222.5434
 -74032031.88747 -57662831.31244  23095891.5944                   23095887.7584
 -20629466.31247 -16055013.27044  23171338.7584                   23171338.6054
  -6997383.75447  -5435883.51844  24181153.5554                   24181152.2934
 -54058021.69948 -42098924.38746  21999312.4064                   21999309.8134
 -39215661.03947 -30533580.13145  22928604.7194                   22928607.2034
 -27552088.05147 -21449013.46545  21667554.2664                   21667552.7584
  -2990766.12546  -2319107.04043  23805417.2274                   23805417.6094
 11  9 30  0 44  0.0000000  0 10G15G29G12G02G30G21G05G25G26G18
 -18660709.67248 -14520251.04045  22112045.7584                   22112044.3014
 -37414358.98048 -29135009.18947  20748808.7734                   20748806.9654
 -50370032.69147 -39226070.38144  24111914.5394                   24111915.4384
 -74063167.42647 -57687092.76944  23089966.4614                   23089962.9024
 -20677725.52747 -16092617.85144  23162155.6564                   23162154.9224
  -7143335.57447  -5549612.09344  24153379.9064                   24153378.7584
 -54066950.07447 -42105881.55246  21997612.6884                   21997611.5164
 -39228998.85547 -30543973.24145  22926066.6564                   22926068.6134
 -27684945.05948 -21552538.33845  21642272.0084                   21642270.9024
  -3155262.29746  -2447285.67443  23774114.3914                   23774114.8404
 11  9 30  0 44 30.0000000  0 10G15G29G12G02G30G21G05G25G26G18
 -18828586.70748 -14651064.23045  22080100.0864                   22080097.9774
 -37545478.48048 -29237180.18247  20723857.3674                   20723855.1214
 -50361149.42247 -39219148.41444  24113605.2114                   24113605.0634
 -74094166.66047 -57711247.95144  23084067.5084                   23084064.1294
 -20725530.38347 -16129868.35245  23153058.1564                   23153058.4574
  -7289310.19947  -5663358.39044  24125602.0084                   24125600.6914
 -54075671.64847 -42112677.56646  21995953.6174                   21995951.4694
 -39242079.54747 -30554165.99445  22923577.5634                   22923579.6254
 -27817213.18747 -21655604.35645  21617102.9384                   21617101.4184
  -3319520.59446  -2575278.94843  23742857.1094                   23742856.3834
 11  9 30  0 45  0.0000000  0 10G15G29G12G02G30G21G05G25G26G18
 -18996141.34848 -14781626.20845  22048215.7114                   22048214.0784
 -37676168.63348 -29339016.62547  20698987.8594                   20698985.5354
 -50352282.00847 -39212238.82144  24115292.4064                   24115293.7384
 -74125030.16047 -57735297.41644  23078194.5084                   23078190.8834
 -20772884.26647 -16166767.44844  23144047.3204                   23144047.0234
  -7435308.95347  -5777123.48544  24097819.6564                   24097817.9024
 -54084189.55148 -42119314.87046  21994332.5634                   21994330.2624
 -39254907.07047 -30564161.46845  22921136.6884                   22921138.0354
 -27948890.67647 -21758210.14145  21592045.3054                   21592043.7974
  -3483541.07446  -2703086.89544  23711644.9144                   23711644.9534
 11  9 30  0 45 30.0000000  0 10G15G29G12G02G30G21G05G25G26G18
 -19163369.98048 -14911934.16046  22016393.0084                   22016391.1604
 -37806426.42248 -29440516.17047  20674200.3984                   20674198.5314
 -50343433.05547 -39205343.59744  24116976.7974                   24116977.5474
 -74155756.92247 -57759240.31244  23072346.8984                   23072343.4534
 -20819788.88347 -16203316.47744  23135121.4694                   23135121.4454
  -7581331.53947  -5890907.23744  24070031.7114                   24070030.2894
 -54092505.57447 -42125794.88346  21992750.4384                   21992748.5704
 -39267483.97747 -30573961.67445  22918742.9694                   22918745.1804
 -28079974.41848 -21860353.26945  21567100.7344                   21567099.1644
  -3647322.26647  -2830708.38844  23680478.2584                   23680477.6954
 11  9 30  0 46  0.0000000  0 10G15G29G12G02G30G21G05G25G26G18
 -19330268.34848 -15041984.75746  21984633.0084                   21984631.5944
 -37936248.69948 -29541676.34647  20649496.0864                   20649493.9454
 -50334604.19947 -39198464.05044  24118657.1724                   24118657.8484
 -74186345.21947 -57783075.32244  23066526.7274                   23066523.0784
 -20866245.66447 -16239516.52044  23126280.7274                   23126280.1684
  -7727376.86347  -6004708.62744  24042239.9774                   24042238.7154
 -54100620.45747 -42132118.14146  21991205.7274                   21991203.9614
 -39279812.18047 -30583568.05545  22916396.9534                   22916399.1644
 -28210461.16848 -21962031.18946  21542269.5234                   21542267.9774
  -3810862.32447  -2958141.98644  23649357.3204                   23649357.2234
 11  9 30  0 46 30.0000000  0 10G15G29G12G02G30G21G05G25G26G18
 -19496834.47748 -15171776.45646  21952936.5314                   21952934.8874
 -38065634.33248 -29642496.28447  20624874.8594                   20624872.9414
 -50325799.32047 -39191603.19844  24120332.7664                   24120332.7704
 -74216795.92247 -57806803.14344  23060731.9384                   23060728.7504
 -20912258.08647 -16275370.30444  23117524.9534                   23117524.7814
  -7873446.30547  -6118528.85644  24014444.2664                   24014442.7154
 -54108538.18447 -42138287.76146  21989699.5784                   21989697.6054
 -39291895.86747 -30592983.95545  22914097.8754                   22914099.5004
 -28340348.85947 -22063242.33345  21517553.1024                   21517551.4184
  -3974161.59447  -3085387.96244  23618282.2504                   23618281.6564
 11  9 30  0 47  0.0000000  0 10G15G29G12G02G30G21G05G25G26G18
 -19663063.28548 -15301305.31146  21921304.5944                   21921302.5594
 -38194579.05548 -29742972.64547  20600337.4224                   20600335.4414
 -50317018.99247 -39184761.42844  24122003.9614                   24122004.2194
 -74247106.16447 -57830421.49444  23054964.2034                   23054960.4224
 -20957826.46547 -16310878.08144  23108852.9534                   23108853.4694
  -8019537.64547  -6232366.22244  23986643.5474                   23986642.8714
 -54116258.52347 -42144303.59446  21988230.5084                   21988228.4574
 -39303735.91447 -30602209.97445  22911844.6804                   22911846.7194
 -28469632.95347 -22163983.15245  21492951.1024                   21492949.1414
  -4137216.84447  -3212443.79444  23587253.7344                   23587253.8794
 11  9 30  0 47 30.0000000  0 10G15G29G12G02G30G21G05G25G26G18
 -19828953.19548 -15430570.07446  21889736.2894                   21889734.9414
 -38323082.16448 -29843104.89547  20575883.8364                   20575881.6884
 -50308266.75447 -39177941.58044  24123668.8914                   24123669.4774
 -74277276.68447 -57853930.96544  23049222.7584                   23049218.9774
 -21002954.37547 -16346042.61345  23100266.0634                   23100265.8484
  -8165652.11347  -6346221.53844  23958839.3674                   23958836.5824
 -54123784.66447 -42150168.08646  21986798.2114                   21986796.0274
 -39315336.61347 -30611249.47645  22909637.2344                   22909638.8954
 -28598312.12147 -22264252.57446  21468463.8984                   21468462.3484
  -4300028.84447  -3339310.10144  23556271.6884                   23556270.8634
 11  9 30  0 48  0.0000000  0 10G15G29G12G02G30G21G05G25G26G18
 -19994499.10948 -15559566.81946  21858233.9064                   21858232.5314
 -38451139.93048 -29942890.12847  20551515.6644                   20551513.1484
 -50299544.02047 -39171144.68444  24125328.9144                   24125329.0864
 -74307305.65247 -57877330.14344  23043508.5634                   23043505.3324
 -21047642.92247 -16380864.81944  23091762.2194                   23091760.8284
  -8311788.69547  -6460094.10544  23931030.0164                   23931028.1214
 -54131117.77047 -42155882.17246  21985402.6804                   21985400.8094
 -39326699.49247 -30620103.70745  22907475.4924                   22907476.6024
 -28726382.46947 -22364047.61246  21444093.1334                   21444091.2074
  -4462595.10547  -3465984.91544  23525336.4614                   23525335.1954
 11  9 30  0 48 30.0000000  0 10G15G29G12G02G30G21G05G25G26G18
 -20159702.49648 -15688296.64046  21826796.8284                   21826795.0394
 -38578754.18448 -30042329.76147  20527231.1254                   20527229.0634
 -50290857.84447 -39164376.25843  24126981.8594                   24126982.1644
 -74337196.79347 -57900621.91244  23037820.6024                   23037816.6094
 -21091898.70347 -16415349.78244  23083339.7734                   23083339.7384
  -8457951.24647  -6573986.89844  23903216.5474                   23903213.9144
 -54138264.02347 -42161450.65946  21984042.9224                   21984040.7034
 -39337831.81647 -30628778.21845  22905356.7274                   22905358.1804
 -28853845.64848 -22463369.50846  21419837.6484                   21419835.7624
  -4624919.09847  -3592470.99544  23494447.0314                   23494445.8954
 11  9 30  0 49  0.0000000  0 10G15G29G12G02G30G21G05G25G26G18
 -20324559.92247 -15816756.87546  21795424.9694                   21795423.5784
 -38705922.66848 -30141422.03447  20503032.1094                   20503029.9414
 -50282210.51647 -39157638.17944  24128626.7114                   24128628.5164
 -74366949.26647 -57923805.63144  23032158.4304                   23032155.1484
 -21135723.77747 -16449499.13244  23075000.5004                   23075000.4144
  -8604139.68447  -6687899.91244  23875397.1334                   23875394.7704
 -54145225.18748 -42166874.90946  21982717.8204                   21982715.4414
 -39348736.24247 -30637275.21145  22903281.9384                   22903283.1954
 -28980698.75448 -22562216.05645  21395698.3594                   21395696.6024
  -4786999.56247  -3718767.24844  23463603.8204                   23463602.4024
 11  9 30  0 49 30.0000000  0 10G15G29G12G02G30G21G05G25G26G18
 -20489066.98848 -15944944.14146  21764120.5784                   21764118.7934
 -38832641.52348 -30240163.95247  20478918.1644                   20478916.0234
 -50273603.15246 -39150931.19943  24130264.9774                   24130266.4224
 -74396560.89847 -57946879.63544  23026523.4454                   23026520.1844
 -21179119.14847 -16483313.67944  23066742.7194                   23066742.2814
  -8750352.57047  -6801831.89144  23847574.0004                   23847571.8594
 -54152001.82447 -42172155.38746  21981428.6024                   21981426.9414
 -39359414.35247 -30645595.83145  22901249.5704                   22901251.2814
 -29106937.85547 -22660584.12645  21371675.8054                   21371674.0984
  -4948834.33247  -3844872.11344  23432807.6644                   23432806.4654
 11  9 30  0 50  0.0000000  0 10G15G29G12G02G30G21G05G25G26G18
 -20653220.94948 -16072856.21646  21732882.9064                   21732881.3284
 -38958909.50048 -30338554.51947  20454889.6724                   20454887.9574
 -50265039.26646 -39144258.10844  24131894.7114                   24131895.9654
 -74426032.07047 -57969844.16144  23020915.3984                   23020912.2664
 -21222088.09047 -16516795.92244  23058566.0784                   23058566.0744
  -8896590.57447  -6915783.52244  23819746.1644                   23819743.1994
 -54158596.83647 -42177294.31846  21980173.6174                   21980171.2934
 -39369869.81247 -30653742.94745  22899260.0004                   22899261.8244
 -29232561.18047 -22758472.38746  21347770.3054                   21347768.7074
  -5110422.87146  -3970785.09443  23402057.5554                   23402057.6134
 11  9 30  0 50 30.0000000  0 10G15G29G12G02G30G21G05G25G26G18
 -20817018.90647 -16200490.89846  21701712.9064                   21701711.8134
 -39084724.41848 -30436592.07247  20430947.8914                   20430946.1884
 -50256521.25446 -39137620.80943  24133515.4614                   24133517.0944
 -74455362.23047 -57992698.82444  23015334.2424                   23015330.4024
 -21264632.83647 -16549947.65044  23050469.3754                   23050469.7304
  -9042853.58247  -7029754.54944  23791912.9694                   23791910.3484
 -54165012.23847 -42182293.31746  21978952.5554                   21978950.8484
 -39380105.54747 -30661718.85745  22897311.8284                   22897314.3284
 -29357566.12947 -22855878.77446  21323982.5554                   21323981.3524
  -5271764.80547  -4096505.92043  23371355.9774                   23371354.5354
 11  9 30  0 51  0.0000000  0 10G15G29G12G02G30G21G05G25G26G18
 -20980458.01648 -16327845.97146  21670611.8444                   21670609.8524
 -39210084.14548 -30534274.91947  20407092.6024                   20407090.8364
 -50248051.73046 -39131021.27144  24135127.5634                   24135129.1054
 -74484550.89847 -58015443.21344  23009780.2504                   23009775.8954
 -21306756.13347 -16582770.96044  23042453.9224                   23042453.7504
  -9189141.60547  -7143745.11644  23764075.2424                   23764071.5044
 -54171250.53147 -42187154.30646  21977765.8284                   21977763.5514
 -39390124.75847 -30669526.06245  22895405.7114                   22895407.9304
 -29481950.55548 -22952801.65746  21300312.8054                   21300311.2664
  -5432859.09447  -4222033.77944  23340700.5864                   23340699.0634
 11  9 30  0 51 30.0000000  0 10G15G29G12G02G30G21G05G25G26G18
 -21143534.36748 -16454918.35946  21639579.4224                   21639577.9534
 -39334985.90248 -30631600.90347  20383324.6804                   20383322.7934
 -50239632.46546 -39124460.94643  24136729.4064                   24136731.0124
 -74513596.52747 -58038076.17744  23004252.5084                   23004248.9024
 -21348459.60247 -16615267.16044  23034518.3054                   23034517.7934
  -9335453.91847  -7257754.58444  23736232.2424                   23736230.8284
 -54177312.94947 -42191878.24446  21976611.7344                   21976609.7424
 -39399929.50847 -30677166.12645  22893539.9384                   22893542.4844
 -29605711.02348 -23049238.33145  21276762.2584                   21276760.2034
  -5593704.06647  -4347367.41844  23310093.1024                   23310091.9804
 11  9 30  0 52  0.0000000  0 10G15G29G12G02G30G21G05G25G26G18
 -21306247.98048 -16581708.10646  21608615.9454                   21608614.2154
 -39459430.63348 -30728570.77647  20359643.7424                   20359641.4964
 -50231269.48846 -39117944.43543  24138321.7664                   24138322.3404
 -74542501.97747 -58060599.90444  22998751.8984                   22998747.5234
 -21389749.03147 -16647440.73144  23026660.9534                   23026660.4144
  -9481793.70347  -7371785.43144  23708384.4694                   23708382.9924
 -54183204.57447 -42196469.11346  21975490.0164                   21975488.9884
 -39409526.17247 -30684644.08045  22891713.7664                   22891715.3164
 -29728848.61347 -23145189.63845  21253329.7114                   21253327.8874
  -5754302.29347  -4472508.71244  23279531.8914                   23279530.2774
 11  9 30  0 52 30.0000000  0 10G15G29G12G02G30G21G05G25G26G18
 -19893171.65647 -15480609.58246  21877515.0164                   21877513.5204
 -38007993.21147 -29597580.52447  20635842.8914                   20635840.8444
 -48647546.78947 -37883874.90343  24439693.6644                   24439694.6954
 -72995846.96547 -56855414.17144  23293070.8054                   23293067.0204
 -19855206.69146 -15451693.44144  23318674.3914                   23318674.4774
  -8052737.10947  -6258234.71744  23980325.4454                   23980323.6334
 -52613508.55947 -40973329.34345  22274193.4224                   22274191.5274
 -37843498.45347 -29464362.75945  23189719.0164                   23189720.9804
 -28275938.16847 -22013051.56346  21529809.3524                   21529807.8054
  -4339229.04747  -3369854.06744  23548810.4614                   23548809.9144
 11  9 30  0 53  0.0000000  0 10G15G29G12G02G30G21G05G25G26G18
 -20055148.82848 -15606825.48346  21846691.9304                   21846689.7664
 -38131515.77048 -29693831.82047  20612337.3054                   20612335.6334
 -48639301.71947 -37877450.27444  24441262.8284                   24441263.8054
 -73024468.51647 -56877716.65944  23287624.7734                   23287620.3674
 -19895673.64547 -15483226.08544  23310973.8134                   23310974.1684
  -8199129.70347  -6372306.71144  23952467.1884                   23952465.8984
 -52619062.88347 -40977657.37545  22273136.6564                   22273134.9264
 -37852685.84447 -29471521.76045  23187970.8284                   23187972.5124
 -28397820.98448 -22108025.12846  21506615.9694                   21506613.9964
  -4499329.94947  -3494607.84244  23518344.4614                   23518343.3554
 11  9 30  0 53 30.0000000  0 10G15G29G12G02G30G21G05G25G26G18
 -20216754.61748 -15732751.99746  21815939.4614                   21815937.2854
 -38254575.25448 -29789722.28147  20588919.8914                   20588918.0204
 -48631120.97747 -37871075.74144  24442820.1334                   24442820.8674
 -73052948.25447 -56899908.63644  23282204.5394                   23282200.4614
 -19935734.05547 -15514442.01744  23303350.9774                   23303351.4654
  -8345549.82047  -6486400.16044  23924604.2664                   23924602.6524
 -52624452.85247 -40981857.33346  22272110.8524                   22272108.5314
 -37861674.10247 -29478525.61645  23186260.4924                   23186262.5704
 -28519074.05148 -22202507.97946  21483542.2584                   21483540.0554
  -4659181.61347  -3619167.47444  23487925.9064                   23487924.6644
 11  9 30  0 54  0.0000000  0 10G15G29G12G02G30G21G05G25G26G18
 -20377982.94948 -15858384.37846  21785258.6414                   21785256.2704
 -38377166.87148 -29885248.17047  20565591.2814                   20565589.8014
 -48623003.95747 -37864750.87744  24444364.2664                   24444365.9024
 -73081283.17247 -56921987.76844  23276812.6804                   23276809.1134
 -19975387.98847 -15545341.17944  23295804.1884                   23295804.8244
  -8491994.41847  -6600512.71844  23896736.6724                   23896735.4024
 -52629677.60947 -40985928.57745  22271116.5944                   22271114.4884
 -37870463.57847 -29485374.54745  23184587.5864                   23184589.5744
 -28639692.18448 -22296496.06946  21460588.8914                   21460587.3444
  -4818780.87947  -3743530.36244  23457554.0864                   23457552.8244
 11  9 30  0 54 30.0000000  0 10G15G29G12G02G30G21G05G25G26G18
 -20538835.64148 -15983724.08246  21754649.1254                   21754647.0514
 -38499293.43748 -29980411.70147  20542351.3364                   20542349.7114
 -48614958.27047 -37858481.60344  24445896.3444                   24445896.4104
 -73109477.08247 -56943957.07444  23271447.5864                   23271444.2464
 -20014642.67247 -15575929.26344  23288334.5234                   23288334.4654
  -8638468.28147  -6714648.06044  23868863.7894                   23868861.4884
 -52634744.22747 -40989876.55945  22270152.2734                   22270150.4184
 -37879061.99247 -29492074.62945  23182951.4144                   23182954.0434
 -28759678.01248 -22389991.47146  21437756.8914                   21437754.9344
  -4978131.94547  -3867699.90844  23427231.7344                   23427229.3754
 11  9 30  0 55  0.0000000  0 10G15G29G12G02G30G21G05G25G26G18
 -20699306.30948 -16108766.09646  21724112.6254                   21724110.0984
 -38620949.28548 -30075208.43047  20519200.9144                   20519199.1414
 -48606982.69547 -37852266.97044  24447413.1564                   24447414.3444
 -73137526.37947 -56965813.63644  23266110.0554                   23266105.8404
 -20053497.27047 -15606205.58044  23280941.0394                   23280940.9384
  -8784968.20747  -6828803.72644  23840985.6094                   23840984.2384
 -52639651.06247 -40993700.08746  22269218.6804                   22269216.8164
 -37887468.99247 -29498625.57145  23181351.6884                   23181353.1914
 -28879026.12148 -22482989.94146  21415045.4304                   21415043.6454
  -5137230.27347  -3991672.47144  23396955.9304                   23396954.1954
 11  9 30  0 55 30.0000000  0 10G15G29G12G02G30G21G05G25G26G18
 -20859395.52748 -16233510.85946  21693648.6484                   21693646.4804
 -38742136.05548 -30169639.65247  20496140.2814                   20496137.7934
 -48599083.31247 -37846111.71843  24448917.2424                   24448918.0474
 -73165434.11746 -56987559.94944  23260799.1884                   23260795.3914
 -20091957.93747 -15636174.97444  23273622.6884                   23273622.2974
  -8931497.60247  -6942982.38844  23813102.4304                   23813099.6804
 -52644403.80547 -40997403.50045  22268314.2504                   22268312.1844
 -37895691.18047 -29505032.48745  23179786.9924                   23179788.7384
 -28997737.64548 -22575492.39246  21392455.3834                   21392453.4534
  -5296079.07847  -4115450.63844  23366727.9064                   23366725.8874
 11  9 30  0 56  0.0000000  0 10G15G29G12G02G30G21G05G25G26G18
 -21019099.84447 -16357955.72146  21663258.2974                   21663255.9104
 -38862851.13348 -30263703.31247  20473168.5004                   20473166.4774
 -48591262.41447 -37840017.58543  24450405.2114                   24450405.8324
 -73193199.11846 -57009194.97544  23255514.6414                   23255511.7424
 -20130026.85247 -15665839.07044  23266378.5784                   23266377.9884
  -9078055.37546  -7057183.17144  23785213.2584                   23785210.8794
 -52649003.80947 -41000987.91645  22267438.9144                   22267436.7464
 -37903730.85947 -29511297.18545  23178256.9454                   23178259.0394
 -29115809.87147 -22667496.67645  21369986.9694                   21369984.7704
  -5454676.71546  -4239033.06944  23336547.3834                   23336546.3134
 11  9 30  0 56 30.0000000  0 10G15G29G12G02G30G21G05G25G26G18
 -21178414.66447 -16482097.07446  21632940.9064                   21632939.2424
 -38983091.05148 -30357396.73447  20450287.8834                   20450285.5664
 -48583520.69146 -37833985.14543  24451878.3594                   24451879.2424
 -73220819.46946 -57030717.33644  23250259.0474                   23250255.4454
 -20167704.96947 -15695198.65144  23259208.6644                   23259208.0204
  -9224639.95747  -7171404.80644  23757318.6884                   23757316.7774
 -52653451.84047 -41004453.92145  22266592.4844                   22266590.5354
 -37911589.60547 -29517420.91945  23176761.8284                   23176764.0514
 -29233239.23847 -22759000.03146  21347640.9454                   21347639.1214
  -5613021.27346  -4362418.31344  23306415.2344                   23306414.3834
 11  9 30  0 57  0.0000000  0 10G15G29G12G02G30G21G05G25G26G18
 -21337337.10947 -16605932.67146  21602699.1414                   21602696.8554
 -39102853.64148 -30450718.21247  20427497.8914                   20427495.8554
 -48575860.75046 -37828016.40543  24453335.8674                   24453337.0044
 -73248294.59846 -57052126.53343  23245031.2584                   23245026.4104
 -20204995.11347 -15724255.92844  23252112.3834                   23252111.8244
  -9371251.98047  -7285647.87744  23729419.3134                   23729417.5084
 -52657749.89147 -41007803.05445  22265774.8754                   22265772.8874
 -37919270.52047 -29523406.07245  23175300.1644                   23175301.7894
 -29350023.58247 -22850000.78945  21325417.3674                   21325414.7974
  -5771112.01247  -4485605.76144  23276331.7344                   23276330.3524
 11  9 30  0 57 30.0000000  0 10G15G29G12G02G30G21G05G25G26G18
 -21495865.57447 -16729461.25446  21572531.6414                   21572530.0314
 -39222138.94148 -30543667.77947  20404798.4304                   20404796.7034
 -48568286.99246 -37822114.83243  24454775.9384                   24454778.4454
 -73275625.28946 -57073423.15044  23239830.3444                   23239826.6374
 -20241901.25847 -15753013.99044  23245089.2814                   23245089.2814
  -9517892.37546  -7399913.00344  23701514.1484                   23701512.1094
 -52661901.76247 -41011038.27345  22264984.7974                   22264982.1564
 -37926778.09447 -29529256.16245  23173871.6094                   23173873.9064
 -29466162.63347 -22940498.71646  21303316.8984                   21303314.3874
  -5928949.36747  -4608595.74544  23246295.7504                   23246293.8914
 11  9 30  0 58  0.0000000  0 10G15G29G12G02G30G21G05G25G26G18
 -21653998.36347 -16852681.54446  21542440.1954                   21542438.2704
 -39340945.56648 -30636244.35047  20382190.5084                   20382188.2234
 -48560802.59846 -37816282.96843  24456202.0234                   24456201.3364
 -73302812.15246 -57094607.75044  23234657.0554                   23234652.7274
 -20278427.05147 -15781475.65344  23238138.5234                   23238138.5474
  -9664562.14547  -7514201.08044  23673604.5784                   23673602.0554
 -52665909.83647 -41014161.42645  22264221.9924                   22264219.6994
 -37934116.23047 -29534974.24045  23172474.9774                   23172477.7234
 -29581655.03547 -23030492.76545  21281339.0864                   21281337.0514
  -6086534.06647  -4731388.94244  23216308.2974                   23216306.8164
 11  9 30  0 58 30.0000000  0 10G15G29G12G02G30G21G05G25G26G18
 -21811733.34048 -16975591.84246  21512424.3524                   21512422.4574
 -39459272.34048 -30728447.00347  20359673.4844                   20359671.4774
 -48553410.87546 -37810523.38143  24457607.9774                   24457608.8914
 -73329855.63746 -57115680.60644  23229511.9304                   23229506.5634
 -20314575.91446 -15809643.60744  23231259.3674                   23231259.4614
  -9811261.25846  -7628512.00144  23645688.0164                   23645685.8794
 -52669776.94547 -41017174.74845  22263486.0864                   22263483.8324
 -37941288.60947 -29540563.14945  23171110.0864                   23171111.8714
 -29696499.79748 -23119982.15645  21259485.1024                   21259482.7934
  -6243866.18447  -4853985.24544  23186368.9304                   23186367.5904
 11  9 30  0 59  0.0000000  0 10G15G29G12G02G30G21G05G25G26G18
 -21969065.61347 -17098188.35146  21482484.6094                   21482482.7424
 -39577116.00448 -30820273.23047  20337248.7734                   20337246.5824
 -48546112.42246 -37804836.32343  24458997.6334                   24458998.4224
 -73356753.35946 -57136639.87144  23224392.0864                   23224388.3244
 -20350349.22747 -15837518.91344  23224452.3204                   23224451.3204
  -9957989.05146  -7742845.29344  23617765.6954                   23617764.3444
 -52673503.59848 -41020078.61745  22262777.1334                   22262774.4024
 -37948296.89847 -29546024.20545  23169776.4304                   23169778.7934
 -29810692.91848 -23208963.78145  21237754.7894                   21237752.2974
  -6400943.61747  -4976383.11044  23156478.1564                   23156476.8484
 11  9 30  0 59 30.0000000  0 10G15G29G12G02G30G21G05G25G26G18
 -22125994.53548 -17220470.56246  21452622.0784                   21452620.5274
 -39694476.16048 -30911722.67247  20314915.8834                   20314913.7344
 -48538911.87546 -37799225.65044  24460367.5864                   24460368.8244
 -73383506.37946 -57157486.37544  23219301.6174                   23219297.6764
 -20385751.21546 -15865104.86044  23217715.7664                   23217714.6294
 -10104746.80946  -7857201.92044  23589840.1954                   23589837.0824
 -52677093.65247 -41022876.03045  22262093.9694                   22262091.7934
 -37955145.72747 -29551360.97645  23168473.0394                   23168475.8164
 -29924234.68448 -23297437.84946  21216148.8524                   21216146.9064
  -6557767.09847  -5098583.09144  23126635.4774                   23126634.3874
 11  9 30  1  0  0.0000000  0 10G15G29G12G02G30G21G05G25G26G18
 -22282516.14847 -17342435.40146  21422836.9534                   21422835.0354
 -39811350.10548 -31002793.25647  20292675.3984                   20292673.1804
 -48531810.69546 -37793692.34744  24461718.6724                   24461720.3324
 -73410113.78146 -57178219.42444  23214239.0004                   23214234.4304
 -20420783.54746 -15892402.79544  23211049.4614                   23211049.1054
 -10251533.36347  -7971581.01344  23561907.1804                   23561904.5824
 -52680548.08647 -41025567.80245  22261436.4384                   22261433.9064
 -37961837.18047 -29556575.13745  23167200.3204                   23167203.0634
 -30037122.00048 -23385401.96245  21194666.7974                   21194664.2344
  -6714335.13347  -5220584.03344  23096841.4844                   23096840.2664
 11  9 30  1  0 30.0000000  0 10G15G29G12G02G30G21G05G25G26G18
 -22438628.79347 -17464081.55646  21393129.9224                   21393128.2814
 -39927737.28947 -31093484.54447  20270527.6024                   20270525.1214
 -48524812.83646 -37788239.61144  24463050.8594                   24463052.4534
 -73436576.14546 -57198839.47044  23209203.0634                   23209198.7664
 -20455450.70747 -15919416.13944  23204452.9064                   23204451.9844
 -10398349.93446  -8085983.48744  23533969.0704                   23533966.7734
 -52683870.08247 -41028156.32645  22260804.3204                   22260801.6054
 -37968375.73847 -29561670.16145  23165956.1724                   23165958.3554
 -30149354.57448 -23472855.87946  21173309.7814                   21173307.3794
  -6870648.81247  -5342386.77844  23067096.1564                   23067094.7974
 11  9 30  1  1  0.0000000  0 10G15G29G12G02G30G21G05G25G26G18
 -22594330.24648 -17585407.31646  21363500.8204                   21363498.7304
 -40043636.11748 -31183795.27247  20248472.8364                   20248470.5124
 -48517920.83247 -37782869.30944  24464362.4144                   24464363.8874
 -73462893.52346 -57219346.48444  23204194.6644                   23204190.6644
 -20489755.39847 -15946147.05344  23197923.5864                   23197924.7664
 -10545196.49647  -8200409.31144  23506024.8444                   23506022.8324
 -52687062.22747 -41030643.69845  22260196.9924                   22260194.2894
 -37974764.61747 -29566648.53945  23164740.2734                   23164742.3134
 -30260930.43748 -23559798.06745  21152077.2274                   21152075.2344
  -7026707.76647  -5463990.99744  23037398.6414                   23037397.1994
 11  9 30  1  1 30.0000000  0 10G15G29G12G02G30G21G05G25G26G18
 -21174192.17647 -16478806.14746  21633744.0314                   21633742.5044
 -38583620.85948 -30046121.01647  20526304.6334                   20526301.9654
 -46935717.30546 -36549983.56744  24765445.1024                   24765447.5274
 -71913644.50847 -56012139.45944  23499007.0634                   23499003.0904
 -18948279.25046 -14744996.80244  23491257.1564                   23491257.1054
  -9116648.27347  -7087254.79744  23777868.5554                   23777865.1914
 -51114706.13747 -39805431.13445  22559406.2894                   22559404.2464
 -36405586.52747 -28343912.40644  23463345.0394                   23463347.5474
 -28796424.44548 -22418624.53145  21430763.6954                   21430761.0704
  -5607086.06247  -4357792.11744  23307543.6804                   23307542.4414
 11  9 30  1  2  0.0000000  0 10G15G29G12G02G30G21G05G25G26G18
 -21329061.96948 -16599483.84846  21604273.3204                   21604271.2464
 -38698537.20748 -30135666.18347  20504436.1954                   20504434.2774
 -46929044.02046 -36544783.71544  24766716.2424                   24766717.1524
 -71939670.00446 -56032419.08045  23494054.4614                   23494051.2074
 -18981867.27347 -14771169.28944  23484865.5554                   23484865.4694
  -9263554.57047  -7201727.17844  23749913.0004                   23749910.8524
 -51117644.07847 -39807720.43245  22558846.5704                   22558844.5204
 -36411684.75047 -28348664.31045  23462184.4224                   23462186.0744
 -28906682.05948 -22504539.50946  21409782.3914                   21409780.0204
  -5762633.17247  -4478997.52344  23277944.0164                   23277942.3284
 11  9 30  1  2 30.0000000  0 10G15G29G12G02G30G21G05G25G26G18
 -21483511.27347 -16719833.90246  21574882.8754                   21574880.5394
 -38812959.20748 -30224826.14947  20482662.5394                   20482660.7074
 -46922483.53946 -36539671.80143  24767964.0944                   24767965.6134
 -71965548.10946 -56052583.86244  23489129.8754                   23489126.7504
 -19015100.49647 -14797065.28644  23478541.3914                   23478541.7424
  -9410489.85247  -7316222.10444  23721952.2504                   23721949.0664
 -51120456.96147 -39809912.27145  22558312.1094                   22558309.6524
 -36417641.66847 -28353306.07245  23461050.9924                   23461053.0984
 -29016277.09048 -22589938.20045  21388927.1414                   21388924.7854
  -5917922.96147  -4600002.40644  23248393.5864                   23248391.5234
 11  9 30  1  3  0.0000000  0 10G15G29G12G02G30G21G05G25G26G18
 -21637535.92647 -16839853.05346  21545572.8134                   21545570.4884
 -38926883.68448 -30313598.42647  20460983.5864                   20460980.8834
 -46916036.51646 -36534648.24543  24769191.2034                   24769192.1484
 -71991276.99647 -56072632.35144  23484234.3204                   23484230.2464
 -19047980.37147 -14822685.94544  23472284.4534                   23472284.7854
  -9557452.54747  -7430738.41044  23693985.8984                   23693983.3874
 -51123145.52747 -39812007.24845  22557800.0394                   22557798.1684
 -36423458.98047 -28357839.05345  23459944.2344                   23459945.8754
 -29125206.60548 -22674818.29145  21368198.1724                   21368196.3554
  -6072953.62946  -4720805.40244  23218891.8524                   23218889.3324
 11  9 30  1  3 30.0000000  0 10G15G29G12G02G30G21G05G25G26G18
 -21791134.52347 -16959540.21646  21516344.1564                   21516341.6294
 -39040310.49248 -30401982.91047  20439399.1804                   20439396.1684
 -46909707.25846 -36529716.47343  24770395.1414                   24770397.1484
 -72016858.05146 -56092565.68344  23479366.4304                   23479361.9144
 -19080511.37947 -14848034.79444  23466093.8444                   23466093.9494
  -9704444.21947  -7545277.29944  23666014.1484                   23666011.5744
 -51125713.35247 -39814008.13145  22557311.7424                   22557309.6214
 -36429141.33247 -28362266.87845  23458862.8524                   23458864.7854
 -29233470.75448 -22759179.92846  21347596.6414                   21347593.9454
  -6227726.40247  -4841407.42644  23189439.3444                   23189437.7194
 11  9 30  1  4  0.0000000  0 10G15G29G12G02G30G21G05G25G26G18
 -21944307.98848 -17078896.09846  21487195.6564                   21487193.5984
 -39153240.85948 -30489980.56647  20417909.3134                   20417906.6484
 -46903501.39545 -36524880.85542  24771577.1884                   24771578.2154
 -72042294.05946 -56112385.96444  23474525.4694                   23474521.7624
 -19112699.64147 -14873116.56544  23459969.0004                   23459969.0474
  -9851468.15647  -7659841.32344  23638036.3204                   23638033.3714
 -51128165.80547 -39815919.11145  22556844.8204                   22556842.8164
 -36434694.94947 -28366594.40245  23457806.0474                   23457808.2384
 -29341070.92648 -22843024.17545  21327120.3674                   21327118.0594
  -6382243.57447  -4961810.28244  23160035.7974                   23160034.4064
 11  9 30  1  4 30.0000000  0 10G15G29G12G02G30G21G05G25G26G18
 -22097053.02748 -17197918.14846  21458128.9064                   21458126.9534
 -39265672.99648 -30577589.98747  20396514.0004                   20396511.2814
 -46897420.49645 -36520142.66042  24772734.1334                   24772735.0784
 -72067584.00846 -56132092.44144  23469713.0234                   23469709.4574
 -19144547.38747 -14897932.97444  23453909.1174                   23453908.3594
  -9998523.53947  -7774429.83644  23610052.6884                   23610050.7034
 -51130504.12547 -39817741.19045  22556399.6024                   22556397.5274
 -36440122.37547 -28370823.58145  23456772.8914                   23456775.4024
 -29448005.12548 -22926349.48446  21306772.0234                   21306769.5904
  -6536504.52747  -5082013.50544  23130680.6174                   23130678.7504
 11  9 30  1  5  0.0000000  0 10G15G29G12G02G30G21G05G25G26G18
 -22249364.35248 -17316602.24346  21429145.5554                   21429143.4024
 -39377602.69148 -30664807.88747  20375214.2424                   20375212.0594
 -46891465.28946 -36515502.39443  24773866.9064                   24773868.8594
 -72092725.00846 -56151682.82144  23464928.6884                   23464924.9884
 -19176055.04347 -14922484.40144  23447913.1954                   23447912.7814
 -10145607.60547  -7889040.69544  23582063.3834                   23582061.5824
 -51132727.84847 -39819473.93645  22555976.9534                   22555974.7704
 -36445424.19547 -28374954.87945  23455763.9384                   23455766.2234
 -29554269.13348 -23009152.57345  21286549.8834                   21286547.7624
  -6690506.14847  -5202014.67244  23101375.2034                   23101373.1454
 11  9 30  1  5 30.0000000  0  9G15G29G02G30G21G05G25G26G18
 -22401239.83247 -17434946.70846  21400244.2664                   21400242.0084
 -39489028.70748 -30751633.32347  20354010.5634                   20354008.0704
 -72117717.02746 -56171157.15244  23460173.1414                   23460169.1764
 -19207225.94547 -14946773.40644  23441981.7504                   23441981.1644
 -10292720.59047  -8003674.10344  23554068.8364                   23554066.5864
 -51134839.63347 -39821119.49345  22555575.0394                   22555572.7304
 -36450603.87147 -28378991.03245  23454778.9224                   23454780.8364
 -29659862.22748 -23091432.87245  21266456.5704                   21266454.0904
  -6844248.47747  -5321813.76944  23072118.9774                   23072117.2074
 11  9 30  1  6  0.0000000  0  9G15G29G02G30G21G05G25G26G18
 -22552675.84047 -17552948.73446  21371427.0084                   21371425.1604
 -39599948.40248 -30838064.23147  20332903.2194                   20332900.7894
 -72142558.89546 -56190514.50144  23455446.1334                   23455442.1454
 -19238062.20746 -14970801.67744  23436113.4304                   23436113.0084
 -10439861.63347  -8118329.39544  23526068.7504                   23526066.0784
 -51136840.23447 -39822678.41745  22555194.0234                   22555192.0274
 -36455663.75047 -28382933.82245  23453815.8134                   23453818.0274
 -29764781.91448 -23173188.43145  21246491.1884                   21246488.7074
  -6997730.67647  -5441410.15444  23042912.1094                   23042910.5784
 11  9 30  1  6 30.0000000  0  9G15G29G02G30G21G05G25G26G18
 -22703664.20347 -17670601.94146  21342694.8914                   21342692.7734
 -39710354.55948 -30924094.97447  20311893.5394                   20311891.0944
 -72167244.82846 -56209750.28944  23450747.8914                   23450744.8914
 -19268561.22746 -14994567.13844  23430309.2584                   23430309.3834
 -10587025.28147  -8233002.23444  23498064.1804                   23498061.9454
 -51138726.08247 -39824147.91845  22554835.7194                   22554833.2774
 -36460601.30547 -28386781.27044  23452876.0944                   23452878.2304
 -29869021.36748 -23254413.95246  21226655.2034                   21226652.5124
  -7150946.32047  -5560798.88044  23013756.1334                   23013754.1724
 11  9 30  1  7  0.0000000  0  9G15G29G02G30G21G05G25G26G18
 -22854201.98848 -17787904.06046  21314048.1414                   21314046.4264
 -39820245.56648 -31009724.30547  20290982.0394                   20290979.6804
 -72191773.79346 -56228863.78343  23446081.1174                   23446076.7464
 -19298725.38347 -15018071.73344  23424569.6484                   23424569.3094
 -10734210.76247  -8347692.11244  23470056.0234                   23470053.0864
 -51140498.93047 -39825529.36045  22554497.7974                   22554495.9414
 -36465419.22347 -28390535.51644  23451959.2504                   23451961.1054
 -29972578.65248 -23335107.92046  21206948.7114                   21206946.1214
  -7303894.35547  -5679979.05844  22984651.9384                   22984649.1024
 11  9 30  1  7 30.0000000  0  9G15G29G02G30G21G05G25G26G18
 -23004284.50448 -17904851.40846  21285488.6024                   21285486.2424
 -39929617.75048 -31094949.35647  20270169.3204                   20270166.8524
 -72216143.64547 -56247853.33244  23441443.4304                   23441439.3164
 -19328555.74647 -15041316.14744  23418892.8674                   23418893.7934
 -10881416.12947  -8462397.48844  23442043.2344                   23442041.1374
 -51142158.42247 -39826822.49745  22554182.3284                   22554180.0434
 -36470118.49247 -28394197.29344  23451065.3524                   23451066.5984
 -30075450.52048 -23415267.77445  21187372.8444                   21187370.5124
  -7456573.00447  -5798949.35244  22955596.8524                   22955594.5634
 11  9 30  1  8  0.0000000  0  9G15G29G02G30G21G05G25G26G18
 -23153913.54747 -18021445.39746  21257015.1804                   21257012.9414
 -40038473.84048 -31179772.27047  20249454.4614                   20249452.3484
 -72240358.39146 -56266721.96944  23436835.5084                   23436831.6724
 -19358059.58647 -15064306.15544  23413278.4454                   23413278.7734
 -11028645.39147  -8577121.47844  23414026.7894                   23414025.0514
 -51143711.02347 -39828032.30345  22553886.5944                   22553884.4494
 -36474706.60547 -28397772.48244  23450192.2734                   23450193.9304
 -30177639.94548 -23494895.86545  21167927.0084                   21167923.7304
  -7608986.03547  -5917712.65844  22926593.7734                   22926591.5704
 11  9 30  1  8 30.0000000  0  9G15G29G02G30G21G05G25G26G18
 -23303085.83248 -18137683.47946  21228628.3754                   21228626.1994
 -40146811.71548 -31264191.37947  20228838.5004                   20228836.1094
 -72264416.47747 -56285468.55644  23432257.8444                   23432253.7544
 -19387239.18447 -15087043.53844  23407726.2664                   23407725.8014
 -11175897.79747  -8691863.49144  23386004.8524                   23386002.7234
 -51145158.03947 -39829159.86345  22553611.4614                   22553609.5944
 -36479185.93047 -28401262.90244  23449339.3984                   23449340.9734
 -30279145.06248 -23573990.73346  21148611.1254                   21148607.9774
  -7761132.49647  -6036268.25044  22897640.9224                   22897639.3834
 11  9 30  1  9  0.0000000  0  9G15G29G02G30G21G05G25G26G18
 -23451796.49648 -18253561.84446  21200329.6334                   21200327.6054
 -40254627.12148 -31348203.36347  20208322.0864                   20208319.6954
 -72288315.44147 -56304091.15344  23427710.0864                   23427705.5864
 -19416094.93046 -15109528.54244  23402235.2734                   23402234.8874
 -11323170.23047  -8806621.09044  23357979.9534                   23357977.8484
 -51146498.75847 -39830204.57145  22553356.5784                   22553353.8714
 -36483556.99247 -28404668.96444  23448507.9064                   23448509.5474
 -30379962.08248 -23652549.43546  21129426.2584                   21129423.3984
  -7913009.28947  -6154613.72844  22868739.7344                   22868738.1524
 11  9 30  1  9 30.0000000  0  9G15G29G02G30G21G05G25G26G18
 -23600049.77048 -18369083.82246  21172117.8594                   21172115.8244
 -40361925.62148 -31431812.56447  20187903.7194                   20187900.9654
 -72312062.05947 -56322595.02144  23423191.0784                   23423186.8054
 -19444636.93446 -15131769.05044  23396803.3134                   23396803.2304
 -11470469.82847  -8921399.89444  23329949.6804                   23329947.2034
 -51147742.21147 -39831173.50945  22553118.8754                   22553117.1764
 -36487829.79747 -28407998.46344  23447694.7424                   23447696.3444
 -30480096.74648 -23730576.40845  21110371.2504                   21110368.0634
  -8064623.22347  -6272754.37044  22839888.9144                   22839886.7234
 11  9 30  1 10  0.0000000  0  9G15G29G02G30G21G05G25G26G18
 -23747843.18748 -18484247.45946  21143993.8444                   21143991.0474
 -40468705.59048 -31515017.71547  20167584.2664                   20167581.6294
 -72335655.53547 -56340979.51044  23418701.3524                   23418696.9574
 -19472867.63746 -15153767.02344  23391431.6644                   23391431.3324
 -11617796.16447  -9036199.52244  23301914.7034                   23301912.4454
 -51148889.78947 -39832067.73345  22552900.7814                   22552899.0234
 -36492007.21147 -28411253.62644  23446900.0634                   23446902.2344
 -30579547.53148 -23808070.50245  21091446.0474                   21091443.6054
  -8215973.57847  -6390689.63344  22811087.8754                   22811085.5394
 11  9 30  1 10 30.0000000  0  9G15G29G02G30G21G05G25G26G18
 -22319748.42247 -17371446.29246  21415751.2114                   21415748.8404
 -38999541.21548 -30370214.28847  20447157.0394                   20447154.2624
 -70783673.90647 -55131643.19644  23714033.6024                   23714030.1414
 -17925368.69547 -13947923.70444  23685910.9844                   23685910.6094
 -10189723.35547  -7923415.35844  23573667.1644                   23573664.8164
 -49574522.82847 -38605288.27645  22852493.0164                   22852491.3094
 -34920671.41047 -27186836.16944  23745915.2814                   23745917.7624
 -29102889.43048 -22657427.79845  21372444.8754                   21372442.4774
  -6791634.40647  -5280814.87344  23082130.2664                   23082128.0234
 11  9 30  1 11  0.0000000  0  9G15G29G02G30G21G05G25G26G18
 -22466614.88747 -17485887.62746  21387803.1804                   21387800.9184
 -39105280.17648 -30452608.25947  20427035.2974                   20427032.8524
 -70806960.37947 -55149788.47344  23709602.5314                   23709598.9064
 -17952986.68046 -13969444.23744  23680655.5394                   23680654.9224
 -10337103.15647  -8038256.67244  23545621.8834                   23545619.5514
 -49575485.06247 -38606038.08845  22852309.8674                   22852308.1564
 -34924667.63347 -27189950.15544  23745155.1724                   23745156.7584
 -29200969.73048 -22733853.98645  21353780.6954                   21353778.1094
  -6942456.98447  -5398338.89944  23053430.0864                   23053428.0704
 11  9 30  1 11 30.0000000  0  9G15G29G02G30G21G05G25G26G18
 -22613017.63347 -17599967.62846  21359943.9454                   21359942.0044
 -39210500.22748 -30534597.87947  20407012.6254                   20407009.9144
 -70830096.45747 -55167816.58044  23705200.1174                   23705196.5784
 -17980306.30146 -13990732.22344  23675456.0944                   23675455.8444
 -10484512.86747  -8153121.27244  23517570.7034                   23517568.0394
 -49576361.04747 -38606720.66645  22852143.7584                   22852141.3094
 -34928581.41047 -27192999.86344  23744409.8364                   23744412.1374
 -29298366.66848 -22809747.67445  21335246.8524                   21335244.4614
  -7093019.47747  -5515660.26444  23024778.3594                   23024776.7894
 11  9 30  1 12  0.0000000  0  9G15G29G02G30G21G05G25G26G18
 -22758953.39547 -17713683.75346  21332173.0314                   21332171.1484
 -39315198.95348 -30616181.26947  20387089.2734                   20387086.4494
 -70853081.10947 -55185726.73944  23700826.0634                   23700822.5864
 -18007329.85246 -14011789.52844  23670313.7504                   23670313.9654
 -10631951.32447  -8268008.27644  23489513.5314                   23489511.4144
 -49577151.80947 -38607336.83345  22851993.4384                   22851990.4694
 -34932414.90647 -27195987.03544  23743680.0864                   23743682.0124
 -29395078.38748 -22885107.43146  21316843.5634                   21316840.5984
  -7243319.98447  -5632777.47544  22996177.2504                   22996175.4534
 11  9 30  1 12 30.0000000  0  9G15G29G02G30G21G05G25G26G18
 -22904419.87948 -17827034.19846  21304491.8594                   21304489.3164
 -39419375.03948 -30697357.41447  20367265.0554                   20367262.5274
 -70875914.00047 -55203518.62444  23696480.7424                   23696477.3134
 -18034060.36346 -14032618.47044  23665227.1884                   23665227.4884
 -10779418.44547  -8382917.62244  23461451.8444                   23461449.1914
 -49577859.41047 -38607888.19945  22851858.6884                   22851855.6844
 -34936171.40647 -27198914.20944  23742965.8284                   23742967.8754
 -29491104.15648 -22959932.67146  21298569.9304                   21298567.3594
  -7393358.52747  -5749690.56944  22967625.9384                   22967623.1684
 11  9 30  1 13  0.0000000  0  9G15G29G02G30G21G05G25G26G18
 -23049412.40247 -17940015.33346  21276900.1564                   21276898.2384
 -39523024.93748 -30778123.54247  20347541.1724                   20347538.6724
 -70898592.57846 -55221190.28744  23692165.0634                   23692162.1024
 -18060498.70346 -14053219.76444  23660196.5784                   23660196.5124
 -10926912.07447  -8497847.60344  23433384.7504                   23433381.6884
 -49578483.39147 -38608374.39945  22851739.7034                   22851737.8054
 -34939851.63747 -27201781.93244  23742265.5314                   23742267.4064
 -29586440.64848 -23034220.81145  21280427.9304                   21280425.5004
  -7543132.78947  -5866397.70544  22939124.1484                   22939122.2974
 11  9 30  1 13 30.0000000  0  9G15G29G02G30G21G05G25G26G18
 -23193932.57047 -18052628.39146  21249399.3524                   21249396.4734
 -39626151.76648 -30858482.07547  20327916.6564                   20327914.2424
 -70921120.43446 -55238744.48644  23687878.6804                   23687875.1414
 -18086651.98447 -14073598.94244  23655219.7274                   23655219.0634
 -11074436.08247  -8612801.29145  23405311.9454                   23405309.3404
 -49579029.57047 -38608799.99545  22851635.7194                   22851633.3244
 -34943462.68747 -27204595.75544  23741578.2274                   23741580.7974
 -29681090.99247 -23107974.31345  21262416.5234                   21262414.1094
  -7692646.34047  -5982901.70744  22910673.4534                   22910670.0314
 11  9 30  1 14  0.0000000  0  9G15G29G02G30G21G05G25G26G18
 -23337979.57048 -18164872.75446  21221987.8134                   21221985.7624
 -39728755.11348 -30938432.71447  20308391.9064                   20308389.4804
 -70943498.86346 -55256182.23343  23683619.6254                   23683616.3914
 -18112524.49247 -14093759.33344  23650297.0784                   23650295.7384
 -11221991.13347  -8727779.12544  23377232.7974                   23377230.4494
 -49579501.01247 -38609167.33445  22851546.0394                   22851543.3364
 -34947008.93747 -27207359.11744  23740903.8444                   23740905.5824
 -29775055.53148 -23181193.41045  21244535.7584                   21244532.7894
  -7841900.35547  -6099203.45844  22882270.9774                   22882268.7234
 11  9 30  1 14 30.0000000  0  9G15G29G02G30G21G05G25G26G18
 -23481548.77048 -18276744.80446  21194667.5394                   21194664.8594
 -39830831.34848 -31017972.61247  20288967.2664                   20288964.8834
 -70965725.05146 -55273501.37243  23679389.2664                   23679386.5274
 -18138117.00047 -14113701.52344  23645426.2504                   23645425.8404
 -11369574.48047  -8842779.06144  23349148.4844                   23349145.6604
 -49579897.39147 -38609476.19545  22851470.2664                   22851468.1134
 -34950491.02347 -27210072.42844  23740240.6884                   23740242.6884
 -29868331.18048 -23253875.70345  21226785.7664                   21226783.4414
  -7990892.25047  -6215300.97244  22853918.4144                   22853916.4734
 11  9 30  1 15  0.0000000  0  9G15G29G02G30G21G05G25G26G18
 -23624640.33648 -18388244.67846  21167438.3204                   21167435.3204
 -39932382.19548 -31097103.12947  20269642.7734                   20269640.6484
 -70987801.57445 -55290703.90743  23675188.6804                   23675184.9734
 -18163435.51647 -14133430.22044  23640608.0164                   23640607.8754
 -11517189.46547  -8957803.61244  23321058.5084                   23321056.0704
 -49580223.39847 -38609730.23345  22851408.4924                   22851406.2194
 -34953915.03947 -27212740.52244  23739589.2274                   23739590.6094
 -29960919.94547 -23326022.77546  21209166.6564                   21209164.4024
  -8139624.78147  -6331196.37844  22825615.8204                   22825613.5204
 11  9 30  1 15 30.0000000  0  9G15G29G02G30G21G05G25G26G18
 -23767249.71948 -18499368.82546  21140300.5784                   21140297.4654
 -40033403.95348 -31175821.35447  20250419.1644                   20250417.1294
 -71009725.78945 -55307787.76543  23671017.1334                   23671013.5164
 -18188480.61747 -14152945.84144  23635842.1884                   23635841.4844
 -11664832.87947  -9072850.33644  23292962.8134                   23292959.2894
 -49580478.47347 -38609928.97845  22851359.8594                   22851357.5984
 -34957281.41447 -27215363.66344  23738948.9144                   23738950.7424
 -30052818.66048 -23397632.12546  21191679.0474                   21191676.6644
  -8288095.41847  -6446887.70444  22797362.9304                   22797360.1994
 11  9 30  1 16  0.0000000  0  9G15G29G02G30G21G05G25G26G18
 -23909375.85948 -18610116.41146  21113254.6094                   21113251.6524
 -40133896.61348 -31254127.29447  20231295.8674                   20231293.6724
 -71031498.77746 -55324753.72143  23666873.9144                   23666870.7894
 -18213256.49247 -14172251.76544  23631127.8204                   23631127.6644
 -11812505.71947  -9187920.00944  23264861.3984                   23264857.9264
 -49580665.44147 -38610074.66645  22851324.6484                   22851322.1454
 -34960594.41047 -27217945.26244  23738318.0394                   23738321.0554
 -30144027.56648 -23468703.96446  21174322.2584                   21174320.2384
  -8436305.18747  -6562375.75344  22769159.3834                   22769156.9574
 11  9 30  1 16 30.0000000  0  9G15G29G02G30G21G05G25G26G18
 -24051017.52048 -18720486.50346  21086301.3524                   21086299.2114
 -40233860.22348 -31332020.99347  20212273.1804                   20212270.6644
 -71053121.00446 -55341602.26044  23662759.5784                   23662756.1094
 -18237767.46946 -14191351.25044  23626463.0474                   23626463.2114
 -11960209.11347  -9303013.48444  23236754.1644                   23236751.8834
 -49580787.31247 -38610169.62545  22851300.9064                   22851299.2504
 -34963858.17647 -27220488.47244  23737697.4534                   23737699.7664
 -30234547.33247 -23539238.82045  21157096.8754                   21157094.9304
  -8584254.73447  -6677661.01844  22741005.5784                   22741003.1094
 11  9 30  1 17  0.0000000  0  9G15G29G02G30G21G05G25G26G18
 -24192172.85948 -18830477.61346  21059439.8834                   21059437.3444
 -40333293.87148 -31409501.74047  20193351.5864                   20193349.2304
 -71074592.51246 -55358333.33744  23658674.1484                   23658670.2114
 -18262016.89147 -14210246.88844  23621848.9614                   23621849.0514
 -12107942.68047  -9418130.45245  23208642.0554                   23208638.0594
 -49580846.25447 -38610215.56345  22851290.3364                   22851287.4384
 -34967076.08247 -27222995.94444  23737085.2034                   23737087.1844
 -30324377.38747 -23609236.23046  21140002.8984                   21140001.1094
  -8731944.23447  -6792743.61545  22712901.1564                   22712898.7154
 11  9 30  1 17 30.0000000  0  9G15G29G02G30G21G05G25G26G18
 -24332841.17248 -18940089.23346  21032671.3594                   21032669.2194
 -40432197.75848 -31486569.68747  20174531.0704                   20174528.5434
 -71095914.57046 -55374947.93443  23654616.6644                   23654612.7664
 -18286009.28147 -14228942.27644  23617283.4534                   23617282.6994
 -12255707.71947  -9533271.94045  23180522.8284                   23180520.0594
 -49580845.55547 -38610215.01045  22851289.7814                   22851287.7814
 -34970252.61747 -27225471.17644  23736480.4144                   23736482.4264
 -30413518.81647 -23678697.04846  21123040.4924                   21123037.5904
  -8879375.31647  -6907624.89644  22684845.7894                   22684843.2934
 11  9 30  1 18  0.0000000  0  9G15G29G02G30G21G05G25G26G18
 -24473020.02048 -19049319.46746  21005996.4064                   21005994.1804
 -40530570.75448 -31563223.95347  20155811.0864                   20155808.8444
 -71117086.93046 -55391445.89144  23650587.8444                   23650583.5634
 -18309747.69947 -14247439.78344  23612766.0314                   23612765.6334
 -12403503.95747  -9648437.75845  23152398.6174                   23152394.7664
 -49580786.69947 -38610169.14545  22851301.4774                   22851298.8594
 -34973390.63747 -27227916.41144  23735883.3204                   23735885.8364
 -30501970.61347 -23747620.50945  21106207.8524                   21106205.6094
  -9026547.58247  -7022304.46344  22656839.4694                   22656837.5354
 11  9 30  1 18 30.0000000  0  9G15G29G02G30G21G05G25G26G18
 -24612708.25448 -19158167.38446  20979414.7584                   20979412.4264
 -40628412.92648 -31639464.58547  20137192.5634                   20137189.9574
 -71138110.59047 -55407827.97143  23646586.9614                   23646583.5274
 -18333236.36747 -14265742.68244  23608296.4454                   23608295.4694
 -12551332.17647  -9763628.48445  23124267.2974                   23124263.4844
 -49580672.50447 -38610080.17845  22851323.2114                   22851320.7344
 -34976494.41447 -27230334.98844  23735292.0634                   23735294.9924
 -30589733.56247 -23816007.19345  21089507.1484                   21089504.9414
  -9173461.74247  -7136782.93145  22628882.3754                   22628880.5474
 11  9 30  1 19  0.0000000  0  9G15G29G02G30G21G05G25G26G18
 -24751901.81248 -19266629.85046  20952926.9304                   20952924.4104
 -40725721.04748 -31715289.07447  20118675.4454                   20118672.8404
 -71158983.01247 -55424092.15843  23642615.7034                   23642610.7034
 -18356476.62947 -14283852.05344  23603873.4924                   23603873.2624
 -12699190.27347  -9878842.48844  23096130.5004                   23096127.6334
 -49580503.13747 -38609948.20145  22851355.5944                   22851353.0164
 -34979564.97347 -27232727.65244  23734708.2504                   23734710.6804
 -30676804.96947 -23883855.00445  21072937.8594                   21072935.5394
  -9320116.05147  -7251058.89845  22600975.3284                   22600973.4304
 11  9 30  1 19 30.0000000  0  9G15G29G02G30G21G05G25G26G18
 -24890599.94548 -19374706.25246  20926533.4694                   20926531.2344
 -40822495.34048 -31790697.59147  20100259.7664                   20100257.4384
 -71179705.49247 -55440239.57143  23638671.7194                   23638667.1334
 -18379472.57447 -14301770.99544  23599497.7664                   23599497.3054
 -12847078.82047  -9994080.24044  23067988.1804                   23067985.5164
 -49580281.31647 -38609775.35345  22851397.4614                   22851395.3054
 -34982606.39547 -27235097.64644  23734129.4224                   23734132.5164
 -30763185.70348 -23951164.62645  21056500.2194                   21056497.5904
  -9466511.81647  -7365133.40544  22573117.2114                   22573114.7034
 11  9 30  1 20  0.0000000  0  9G15G29G02G30G21G05G25G26G18
 -23453377.26248 -18254792.42646  21200028.0554                   21200025.4574
 -39343313.28148 -30638088.16747  20381738.5704                   20381736.3444
 -69624858.91847 -54228670.77343  23934549.0944                   23934544.3244
 -16826808.37147 -13091902.81344  23894960.0314                   23894959.6994
 -11419574.49247  -8881739.09245  23339633.0314                   23339630.2934
 -48004590.85947 -37381964.65645  23151241.5704                   23151238.8364
 -33410203.53147 -26009848.73144  24033347.6414                   24033350.2584
 -29273454.20748 -22790334.84945  21339986.4064                   21339984.2424
  -8037225.75447  -6251403.88145  22845100.9304                   22845098.1174
 11  9 30  1 20 30.0000000  0  9G15G29G02G30G21G05G25G26G18
 -23591079.24648 -18362092.63446  21173824.0004                   21173821.6914
 -39439018.32048 -30712663.49647  20363526.7344                   20363524.1564
 -69645282.37547 -54244585.08343  23930662.5004                   23930657.8364
 -16849326.77347 -13109449.73244  23890674.4384                   23890674.5274
 -11567524.82447  -8997024.97845  23311478.9304                   23311476.0784
 -48004271.21947 -37381715.57445  23151302.3524                   23151299.6684
 -33413197.49647 -26012181.74344  24032777.9924                   24032780.5984
 -29358453.84848 -22856568.31946  21323812.5084                   21323809.4184
  -8183105.30147  -6365076.15245  22817341.2274                   22817337.7384
 11  9 30  1 21  0.0000000  0  9G15G29G02G30G21G05G25G26G18
 -23728280.28148 -18469002.47946  21147715.4844                   21147713.0984
 -39534187.26648 -30786821.08147  20345416.7584                   20345414.2894
 -69665555.75847 -54260382.53643  23926804.6174                   23926800.2074
 -16871611.18047 -13126814.28344  23886434.4924                   23886433.9574
 -11715505.43747  -9112334.45045  23283319.6094                   23283316.3404
 -48003905.18747 -37381430.34345  23151371.8984                   23151370.0354
 -33416172.25446 -26014499.80444  24032212.2894                   24032214.7234
 -29442762.36747 -22922263.23245  21307768.6254                   21307766.0664
  -8328726.65647  -6478547.22545  22789630.3364                   22789627.1644
 11  9 30  1 21 30.0000000  0  9G15G29G02G30G21G05G25G26G18
 -23864978.30148 -18575520.36546  21121702.4844                   21121700.3364
 -39628819.17248 -30860560.20947  20327408.5474                   20327406.2894
 -69685679.09447 -54276063.04143  23922975.6484                   23922971.5004
 -16893664.85246 -13143998.97444  23882237.2034                   23882237.9184
 -11863516.37947  -9227667.57445  23255153.1644                   23255150.1604
 -48003494.91447 -37381110.68545  23151450.1564                   23151448.1134
 -33419131.04347 -26016805.37944  24031648.9614                   24031651.6294
 -29526379.60947 -22987419.48945  21291856.6174                   21291853.8554
  -8474089.77747  -6591817.07845  22761968.4534                   22761965.5704
 11  9 30  1 22  0.0000000  0  9G15G29G02G30G21G05G25G26G18
 -24001172.22748 -18681645.45246  21095786.1024                   21095783.4614
 -39722914.41848 -30933881.14847  20309503.1334                   20309500.6644
 -69705653.10546 -54291627.24143  23919174.1724                   23919170.1214
 -16915491.79746 -13161007.03644  23878084.3364                   23878083.8054
 -12011558.01647  -9343024.62445  23226982.7504                   23226979.0554
 -48003042.78147 -37380758.37845  23151536.4144                   23151534.0394
 -33422077.65647 -26019101.48544  24031088.9224                   24031091.0044
 -29609306.10247 -23052037.49745  21276076.2894                   21276073.5784
  -8619195.98447  -6704886.72445  22734355.7034                   22734352.7974
 11  9 30  1 22 30.0000000  0  9G15G29G02G30G21G05G25G26G18
 -24136858.66048 -18787375.09746  21069965.7814                   21069963.2074
 -39816470.59048 -31006782.03047  20291700.1174                   20291697.5784
 -69725476.14846 -54307073.79643  23915401.5164                   23915397.8484
 -16937093.86746 -13177839.84944  23873973.1484                   23873974.0984
 -12159629.04347  -9458404.57445  23198805.1174                   23198801.7854
 -48002549.09047 -37380373.70145  23151630.2194                   23151627.6644
 -33425013.72746 -26021389.39944  24030529.8134                   24030532.7584
 -29691540.19147 -23116115.98745  21260427.6414                   21260425.2234
  -8764043.48447  -6817754.80245  22706791.6024                   22706789.3054
 11  9 30  1 23  0.0000000  0  9G15G29G02G30G21G05G25G26G18
 -24272034.81248 -18892707.11346  21044242.4614                   21044240.1644
 -39909485.59848 -31079261.23047  20273999.8594                   20273997.6454
 -69745147.38746 -54322402.09543  23911658.9384                   23911654.9694
 -16958473.48846 -13194499.32944  23869904.6724                   23869905.2584
 -12307728.05947  -9573806.33045  23170622.9774                   23170619.8594
 -48002014.94947 -37379957.48645  23151731.8834                   23151729.5084
 -33427941.48447 -26023670.81644  24029973.0234                   24029974.9494
 -29773081.00448 -23179654.24745  21244911.0314                   21244908.7664
  -8908631.77747  -6930420.89645  22679277.2894                   22679274.4304
 11  9 30  1 23 30.0000000  0  9G15G29G02G30G21G05G25G26G18
 -24406700.84048 -18997641.62246  21018616.7424                   21018614.1054
 -40001961.35548 -31151320.24647  20256401.9774                   20256399.8284
 -69764668.55946 -54337613.36043  23907944.0704                   23907940.0744
 -16979635.81246 -13210989.47244  23865877.8834                   23865878.0864
 -12455856.81647  -9689231.29645  23142435.0704                   23142431.9454
 -48001444.12547 -37379512.71345  23151840.2734                   23151837.4264
 -33430866.04747 -26025949.74544  24029416.4224                   24029418.8324
 -29853930.22748 -23242653.62046  21229526.1954                   21229523.4384
  -9052962.61347  -7042886.37544  22651812.0634                   22651809.4964
 11  9 30  1 24  0.0000000  0  9G15G29G02G30G21G05G25G26G18
 -24540854.60548 -19102176.96746  20993087.9774                   20993085.5044
 -40093896.61348 -31222958.07647  20238907.3594                   20238904.8094
 -69784039.66046 -54352707.83743  23904258.1484                   23904254.4184
 -17000584.02346 -13227312.78644  23861892.5084                   23861891.7074
 -12604014.96947  -9804679.13645  23114241.1024                   23114237.9024
 -48000838.05547 -37379040.45145  23151956.1724                   23151952.7154
 -33433790.27747 -26028228.39044  24028860.0864                   24028862.8014
 -29934088.01248 -23305114.19946  21214272.0314                   21214269.5354
  -9197035.86347  -7155151.14044  22624395.5164                   22624392.6684
 11  9 30  1 24 30.0000000  0  9G15G29G02G30G21G05G25G26G18
 -24674493.81648 -19206311.37246  20967656.9924                   20967654.2304
 -40185289.84448 -31294173.55947  20221515.9694                   20221513.3954
 -69803259.88746 -54367684.63944  23900600.2274                   23900597.0234
 -17021320.69546 -13243471.20843  23857945.5164                   23857944.8134
 -12752201.41447  -9920149.05145  23086042.4614                   23086038.9884
 -48000197.95347 -37378541.63545  23152078.1254                   23152074.1374
 -33436716.56247 -26030508.69444  24028303.0314                   24028306.1764
 -30013553.26648 -23367035.15746  21199151.0004                   21199147.8524
  -9340851.25047  -7267214.94445  22597028.0784                   22597025.6844
 11  9 30  1 25  0.0000000  0  9G15G29G02G30G21G05G25G26G18
 -24807617.04748 -19310043.70646  20942324.6334                   20942322.0514
 -40276140.80948 -31364966.50347  20204227.5314                   20204225.1374
 -69822329.59446 -54382544.18843  23896972.2424                   23896968.2774
 -17041849.76246 -13259467.82844  23854039.3444                   23854039.0474
 -12900416.58647 -10035641.33345  23057837.6644                   23057834.6134
 -47999526.23447 -37378018.23545  23152205.3754                   23152202.5704
 -33439648.57047 -26032793.43344  24027745.3364                   24027747.5944
 -30092326.65248 -23428416.98846  21184160.4144                   21184157.7704
  -9484409.77747  -7379078.63845  22569710.2664                   22569707.4534
 11  9 30  1 25 30.0000000  0  9G15G29G02G30G21G05G25G26G18
 -24940220.43048 -19413370.97846  20917091.0084                   20917088.4224
 -40366446.69148 -31435334.70447  20187042.9694                   20187040.1764
 -69841246.33246 -54397284.49644  23893371.6254                   23893367.9414
 -17062172.00846 -13275303.40344  23850171.3674                   23850172.4414
 -13048657.67247 -10151153.84245  23029628.4694                   23029625.3554
 -47998822.03147 -37377469.49945  23152339.8284                   23152337.6724
 -33442587.04747 -26035083.19944  24027186.1484                   24027188.7734
 -30170405.91048 -23489257.94145  21169302.5784                   21169299.7194
  -9627708.54347  -7490739.90945  22542440.9614                   22542439.0234
 11  9 30  1 26  0.0000000  0  9G15G29G02G30G21G05G25G26G18
 -25072305.20348 -19516294.13946  20891955.6644                   20891953.3524
 -40456210.20748 -31505280.28847  20169961.6954                   20169958.8594
 -69860013.57446 -54411908.33344  23889800.3914                   23889797.7584
 -17082294.22346 -13290983.04243  23846343.0554                   23846343.5904
 -13196928.31647 -10266689.38745  23001413.2734                   23001410.0204
 -47998090.95346 -37376899.83244  23152477.9224                   23152475.7624
 -33445538.45747 -26037382.99844  24026624.4924                   24026626.6174
 -30247794.62148 -23549560.81446  21154576.1334                   21154573.2194
  -9770751.77347  -7602202.08545  22515220.7424                   22515217.7814
 11  9 30  1 26 30.0000000  0  9G15G29G02G30G21G05G25G26G18
 -25203868.64148 -19618811.05946  20866920.4384                   20866917.5744
 -40545429.53548 -31574801.83847  20152983.5394                   20152980.9654
 -69878630.17646 -54426414.83544  23886257.8834                   23886255.0904
 -17102218.49646 -13306508.48343  23842551.7114                   23842550.7154
 -13345226.28547 -10382246.18545  22973193.3524                   22973190.1294
 -47997333.22746 -37376309.40645  23152622.8984                   23152620.7544
 -33448504.61747 -26039694.33344  24026059.5314                   24026061.9384
 -30324491.69548 -23609324.72646  21139980.9384                   21139978.2814
  -9913538.35947  -7713464.25545  22488049.1724                   22488046.7154
 11  9 30  1 27  0.0000000  0  9G15G29G02G30G21G05G25G26G18
 -25334906.73448 -19720918.62046  20841984.6484                   20841981.5704
 -40634101.66048 -31643896.97447  20136109.8054                   20136107.1374
 -69897093.70746 -54440802.05144  23882744.6414                   23882740.9534
 -17121945.82846 -13321880.42944  23838797.3914                   23838797.5204
 -13493549.49247 -10497822.68845  22944968.4614                   22944965.0984
 -47996548.84047 -37375698.21145  23152772.4224                   23152770.0634
 -33451486.16447 -26042017.65243  24025492.4694                   24025494.4884
 -30400494.89548 -23668547.99346  21125518.2974                   21125515.6844
 -10056065.86347  -7824524.56245  22460927.2974                   22460924.3674
 11  9 30  1 27 30.0000000  0  9G15G29G02G30G21G05G25G26G18
 -25465419.53548 -19822616.85146  20817148.6094                   20817145.6484
 -40722227.61747 -31712566.53347  20119339.9224                   20119337.5044
 -69915405.75847 -54455071.18244  23879260.0864                   23879255.8054
 -17141481.02347 -13337102.68044  23835080.8134                   23835080.2934
 -13641898.67247 -10613419.41945  22916738.8204                   22916735.1334
 -47995740.27346 -37375068.16145  23152926.0314                   23152923.9734
 -33454487.80147 -26044356.64143  24024921.5944                   24024923.2974
 -30475805.92648 -23727231.87745  21111186.7274                   21111183.8094
 -10198335.74247  -7935384.12945  22433854.5704                   22433851.1334
 11  9 30  1 28  0.0000000  0  9G15G29G02G30G21G05G25G26G18
 -25595405.51648 -19923904.59646  20792412.9534                   20792410.5234
 -40809807.21548 -31780810.36447  20102674.2584                   20102671.5434
 -69933566.69147 -54469222.54544  23875804.2034                   23875799.9534
 -17160827.87547 -13352178.16544  23831398.6884                   23831398.4064
 -13790274.35547 -10729036.80245  22888503.2734                   22888500.2304
 -47994909.87547 -37374421.11845  23153083.8284                   23153081.9144
 -33457513.15247 -26046714.11543  24024346.0474                   24024347.8364
 -30550425.73848 -23785377.16445  21096986.6174                   21096984.6844
 -10340349.32447  -8046043.96645  22406829.8054                   22406826.7624
 11  9 30  1 28 30.0000000  0  9G15G29G02G30G21G05G25G26G18
 -25724862.19148 -20024779.88546  20767777.8594                   20767775.6484
 -40896839.45348 -31848627.67347  20086112.3364                   20086109.7194
 -69951575.57847 -54483255.45744  23872377.4384                   23872373.8284
 -17179988.96546 -13367108.92244  23827752.2344                   23827751.8834
 -13938675.46947 -10844674.00945  22860263.5394                   22860260.1454
 -47994059.10947 -37373758.18845  23153245.6724                   23153243.8914
 -33460564.38747 -26049091.77644  24023765.5554                   24023767.4414
 -30624353.53948 -23842983.21645  21082918.8524                   21082916.2344
 -10482105.66047  -8156503.37445  22379854.4144                   22379851.2274
 11  9 30  1 29  0.0000000  0  9G15G29G02G30G21G05G25G26G18
 -24278366.94148 -18897640.68746  21043036.5634                   21043034.4884
 -39407903.55947 -30688417.86647  20369447.4384                   20369445.0354
 -68394014.87147 -53269571.77444  24168771.0864                   24168767.4734
 -15623549.98047 -12154299.28843  24123932.7894                   24123931.8134
 -12511679.46147  -9732729.04345  23131811.6804                   23131808.5354
 -46417772.37947 -36145482.84645  23453203.1724                   23453201.3054
 -31888227.44947 -24823894.17644  24322971.3054                   24322973.5664
 -29122170.45348 -22672450.93545  21368774.9304                   21368771.8674
  -9048183.05947  -7039161.00845  22652720.6094                   22652717.6254
 11  9 30  1 29 30.0000000  0  9G15G29G02G30G21G05G25G26G18
 -24406763.27048 -18997689.73046  21018604.2584                   21018601.2274
 -39493841.69148 -30755382.62447  20353093.8674                   20353091.2234
 -68411722.32847 -53283369.74144  24165401.2814                   24165397.6374
 -15642351.81246 -12168950.12243  24120355.2344                   24120353.9384
 -12660132.26647  -9848406.51845  23103562.3754                   23103559.2624
 -46416887.63747 -36144793.44145  23453371.7344                   23453369.7304
 -31891342.03947 -24826321.17144  24322378.4064                   24322381.1884
 -29194718.00848 -22728981.45145  21354968.9844                   21354966.7154
  -9189428.19547  -7149222.09545  22625843.0634                   22625839.9144
 11  9 30  1 30  0.0000000  0  9G15G29G02G30G21G05G25G26G18
 -24534626.36748 -19097323.27546  20994272.5474                   20994269.5984
 -39579231.62148 -30821920.20447  20336844.5474                   20336842.0434
 -68429278.65246 -53297049.93944  24162060.7664                   24162055.9964
 -15660978.51646 -12183464.43943  24116809.9144                   24116809.8674
 -12808610.15647  -9964103.52045  23075307.8834                   23075304.6564
 -46415988.09047 -36144092.53645  23453542.7814                   23453540.4614
 -31894492.26247 -24828775.95344  24321779.2664                   24321781.6254
 -29266575.44548 -22784974.23545  21341295.4614                   21341293.1564
  -9330417.73447  -7259083.98345  22599013.2424                   22599010.4574
 11  9 30  1 30 30.0000000  0  9G15G29G02G30G21G05G25G26G18
 -24661955.99648 -19196541.13946  20970042.2584                   20970039.7974
 -39664073.62548 -30888030.84247  20320699.7664                   20320697.1844
 -68446685.13746 -53310613.51043  24158747.6724                   24158744.1684
 -15679434.41046 -12197845.69743  24113298.5084                   24113297.6884
 -12957113.71147 -10079820.52345  23047048.2274                   23047044.5944
 -46415076.52347 -36143382.22445  23453716.1254                   23453713.9734
 -31897682.34446 -24831261.77644  24321171.8444                   24321175.0664
 -29337744.36748 -22840430.52945  21327752.1174                   21327749.5234
  -9471153.15247  -7368747.87845  22572232.3984                   22572229.0824
 11  9 30  1 31  0.0000000  0  9G15G29G02G30G21G05G25G26G18
 -24788747.06648 -19295339.33546  20945914.8984                   20945912.3594
 -39748364.75048 -30953712.21747  20304659.8984                   20304657.5084
 -68463938.34446 -53324057.47943  24155464.4144                   24155461.2974
 -15697719.73447 -12212093.99143  24109818.8054                   24109818.0634
 -13105639.65247 -10195554.96645  23018784.9694                   23018781.0234
 -46414151.55547 -36142661.47544  23453892.5234                   23453889.6454
 -31900912.23047 -24833778.62844  24320557.6724                   24320559.6054
 -29408222.04348 -22895348.18746  21314341.2114                   21314338.3524
  -9611631.10247  -7478211.13245  22545500.0164                   22545497.1764
 11  9 30  1 31 30.0000000  0  9G15G29G02G30G21G05G25G26G18
 -24915001.01648 -19393718.98746  20921889.3444                   20921887.0234
 -39832106.64548 -31018965.62647  20288724.2584                   20288721.5904
 -68481040.65646 -53337384.00343  24152210.5864                   24152206.3754
 -15715840.19547 -12226213.82543  24106370.6094                   24106370.4884
 -13254189.74647 -10311308.20645  22990516.5004                   22990513.2114
 -46413217.18047 -36141933.39745  23454070.5864                   23454067.2154
 -31904187.20747 -24836330.59244  24319934.5554                   24319937.2154
 -29478011.59848 -22949729.63045  21301060.4384                   21301057.7274
  -9751854.83647  -7587476.32945  22518816.5704                   22518812.8634
 11  9 30  1 32  0.0000000  0  9G15G29G02G30G21G05G25G26G18
 -25040713.36748 -19491676.62646  20897966.9064                   20897964.2664
 -39915296.40248 -31083788.79247  20272893.8284                   20272891.1954
 -68497989.55546 -53350590.92242  24148985.2424                   24148980.4344
 -15733796.43746 -12240205.72443  24102953.2664                   24102953.5744
 -13402760.86747 -10427077.84145  22962244.2344                   22962240.6844
 -46412272.21547 -36141197.07444  23454249.4064                   23454247.3164
 -31907507.53547 -24838917.94644  24319302.8364                   24319305.5594
 -29547110.10548 -23003572.60346  21287911.4844                   21287909.1804
  -9891821.30948  -7696541.02645  22492181.7194                   22492179.0824
 11  9 30  1 32 30.0000000  0  9G15G29G02G30G21G05G25G26G18
 -25165883.55948 -19589211.80746  20874148.0784                   20874144.9924
 -39997934.46148 -31148182.06047  20257168.2894                   20257165.7274
 -68514785.73446 -53363678.81242  24145788.2344                   24145783.6804
 -15751592.52346 -12254072.81243  24099566.5164                   24099566.0234
 -13551353.70347 -10542864.39045  22933967.9144                   22933964.5664
 -46411319.22747 -36140454.49344  23454430.8984                   23454428.4064
 -31910877.08647 -24841543.60644  24318661.1724                   24318664.3094
 -29615519.68448 -23056878.74246  21274893.6564                   21274890.9144
 -10031532.00447  -7805406.44145  22465595.1954                   22465592.4804
 11  9 30  1 33  0.0000000  0  9G15G29G02G30G21G05G25G26G18
 -25290511.25848 -19686324.24746  20850432.2664                   20850429.4884
 -40080021.39548 -31212145.88747  20241547.6644                   20241545.1254
 -68531430.56246 -53376648.78142  24142620.7664                   24142616.4104
 -15769233.06246 -12267818.64643  24096209.8984                   24096210.0594
 -13699968.63347 -10658668.14145  22905687.4304                   22905684.3134
 -46410361.18747 -36139707.97044  23454613.2584                   23454611.5594
 -31914300.02047 -24844210.89544  24318010.3204                   24318012.9494
 -29683241.80548 -23109649.20645  21262006.5394                   21262003.4804
 -10170988.12547  -7914073.48145  22439057.9224                   22439054.6374
 11  9 30  1 33 30.0000000  0  9G15G29G02G30G21G05G25G26G18
 -25414595.55548 -19783013.27246  20826819.6804                   20826816.5004
 -40161557.63748 -31275680.59847  20226031.6804                   20226029.0474
 -68547924.53945 -53389501.25842  24139480.9694                   24139478.1954
 -15786721.58246 -12281446.04343  24092882.6564                   24092881.6764
 -13848606.23847 -10774489.55745  22877402.9694                   22877399.1644
 -46409399.74647 -36138958.83844  23454796.3364                   23454793.5474
 -31917779.68446 -24846922.34044  24317348.2114                   24317350.8164
 -29750277.48048 -23161884.77546  21249250.4224                   21249247.8204
 -10310190.39147  -8022542.69945  22412568.4614                   22412565.2074
 11  9 30  1 34  0.0000000  0  9G15G29G02G30G21G05G25G26G18
 -25538133.23048 -19879276.35746  20803311.3834                   20803307.7934
 -40242541.34048 -31338784.76947  20210620.9844                   20210618.6994
 -68564265.80946 -53402234.76343  24136372.8364                   24136368.7934
 -15804059.97746 -12294956.43343  24089582.9844                   24089583.1724
 -13997263.96547 -10890326.67645  22849113.7894                   22849110.4264
 -46408434.92647 -36138207.01944  23454979.9774                   23454976.9144
 -31921317.38746 -24849679.05844  24316674.9774                   24316677.4534
 -29816625.82448 -23213584.76146  21236624.5084                   21236621.8554
 -10449138.02747  -8130813.49645  22386127.5784                   22386124.0594
 11  9 30  1 34 30.0000000  0  9G15G29G02G30G21G05G25G26G18
 -25661121.83648 -19975111.60546  20779907.3754                   20779904.4064
 -40322970.65648 -31401456.95347  20195315.8674                   20195313.4884
 -68580453.44546 -53414848.52743  24133292.7344                   24133288.3364
 -15821250.10546 -12308351.32343  24086311.6174                   24086311.4494
 -14145940.04747 -11006178.07045  22820821.7034                   22820818.2774
 -46407467.29347 -36137453.03944  23455164.3674                   23455161.1024
 -31924914.85247 -24852482.30944  24315990.1724                   24315992.5234
 -29882286.31248 -23264748.75845  21224129.5234                   21224127.3204
 -10587829.74647  -8238884.88045  22359735.3134                   22359732.2664
 11  9 30  1 35  0.0000000  0  9G15G29G02G30G21G05G25G26G18
 -25783560.89848 -20070518.61946  20756607.9844                   20756604.9064
 -40402846.50848 -31463697.85147  20180115.8914                   20180113.4844
 -68596488.21146 -53427343.15543  24130241.5634                   24130237.5824
 -15838296.18746 -12321634.00743  24083067.5864                   24083068.0124
 -14294635.00447 -11122044.18645  22792525.7814                   22792522.7384
 -46406499.19547 -36136698.67144  23455348.8364                   23455345.7734
 -31928575.82846 -24855335.06944  24315293.4614                   24315296.5354
 -29947260.15648 -23315377.69745  21211765.1644                   21211762.4574
 -10726266.76647  -8346757.82345  22333391.7114                   22333388.4224
 11  9 30  1 35 30.0000000  0  9G15G29G02G30G21G05G25G26G18
 -25905447.99248 -20165495.54246  20733413.5084                   20733410.3634
 -40482167.59848 -31525506.47947  20165021.6414                   20165019.2934
 -68612368.91446 -53439717.71644  24127220.2034                   24127216.4184
 -15855200.47746 -12334806.20343  24079851.3524                   24079851.2774
 -14443347.68447 -11237924.10245  22764227.1644                   22764223.4144
 -46405531.11347 -36135944.34045  23455533.1094                   23455530.4024
 -31932302.17646 -24858238.75843  24314584.4304                   24314586.2584
 -30011547.54348 -23365471.75945  21199532.0704                   21199529.1644
 -10864447.84847  -8454431.31845  22307096.4064                   22307093.5234
 11  9 30  1 36  0.0000000  0  9G15G29G02G30G21G05G25G26G18
 -26026782.23448 -20260041.66346  20710324.2664                   20710321.1764
 -40560934.08648 -31586882.95247  20150032.5164                   20150030.2424
 -68628096.53947 -53451972.97543  24124226.9534                   24124223.2664
 -15871966.75046 -12347870.84543  24076660.4924                   24076660.7384
 -14592078.00447 -11353817.77745  22735924.2974                   22735920.5904
 -46404565.17247 -36135191.68745  23455716.9454                   23455714.3444
 -31936097.37946 -24861196.00543  24313862.3284                   24313863.8444
 -30075149.44148 -23415031.65545  21187428.5634                   21187426.1844
 -11002374.47347  -8561906.51645  22280849.8204                   22280846.7774
 11  9 30  1 36 30.0000000  0  9G15G29G02G30G21G05G25G26G18
 -26147562.30547 -20354155.97546  20687340.4454                   20687337.5204
 -40639145.53148 -31647826.91147  20135149.6644                   20135147.0944
 -68643670.54346 -53464108.59244  24121263.3674                   24121259.0554
 -15888598.06246 -12360830.32243  24073496.0784                   24073495.7154
 -14740824.93047 -11469724.38645  22707618.6564                   22707614.8634
 -46403602.77047 -36134441.76345  23455899.6804                   23455897.4344
 -31939964.05146 -24864209.08643  24313126.1174                   24313128.5904
 -30138066.37547 -23464057.82046  21175456.1644                   21175452.6294
 -11140046.89147  -8669183.65845  22254651.5784                   22254648.8834
 11  9 30  1 37  0.0000000  0  9G15G29G02G30G21G05G25G26G18
 -26267789.23848 -20447839.26146  20664462.1724                   20664459.1764
 -40716803.86348 -31708339.88147  20120372.0164                   20120369.0984
 -68659093.54346 -53476126.54844  24118328.5784                   24118324.3834
 -15905099.84046 -12373688.84443  24070355.6884                   24070355.5164
 -14889590.44147 -11585645.48945  22679309.6724                   22679305.7774
 -46402647.41847 -36133697.35945  23456081.6644                   23456079.6134
 -31943907.35546 -24867281.82843  24312376.1024                   24312378.4804
 -30200301.46547 -23512552.68246  21163613.3834                   21163610.9694
 -11277467.34847  -8776264.46045  22228501.0864                   22228497.7464
 11  9 30  1 37 30.0000000  0  9G15G29G02G30G21G05G25G26G18
 -26387460.12947 -20541089.27246  20641689.6334                   20641686.4734
 -40793908.59848 -31768421.47947  20105699.2664                   20105696.9024
 -68674364.34846 -53488025.87344  24115422.6414                   24115419.0864
 -15921474.46546 -12386448.31344  24067239.9774                   24067239.1214
 -15038373.02747 -11701579.90345  22650997.3674                   22650993.6414
 -46401699.68747 -36132958.87044  23456261.7584                   23456259.6524
 -31947929.21546 -24870415.81943  24311610.5634                   24311613.3674
 -30261854.74247 -23560516.26245  21151900.3284                   21151897.6294
 -11414635.13747  -8883148.36345  22202399.1884                   22202395.4384
 11  9 30  1 38  0.0000000  0  9G15G29G02G30G21G05G25G26G18
 -24931149.26248 -19406301.55146  20918816.4924                   20918813.3134
 -39295035.52748 -30600468.42747  20390925.3754                   20390922.7344
 -67114061.48446 -52272205.42844  24412337.8054                   24412334.6994
 -14362303.67646 -11171510.05944  24363939.5864                   24363939.7234
 -13611745.93747 -10589922.37445  22922475.2894                   22922471.2384
 -44825340.19546 -34904626.80344  23756233.2034                   23756231.4964
 -30376611.30646 -23646012.38243  24610623.3594                   24610625.5234
 -28747304.18447 -22380346.96845  21440109.2814                   21440106.8554
  -9976125.30547  -7762231.55545  22476138.0004                   22476135.1294
 11  9 30  1 38 30.0000000  0  9G15G29G02G30G21G05G25G26G18
 -25049704.20347 -19498682.00046  20896256.2194                   20896252.9414
 -39371030.25848 -30659685.08547  20376463.8984                   20376461.6954
 -67129027.13746 -52283866.98644  24409490.1174                   24409486.6684
 -14378432.67646 -11184078.05444  24360871.2274                   24360870.2854
 -13760559.14147 -10705880.64445  22894156.8984                   22894153.2934
 -44824411.36746 -34903903.05944  23756409.9534                   23756407.5274
 -30380797.64546 -23649274.45843  24609826.7114                   24609828.1134
 -28807495.32847 -22427249.14245  21428655.4144                   21428652.8754
 -10112787.82847  -7868721.74745  22450132.1884                   22450128.3634
 11  9 30  1 39  0.0000000  0  9G15G29G02G30G21G05G25G26G18
 -25167700.61347 -19590627.21346  20873801.9534                   20873798.8834
 -39446471.68748 -30718470.60447  20362108.1094                   20362105.2974
 -67143841.47346 -52295410.66044  24406670.8134                   24406667.4614
 -14394444.98446 -11196555.25643  24357824.3674                   24357823.4804
 -13909388.71947 -10821851.69045  22865835.7424                   22865831.7154
 -44823495.36746 -34903189.31344  23756584.1724                   23756581.7814
 -30385071.81246 -23652605.07343  24609012.9924                   24609014.9804
 -28867007.88747 -22473622.55945  21417330.2974                   21417327.5474
 -10249199.64847  -7975016.60045  22424173.6804                   22424169.9534
 11  9 30  1 39 30.0000000  0  9G15G29G02G30G21G05G25G26G18
 -25285136.36347 -19682135.56446  20851454.7114                   20851451.7704
 -39521358.34848 -30776823.83047  20347857.6024                   20347854.8554
 -67158503.41846 -52306835.57444  24403880.8134                   24403877.8404
 -14410342.77346 -11208943.10444  24354798.2274                   24354798.5274
 -14058232.54747 -10937833.84245  22837511.3284                   22837508.0124
 -44822592.33646 -34902485.64544  23756755.8594                   23756753.9654
 -30389435.39147 -23656005.32443  24608183.0314                   24608184.4344
 -28925842.10947 -22519467.39245  21406134.4614                   21406131.7504
 -10385360.19947  -8081115.65645  22398262.5704                   22398259.5394
 11  9 30  1 40  0.0000000  0  9G15G29G02G30G21G05G25G26G18
 -25402012.08247 -19773207.52646  20829213.9924                   20829210.5784
 -39595692.22748 -30834746.31647  20333712.2424                   20333709.6174
 -67173015.36346 -52318143.53243  24401119.5394                   24401115.9804
 -14426131.31646 -11221245.82144  24351793.7974                   24351794.1174
 -14207092.26647 -11053828.38245  22809184.0554                   22809180.4064
 -44821705.93446 -34901794.95144  23756924.7274                   23756922.4384
 -30393893.40247 -23659479.21144  24607334.3204                   24607336.5354
 -28984000.74247 -22564785.81445  21395067.3444                   21395064.5274
 -10521271.57047  -8187020.53945  22372399.8834                   22372396.8594
 11  9 30  1 40 30.0000000  0  8G15G29G30G21G05G25G26G18
 -25518325.34048 -19863841.20546  20807080.2034                   20807076.8914
 -39669471.80548 -30892236.87747  20319672.4304                   20319670.0084
 -14441812.22746 -11233464.72943  24348810.3984                   24348809.8794
 -14355964.91847 -11169833.00845  22780854.8524                   22780851.6564
 -44820835.93446 -34901117.01444  23757089.7814                   23757087.4104
 -30398446.99247 -23663027.50344  24606468.1724                   24606471.0984
 -29041483.27047 -22609577.37445  21384128.7274                   21384126.0234
 -10656932.65647  -8292730.40845  22346584.5164                   22346581.2154
 11  9 30  1 41  0.0000000  0  8G15G29G30G21G05G25G26G18
 -25634075.63348 -19954036.21246  20785053.8284                   20785050.6564
 -39742697.89548 -30949296.14747  20305738.0164                   20305735.4454
 -14457389.59846 -11245602.97643  24345846.0784                   24345846.0904
 -14504851.75047 -11285848.66145  22752522.6884                   22752518.7464
 -44819984.84047 -34900453.80644  23757252.5394                   23757249.4454
 -30403099.90247 -23666653.24244  24605582.7274                   24605585.4264
 -29098291.88347 -22653843.82245  21373318.1644                   21373315.7934
 -10792344.69547  -8398246.21545  22320816.2974                   22320813.2584
 11  9 30  1 41 30.0000000  0  8G15G29G30G21G05G25G26G18
 -25749253.76248 -20043785.37546  20763136.2274                   20763132.9964
 -39815362.07048 -31005917.57147  20291910.2584                   20291907.6724
 -14472858.64146 -11257656.71943  24342901.7504                   24342902.3204
 -14653743.87947 -11401868.46045  22724189.4064                   22724185.2854
 -44819145.96947 -34899800.16844  23757412.0314                   23757409.2854
 -30407846.62147 -23670352.08344  24604679.5634                   24604682.6374
 -29154419.08247 -22697579.27945  21362637.8754                   21362635.3954
 -10927499.84447  -8503561.84345  22295097.2344                   22295093.8284
 11  9 30  1 42  0.0000000  0  8G15G29G30G21G05G25G26G18
 -25863856.32847 -20133086.04046  20741327.7424                   20741324.6884
 -39887462.23448 -31062099.49447  20278189.8364                   20278187.4344
 -14488219.86346 -11269626.55643  24339978.8594                   24339978.6334
 -14802637.84447 -11517889.69845  22695855.6954                   22695851.9734
 -44818317.78147 -34899154.82544  23757569.1564                   23757566.6764
 -30412687.36747 -23674124.17444  24603758.4304                   24603760.8484
 -29209863.64547 -22740782.83345  21352086.8834                   21352084.6914
 -11062395.89847  -8608675.59645  22269427.1954                   22269423.6644
 11  9 30  1 42 30.0000000  0  8G15G29G30G21G05G25G26G18
 -25977883.63748 -20221938.46046  20719629.1094                   20719625.9144
 -39959000.19548 -31117843.34547  20264576.9454                   20264574.2504
 -14503478.10946 -11281516.03443  24337075.3444                   24337074.5784
 -14951534.79347 -11633913.26545  22667521.6254                   22667518.5944
 -44817503.48047 -34898520.30344  23757724.1644                   23757721.6094
 -30417626.72347 -23677973.08844  24602818.0394                   24602821.8054
 -29264628.56247 -22783456.77745  21341666.0634                   21341663.8164
 -11197035.18047  -8713589.24845  22243806.1334                   22243802.9694
 11  9 30  1 43  0.0000000  0  8G15G29G30G21G05G25G26G18
 -26091335.80548 -20310342.70346  20698040.1884                   20698036.7934
 -40029976.59048 -31173149.62447  20251070.6564                   20251067.8594
 -14518637.64846 -11293328.63143  24334190.5864                   24334190.2304
 -15100434.27047 -11749938.80945  22639186.9144                   22639183.1844
 -44816705.34047 -34897898.35644  23757876.4144                   23757874.4414
 -30422668.19147 -23681901.62544  24601859.2894                   24601862.1054
 -29318715.73048 -22825602.61845  21331373.8834                   21331371.0234
 -11331418.93447  -8818303.80145  22218233.7114                   22218230.6764
 11  9 30  1 43 30.0000000  0  8G15G29G30G21G05G25G26G18
 -26204212.84448 -20398298.80246  20676559.9384                   20676556.7894
 -40100392.33248 -31228019.00047  20237671.2034                   20237668.2934
 -14533702.25846 -11305067.31543  24331323.6254                   24331322.8484
 -15249336.66447 -11865966.59445  22610851.6094                   22610848.2854
 -44815925.42246 -34897290.62644  23758024.2504                   23758022.7424
 -30427815.16047 -23685912.33344  24600879.8914                   24600883.2934
 -29372127.06248 -22867221.81345  21321209.6334                   21321206.8014
 -11465547.90648  -8922819.83445  22192709.9924                   22192706.5044
 11  9 30  1 44  0.0000000  0  8G15G29G30G21G05G25G26G18
 -26316514.32448 -20485806.42846  20655189.6094                   20655186.8204
 -40170248.59848 -31282452.44547  20224377.7114                   20224374.8524
 -14548676.19146 -11316735.32643  24328474.5704                   24328474.1844
 -15398243.02347 -11981997.49345  22582515.6334                   22582511.7704
 -44815166.03146 -34896698.91044  23758169.0634                   23758167.4614
 -30433071.48446 -23690008.33443  24599879.8204                   24599882.8364
 -29424864.87947 -22908316.19045  21311173.6414                   21311171.0084
 -11599423.82847  -9027138.67445  22167234.0944                   22167230.6954
 11  9 30  1 44 30.0000000  0  8G15G29G30G21G05G25G26G18
 -26428241.46548 -20572866.51046  20633928.8914                   20633925.6254
 -40239547.78548 -31336451.79247  20211190.4144                   20211187.9774
 -14563564.87546 -11328336.90643  24325641.1564                   24325640.4184
 -15547154.05947 -12098032.03845  22554178.8674                   22554175.6804
 -44814430.75846 -34896125.98344  23758308.7194                   23758306.7664
 -30438442.07446 -23694193.23143  24598857.6884                   24598860.6564
 -29476932.69547 -22948888.49345  21301265.2584                   21301262.9384
 -11733049.45347  -9131262.48445  22141805.6484                   22141802.6994
 11  9 30  1 45  0.0000000  0  8G15G29G30G21G05G25G26G18
 -26539393.46548 -20659478.43146  20612777.3834                   20612774.3834
 -40308290.19548 -31390017.29547  20198109.3914                   20198106.3324
 -14578371.62946 -11339874.71743  24322823.4064                   24322823.7424
 -15696069.50447 -12214070.00845  22525841.1954                   22525837.5864
 -44813720.93047 -34895572.89244  23758444.3054                   23758441.7814
 -30443929.66046 -23698469.38043  24597812.8754                   24597816.6254
 -29528332.05547 -22988939.93145  21291484.7734                   21291481.8404
 -11866425.24647  -9235191.62745  22116425.5314                   22116422.4454
 11  9 30  1 45 30.0000000  0  8G15G29G30G21G05G25G26G18
 -26649969.85948 -20745641.83346  20591735.6644                   20591732.3874
 -40376476.11348 -31443149.16747  20185133.8364                   20185131.2584
 -14593099.69546 -11351351.10943  24320020.8594                   24320020.6454
 -15844989.33647 -12330111.40645  22497502.5164                   22497499.3594
 -44813038.01246 -34895040.75144  23758574.2974                   23758571.6884
 -30449537.27746 -23702839.04743  24596746.1884                   24596749.2504
 -29579064.16448 -23028471.42945  21281830.4774                   21281827.9304
 -11999551.85947  -9338926.59145  22091092.0554                   22091088.9924
 11  9 30  1 46  0.0000000  0  8G15G29G30G21G05G25G26G18
 -26759972.75048 -20831358.34346  20570802.2114                   20570799.3364
 -40444108.75048 -31495849.91347  20172263.8204                   20172260.9804
 -14607755.32046 -11362771.01543  24317231.8984                   24317231.5514
 -15993915.33247 -12446157.60745  22469162.9304                   22469159.5124
 -44812386.28946 -34894532.89744  23758698.0704                   23758696.2664
 -30455270.40646 -23707306.49043  24595655.6884                   24595658.0634
 -29629133.52348 -23067486.50645  21272303.2114                   21272300.4414
 -12132432.68447  -9442470.02745  22065805.2194                   22065802.4774
 11  9 30  1 46 30.0000000  0  7G15G29G30G21G05G26G18
 -26869398.17648 -20916624.88546  20549979.5394                   20549976.3134
 -40511185.47748 -31548117.48547  20159499.4384                   20159496.7464
 -14622338.68446 -11374134.66043  24314456.9774                   24314456.3954
 -16142842.52347 -12562204.74245  22440822.9774                   22440819.7584
 -44811764.06647 -34894048.08544  23758816.6094                   23758814.1604
 -29678538.62548 -23105983.96145  21262901.0784                   21262898.2624
 -12265065.18047  -9545819.96145  22040566.1644                   22040563.1454
 11  9 30  1 47  0.0000000  0  7G15G29G30G21G05G26G18
 -26978246.27348 -21001441.55546  20529266.2664                   20529262.8554
 -40577707.44148 -31599952.76747  20146840.6644                   20146838.1254
 -14636853.73846 -11385445.05143  24311694.3524                   24311694.2114
 -16291772.91848 -12678254.36445  22412482.5944                   22412478.7894
 -44811173.58247 -34893587.99044  23758929.2274                   23758926.9344
 -29727281.43048 -23143965.36645  21253625.8594                   21253622.9344
 -12397450.50848  -9648977.31345  22015374.6564                   22015370.9264
 11  9 30  1 47 30.0000000  0  7G15G29G30G21G05G26G18
 -25511088.21148 -19858201.47746  20808457.1414                   20808454.0164
 -39068248.18448 -30423750.73547  20434081.4534                   20434078.8164
 -13075878.86746 -10169101.15243  24608737.9384                   24608737.8984
 -14865275.24247 -11566697.68945  22683935.7974                   22683932.8444
 -43235191.54747 -33665550.01844  24058828.2424                   24058825.8244
 -28199937.77048 -21953827.42845  21544269.3284                   21544266.6214
 -10954160.36747  -8524335.58645  22290023.7584                   22290020.2504
 11  9 30  1 48  0.0000000  0  7G15G29G30G21G05G26G18
 -25618767.21548 -19942107.16646  20787966.5084                   20787963.3244
 -39133649.14848 -30474712.51947  20421635.5864                   20421633.4494
 -13090254.86746 -10180303.14743  24606002.5944                   24606002.6844
 -15014195.84047 -11682739.66945  22655597.2194                   22655593.7304
 -43234655.88747 -33665132.64744  24058930.3134                   24058928.2934
 -28247348.99648 -21990771.21746  21535247.1724                   21535244.9884
 -11086040.72748  -8627099.45645  22264927.3364                   22264924.0984
 11  9 30  1 48 30.0000000  0  7G15G29G30G21G05G26G18
 -25725859.28548 -20025555.50546  20767587.6564                   20767584.7034
 -39198489.24648 -30525237.25647  20409297.1334                   20409294.6804
 -13104564.98446 -10191453.91543  24603280.2344                   24603280.2034
 -15163109.05548 -11798775.90345  22627260.0474                   22627256.1054
 -43234148.60546 -33664737.40344  24059026.9064                   24059025.4184
 -28294095.44548 -22027197.03546  21526351.9614                   21526349.4224
 -11217668.25848  -8729666.32445  22239879.6644                   22239876.1294
 11  9 30  1 49  0.0000000  0  7G15G29G30G21G05G26G18
 -25832364.78148 -20108546.77846  20747320.3364                   20747316.9804
 -39262769.50448 -30575325.76347  20397064.7974                   20397062.5124
 -13118813.12546 -10202556.37143  24600567.8524                   24600568.5354
 -15312015.40247 -11914806.78945  22598923.6024                   22598920.3634
 -43233671.55947 -33664365.67644  24059117.2814                   24059115.6884
 -28340179.37948 -22063106.56445  21517582.7424                   21517579.7274
 -11349043.86748  -8832036.88045  22214879.6094                   22214876.0434
 11  9 30  1 49 30.0000000  0  7G15G29G30G21G05G26G18
 -25938284.54748 -20191081.64646  20727164.0704                   20727161.2114
 -39326491.88748 -30624979.56147  20384939.1644                   20384936.6254
 -13133004.10546 -10213614.28843  24597868.3204                   24597867.8324
 -15460915.69147 -12030832.93245  22570588.9454                   22570585.6054
 -43233227.38747 -33664019.56644  24059202.0554                   24059199.9144
 -28385604.14147 -22098502.49145  21508938.1414                   21508936.2074
 -11480170.71948  -8934213.58545  22189927.0084                   22189923.6174
 11  9 30  1 50  0.0000000  0  7G15G29G30G21G05G26G18
 -26043618.69948 -20273160.19446  20707120.0394                   20707116.6764
 -39389657.94548 -30674199.86147  20372919.0554                   20372916.4614
 -13147142.24246 -10224631.02143  24595177.4224                   24595177.5124
 -15609810.14547 -12146854.55145  22542255.0864                   22542251.8134
 -43232818.84846 -33663701.20244  24059280.1564                   24059277.8524
 -28430372.55548 -22133386.96245  21500419.1724                   21500416.8364
 -11611049.77048  -9036197.21745  22165021.3984                   22165017.8364
 11  9 30  1 50 30.0000000  0  7G15G29G30G21G05G26G18
 -26148367.06248 -20354782.27346  20687186.7114                   20687183.7934
 -39452268.55548 -30722987.33247  20361004.6024                   20361002.0394
 -13161231.07046 -10235609.33643  24592496.4924                   24592495.7504
 -15758697.75047 -12262870.82945  22513922.6564                   22513919.2934
 -43232447.31246 -33663411.72144  24059351.0004                   24059348.1914
 -28474486.58647 -22167761.51145  21492024.6414                   21492022.1764
 -11741682.11347  -9137988.60745  22140162.7194                   22140159.2424
 11  9 30  1 51  0.0000000  0  7G15G29G30G21G05G26G18
 -26252531.08248 -20435949.01446  20667365.2114                   20667361.6844
 -39514326.01648 -30771343.77747  20349195.5004                   20349192.7074
 -13175275.29946 -10246552.88443  24589824.7114                   24589824.0514
 -15907580.17647 -12378883.06045  22485591.7734                   22485587.9924
 -43232115.60946 -33663153.25044  24059413.6094                   24059411.6254
 -28517949.46947 -22201628.70545  21483753.6954                   21483751.1254
 -11872069.57848  -9239589.18245  22115350.7424                   22115347.2344
 11  9 30  1 51 30.0000000  0  7G15G29G30G21G05G26G18
 -26356107.64148 -20516658.00246  20647655.1094                   20647651.9144
 -39575827.98448 -30819267.38547  20337491.8594                   20337489.4104
 -13189275.38346 -10257462.07544  24587160.2194                   24587160.4264
 -16056453.63347 -12494888.28945  22457261.7344                   22457257.9414
 -43231822.35946 -33662924.76143  24059469.7974                   24059467.0394
 -28560760.48847 -22234987.92145  21475606.8754                   21475604.5394
 -12002210.48448  -9340997.62845  22090585.7584                   22090582.2114
 11  9 30  1 52  0.0000000  0  7G15G29G30G21G05G26G18
 -26459100.23048 -20596911.94446  20628056.4224                   20628053.3054
 -39636779.46548 -30866762.03047  20325893.5634                   20325890.7584
 -13203239.22746 -10268343.00543  24584501.8834                   24584502.8094
 -16205322.00847 -12610889.56245  22428932.7504                   22428929.4344
 -43231573.28946 -33662730.68044  24059517.2114                   24059514.8404
 -28602925.72747 -22267843.95445  21467583.0474                   21467581.1294
 -12132109.60548  -9442217.67245  22065866.6954                   22065863.5314
 11  9 30  1 52 30.0000000  0  7G15G29G30G21G05G26G18
 -26561510.57448 -20676712.19346  20608568.1484                   20608564.6564
 -39697183.00048 -30913829.71747  20314398.7814                   20314396.2974
 -13217171.46946 -10279199.30843  24581851.3204                   24581851.1764
 -16354185.48047 -12726887.03245  22400605.2894                   22400601.8404
 -43231371.12146 -33662573.13344  24059555.8054                   24059553.1604
 -28644448.69147 -22300199.51045  21459681.8754                   21459679.5394
 -12261769.23847  -9543251.10045  22041193.2344                   22041189.7154
 11  9 30  1 53  0.0000000  0  7G15G29G30G21G05G26G18
 -26663336.02348 -20756056.68346  20589191.3674                   20589188.5084
 -39757037.08248 -30960469.25947  20303009.0634                   20303006.4064
 -13231073.55147 -10290032.11243  24579206.1724                   24579205.6374
 -16503041.89147 -12842878.99245  22372278.8524                   22372275.2854
 -43231215.28546 -33662451.72844  24059584.8834                   24059582.3244
 -28685329.33647 -22332054.55545  21451902.3054                   21451899.8094
 -12391188.46147  -9644097.19945  22016565.4144                   22016561.8674
 11  9 30  1 53 30.0000000  0  7G15G29G30G21G05G26G18
 -26764575.58248 -20834944.64046  20569926.2274                   20569922.6524
 -39816341.63348 -31006680.57447  20291723.7114                   20291721.1644
 -13244947.62146 -10300843.10243  24576566.2274                   24576566.0204
 -16651889.62947 -12958864.19245  22343954.0084                   22343950.4184
 -43231106.16046 -33662366.69143  24059606.2814                   24059602.8244
 -28725568.62147 -22363409.85345  21444245.1804                   21444242.4884
 -12520366.89547  -9744755.67445  21991983.7424                   21991980.7114
 11  9 30  1 54  0.0000000  0  7G15G29G30G21G05G26G18
 -26865229.16447 -20913375.97646  20550772.3594                   20550769.1804
 -39875098.00448 -31052464.75347  20280542.8364                   20280540.0394
 -13258797.53147 -10311635.21143  24573930.6254                   24573930.1564
 -16800728.52047 -13074842.50445  22315630.9304                   22315627.1174
 -43231045.68746 -33662319.57344  24059617.5634                   24059614.7854
 -28765169.31247 -22394267.52645  21436709.3834                   21436706.8754
 -12649305.46547  -9845227.24645  21967447.5234                   21967443.9104
 11  9 30  1 54 30.0000000  0  7G15G29G30G21G05G26G18
 -26965300.78548 -20991353.85846  20531729.0554                   20531726.2704
 -39933311.19548 -31097825.67547  20269464.8754                   20269462.4344
 -13272631.08246 -10322414.67243  24571298.0314                   24571297.2974
 -16949562.09047 -13190816.66645  22287309.1024                   22287305.3164
 -43231039.45746 -33662314.76544  24059618.6334                   24059616.3594
 -28804137.59447 -22424632.40645  21429294.0864                   21429291.7734
 -12778009.62147  -9945516.15545  21942955.5784                   21942951.9614
 11  9 30  1 55  0.0000000  0  7G15G29G30G21G05G26G18
 -27064787.82048 -21068876.19946  20512797.7894                   20512794.3404
 -39990979.43748 -31142761.95847  20258490.9924                   20258488.8324
 -13286448.71146 -10333181.61243  24568668.3054                   24568668.5204
 -17098386.66847 -13306783.81545  22258988.1414                   22258984.3444
 -43231085.75846 -33662350.87044  24059609.4924                   24059608.0824
 -28842473.01247 -22454504.16045  21421998.7344                   21421996.1604
 -12906477.14147 -10045620.68045  21918509.3054                   21918505.5744
 11  9 30  1 55 30.0000000  0  7G15G29G30G21G05G26G18
 -27163689.25448 -21145942.24046  20493977.6804                   20493974.1524
 -40048102.64848 -31187273.54447  20247620.7344                   20247618.4024
 -13300252.76246 -10343937.99343  24566040.6484                   24566040.9304
 -17247200.84447 -13422742.87345  22230669.8674                   22230665.6884
 -43231185.18447 -33662428.36044  24059591.0164                   24059589.2154
 -28880176.59847 -22483883.58545  21414823.9924                   21414821.3324
 -13034708.16447 -10145540.90545  21894107.8834                   21894104.1374
 11  9 30  1 56  0.0000000  0  7G15G29G30G21G05G26G18
 -27262004.42248 -21222551.44846  20475268.8054                   20475265.6604
 -40104681.51648 -31231360.96547  20236854.5944                   20236852.0394
 -13314046.09846 -10354686.12843  24563416.8364                   24563416.7234
 -17396003.51248 -13538692.96645  22202353.8364                   22202350.0474
 -43231338.52046 -33662547.83644  24059561.4304                   24059559.2854
 -28917250.12547 -22512772.04945  21407769.0004                   21407766.8404
 -13162703.00047 -10245277.10545  21869751.0864                   21869747.2934
 11  9 30  1 56 30.0000000  0  7G15G29G30G21G05G26G18
 -25784312.89848 -20071103.49246  20756463.8984                   20756460.6914
 -38585297.80948 -30047425.60447  20525983.6724                   20525980.9024
 -11752414.53946  -9137830.29742  24860585.0234                   24860584.9414
 -15969371.76247 -12427031.82645  22473833.0554                   22473829.0594
 -41656130.06246 -32435112.67744  24359314.1174                   24359311.0904
 -27378277.55547 -21313572.64845  21700625.7734                   21700623.6564
 -11715041.01647  -9117228.76945  22145231.6644                   22145228.1914
 11  9 30  1 57  0.0000000  0  7G15G29G30G21G05G26G18
 -25881460.74248 -20146803.08146  20737977.2424                   20737974.0234
 -38640796.18448 -30090671.08747  20515422.7114                   20515419.9104
 -11766202.00046  -9148573.78743  24857961.9304                   24857961.3284
 -16118154.35548 -12542966.28145  22445520.6094                   22445516.5984
 -41656400.83246 -32435323.67744  24359262.7504                   24359259.4304
 -27414103.25847 -21341488.77145  21693808.6174                   21693805.5084
 -11842571.20347  -9216602.90445  22120963.4774                   22120959.6454
 11  9 30  1 57 30.0000000  0  7G15G29G30G21G05G26G18
 -25978021.78548 -20222045.44046  20719602.1804                   20719599.1294
 -38695752.57448 -30133494.25547  20504964.5634                   20504962.4104
 -11779988.28546  -9159316.30142  24855338.4694                   24855337.8594
 -16266923.04348 -12658889.89045  22417210.6174                   22417206.7304
 -41656728.99246 -32435579.39744  24359199.8054                   24359197.0864
 -27449305.27047 -21368918.91745  21687110.0864                   21687107.5474
 -11969867.21947  -9315794.57145  22096740.3284                   22096736.7544
 11  9 30  1 58  0.0000000  0  7G15G29G30G21G05G26G18
 -26073995.72748 -20296830.31146  20701338.8134                   20701336.0124
 -38750167.41848 -30175895.42347  20494609.7194                   20494607.3524
 -11793776.25446  -9170060.19142  24852714.2814                   24852713.9924
 -16415676.55948 -12774801.69645  22388903.7034                   22388899.7304
 -41657115.51646 -32435880.58544  24359126.5944                   24359124.1174
 -27483885.48047 -21395864.53245  21680529.5704                   21680526.7664
 -12096929.63747  -9414804.20845  22072560.9614                   22072557.8444
 11  9 30  1 58 30.0000000  0  7G15G29G30G21G05G26G18
 -26169383.11348 -20371158.12846  20683187.3134                   20683184.1374
 -38804042.62948 -30217876.11147  20484357.8364                   20484355.2074
 -11807569.91446  -9180808.49743  24850089.4144                   24850089.0664
 -16564414.65648 -12890701.48345  22360599.4224                   22360595.9844
 -41657562.05546 -32436228.54044  24359041.6174                   24359039.5124
 -27517846.78547 -21422327.86545  21674066.4454                   21674064.4384
 -12223759.77047  -9513632.84745  22048426.0314                   22048422.6684
 11  9 30  1 59  0.0000000  0  7G15G29G30G21G05G26G18
 -26264187.11748 -20445031.36347  20665146.8054                   20665143.7624
 -38857382.84048 -30259439.91247  20474207.3984                   20474204.9844
 -11821375.78146  -9191566.32143  24847462.3754                   24847461.7584
 -16713139.87148 -13006591.22945  22332298.1884                   22332294.0474
 -41658073.45746 -32436627.05144  24358944.0474                   24358942.0634
 -27551194.70747 -21448313.26345  21667721.1644                   21667718.6294
 -12350362.03548  -9612283.93845  22024334.5474                   22024330.6024
 11  9 30  1 59 30.0000000  0  6G15G29G21G05G26G18
 -26358404.10548 -20518447.18747  20647218.0164                   20647214.9614
 -38910185.48048 -30300584.81947  20464159.3134                   20464156.7074
 -16861847.73448 -13122467.45345  22303999.9144                   22303996.3324
 -41658647.44146 -32437074.28243  24358834.2974                   24358831.8244
 -27583928.26647 -21473819.93445  21661492.1724                   21661489.3444
 -12476733.34448  -9710755.05745  22000286.5944                   22000282.6884
 11  9 30  2  0  0.0000000  0  6G15G29G21G05G26G18
 -26452033.12948 -20591404.84446  20629400.9224                   20629397.5234
 -38962450.01648 -30341310.42647  20454214.1334                   20454211.4224
 -17010536.14847 -13238328.51645  22275705.5944                   22275701.6454
 -41659283.36746 -32437569.81743  24358713.3054                   24358711.4104
 -27616048.29347 -21498848.49845  21655379.7814                   21655377.2234
 -12602873.34848  -9809045.93146  21976283.1724                   21976278.9884
 11  9 30  2  0 30.0000000  0  6G15G29G21G05G26G18
 -26545069.99248 -20663901.09846  20611696.5554                   20611693.3914
 -39014173.49248 -30381614.44047  20444371.1094                   20444368.3984
 -17159200.09048 -13354170.52145  22247415.6094                   22247411.4534
 -41659978.39846 -32438111.41943  24358581.1564                   24358579.5744
 -27647552.97347 -21523397.60645  21649384.6484                   21649382.1134
 -12728778.48848  -9907153.79945  21952324.2034                   21952320.4414
 11  9 30  2  1  0.0000000  0  6G15G29G21G05G26G18
 -26637509.19948 -20735931.62846  20594106.0394                   20594102.6914
 -39065351.30548 -30421493.24647  20434632.7114                   20434630.0124
 -17307833.17647 -13469988.47945  22219131.5784                   22219127.5314
 -41660728.10246 -32438695.57444  24358438.9224                   24358436.1914
 -27678438.93747 -21547464.59245  21643507.1954                   21643504.4494
 -12854444.05548 -10005074.96845  21928410.3594                   21928406.2974
 11  9 30  2  1 30.0000000  0  6G15G29G21G05G26G18
 -26729349.83648 -20807495.74246  20576629.1024                   20576626.0004
 -39115983.89548 -30460947.21747  20424997.4224                   20424994.8244
 -17456433.56247 -13585780.95545  22190853.8914                   22190850.0634
 -41661532.94946 -32439322.72844  24358286.5164                   24358284.4884
 -27708708.09047 -21571050.93445  21637747.2894                   21637744.0744
 -12979870.38748 -10102809.72445  21904542.7814                   21904538.7704
 11  9 30  2  2  0.0000000  0  6G15G29G21G05G26G18
 -26820596.30548 -20878596.86946  20559265.3134                   20559262.3364
 -39166076.46948 -30499980.39247  20415465.3674                   20415462.6254
 -17605004.52347 -13701550.49946  22162581.6024                   22162577.6644
 -41662398.20746 -32439996.96444  24358121.1804                   24358118.8794
 -27738366.77747 -21594161.57245  21632103.4384                   21632100.4024
 -13105062.19948 -10200361.74845  21880719.4454                   21880715.5634
 11  9 30  2  2 30.0000000  0  6G15G29G21G05G26G18
 -26911248.24247 -20949234.73146  20542015.1174                   20542011.7344
 -39215629.31648 -30538593.00047  20406035.7194                   20406032.8594
 -17753544.30947 -13817295.75445  22134315.6644                   22134311.7194
 -41663324.00846 -32440718.38744  24357945.6094                   24357942.5824
 -27767416.70747 -21616797.89845  21626575.7194                   21626573.2504
 -13230019.33648 -10297730.92045  21856940.5234                   21856936.9344
 11  9 30  2  3  0.0000000  0  6G15G29G21G05G26G18
 -27001308.32048 -21019411.39946  20524877.2274                   20524874.2734
 -39264646.12148 -30576787.90047  20396707.7114                   20396704.9304
 -17902054.58647 -13933018.01446  22106055.3754                   22106050.9614
 -41664313.75846 -32441489.64244  24357756.7814                   24357754.1684
 -27795862.77747 -21638963.64945  21621162.4774                   21621159.5554
 -13354745.23848 -10394919.88245  21833206.3834                   21833203.0594
 11  9 30  2  3 30.0000000  0  6G15G29G21G05G26G18
 -27090773.14548 -21089124.23246  20507852.6484                   20507849.5084
 -39313125.44548 -30614563.99947  20387482.7344                   20387479.8244
 -18050531.54747 -14048714.31746  22077800.5864                   22077796.7934
 -41665366.11346 -32442309.64343  24357556.0944                   24357554.1174
 -27823704.71147 -21660658.65545  21615864.4304                   21615861.3834
 -13479237.66048 -10491926.93545  21809516.3134                   21809512.4344
 11  9 30  2  4  0.0000000  0  6G15G29G21G05G26G18
 -27179645.90248 -21158375.71446  20490940.6954                   20490937.4884
 -39361070.49648 -30651923.76847  20378358.8524                   20378356.1724
 -18198975.88347 -14164385.19545  22049552.4454                   22049548.4774
 -41666483.92646 -32443180.70944  24357343.9144                   24357340.8914
 -27850946.77047 -21681886.23045  21610680.1954                   21610677.0634
 -13603499.83648 -10588754.56045  21785869.4924                   21785866.0314
 11  9 30  2  4 30.0000000  0  6G15G29G21G05G26G18
 -27267926.46548 -21227165.74346  20474141.4534                   20474138.2464
 -39408482.28548 -30688868.02447  20369336.7584                   20369334.2074
 -18347386.75047 -14280029.99745  22021311.1024                   22021307.0084
 -41667668.28147 -32444103.59144  24357118.7274                   24357116.5314
 -27877591.63747 -21702648.45445  21605609.8834                   21605606.6764
 -13727532.52748 -10685403.37745  21762267.1564                   21762263.1174
 11  9 30  2  5  0.0000000  0  6G15G29G21G05G26G18
 -27355616.11347 -21295495.32446  20457454.7894                   20457451.1884
 -39455363.11748 -30725398.54247  20360415.4614                   20360412.8914
 -18495764.43747 -14395648.92745  21993075.9924                   21993071.6524
 -41668921.30547 -32445080.00344  24356880.4614                   24356877.9384
 -27903642.77347 -21722948.03545  21600652.6954                   21600649.8954
 -13851337.40248 -10781874.67445  21738707.7894                   21738704.1374
 11  9 30  2  5 30.0000000  0  6G15G29G21G05G26G18
 -25867290.00048 -20135760.67546  20740673.6804                   20740670.6644
 -37926290.74648 -29533913.57147  20651388.6334                   20651385.6954
 -17068681.08248 -13283635.90645  22264640.9304                   22264636.1914
 -40094821.71546 -31218508.89044  24656421.2034                   24656418.8914
 -26353679.93047 -20515184.78445  21895600.4534                   21895597.6174
 -12399489.21148  -9650564.35546  22014985.4694                   22014981.9964
 11  9 30  2  6  0.0000000  0  7G15G29G22G21G05G26G18
 -25953797.92248 -20203169.44046  20724211.8834                   20724208.2854
 -37972113.38748 -29569619.52447  20642668.6644                   20642665.9304
  21822806.09456  17018926.78053  24805330.1484                   24805327.4024
 -17216989.01648 -13399200.49145  22236418.6954                   22236414.3554
 -40096214.02346 -31219593.78944  24656156.3594                   24656154.2894
 -26378550.73047 -20534564.64445  21890867.6644                   21890865.3094
 -12522840.51648  -9746682.21346  21991512.4304                   21991508.2974
 11  9 30  2  6 30.0000000  0  7G15G29G22G21G05G26G18
 -26039722.83248 -20270123.89347  20707860.8914                   20707857.8484
 -38017415.63748 -29604919.97947  20634048.1804                   20634045.2734
  21663314.59047  16894647.84644  24774980.1644                   24774977.0784
 -17365267.32447 -13514741.99045  22208202.3134                   22208197.5004
 -40097684.85246 -31220739.93143  24655875.6564                   24655874.4574
 -26402842.43747 -20553493.24645  21886245.2424                   21886242.5394
 -12645973.23848  -9842629.76545  21968080.8204                   21968077.2624
 11  9 30  2  7  0.0000000  0  7G15G29G22G21G05G26G18
 -26125066.63748 -20336625.55446  20691620.5634                   20691617.6764
 -38062200.86748 -29639817.55647  20625525.8204                   20625522.8484
  21503963.25047  16770478.17444  24744656.3134                   24744652.4494
 -17513516.85948 -13630261.06646  22179991.5634                   22179986.7304
 -40099236.70746 -31221949.17343  24655581.0634                   24655579.2464
 -26426559.32047 -20571973.93845  21881732.3444                   21881729.2424
 -12768890.09448  -9938409.08345  21944690.2504                   21944686.7114
 11  9 30  2  7 30.0000000  0  7G15G29G22G21G05G26G18
 -26209830.14848 -20402675.02146  20675490.3914                   20675487.3714
 -38106470.69948 -29674313.53047  20617101.2814                   20617098.5784
  21344752.11347  16646417.68544  24714359.1254                   24714355.9924
 -17661736.52748 -13745756.88846  22151786.0634                   22151781.9924
 -40100870.83246 -31223222.53343  24655269.6884                   24655268.0274
 -26449704.29747 -20590008.97845  21877327.4384                   21877324.8284
 -12891592.24648 -10034021.11446  21921341.2504                   21921337.7464
 11  9 30  2  8  0.0000000  0  7G15G29G22G21G05G26G18
 -26294011.69547 -20468271.02246  20659471.2344                   20659467.6994
 -38150224.30148 -29708407.23747  20608775.4694                   20608772.3754
  21185683.03947  16522467.91243  24684089.2504                   24684085.6684
 -17809923.68048 -13861227.35245  22123587.0634                   22123582.4694
 -40102586.23446 -31224559.24143  24654943.1484                   24654941.5664
 -26472277.86747 -20607598.76745  21873031.7344                   21873029.6094
 -13014078.25848 -10129464.71946  21898032.5634                   21898029.1334
 11  9 30  2  8 30.0000000  0  7G15G29G22G21G05G26G18
 -26377608.12948 -20533411.08947  20643563.6254                   20643559.9614
 -38193459.62948 -29742097.09947  20600548.0234                   20600545.2464
  21026759.46946  16398631.48344  24653847.5784                   24653843.9384
 -17958073.71548 -13976668.90546  22095394.6954                   22095390.5084
 -40104379.94546 -31225957.00443  24654602.4384                   24654600.0314
 -26494279.33647 -20624742.77045  21868844.6724                   21868842.6214
 -13136345.59448 -10224737.92945  21874765.8754                   21874762.4574
 11  9 30  2  9  0.0000000  0  7G15G29G22G21G05G26G18
 -26460621.71148 -20598096.98147  20627766.6804                   20627763.0514
 -38236179.77748 -29775385.53947  20592418.6644                   20592415.7934
  20867979.14147  16274906.67943  24623632.0474                   24623628.8594
 -18106187.10248 -14092081.88346  22067209.4844                   22067205.9494
 -40106255.23846 -31227418.27543  24654245.5314                   24654243.4064
 -26515713.05547 -20641444.38445  21864766.3054                   21864764.1914
 -13258397.20748 -10319843.04045  21851540.2504                   21851536.7894
 11  9 30  2  9 30.0000000  0  7G15G29G22G21G05G26G18
 -26543051.00048 -20662327.58946  20612080.8914                   20612077.5124
 -38278384.67648 -29808272.46547  20584387.0164                   20584384.3244
  20709344.28546  16151295.27543  24593445.0164                   24593441.4344
 -18254260.66048 -14207463.84446  22039032.3364                   22039028.0084
 -40108211.02046 -31228942.30043  24653873.6804                   24653870.6414
 -26536579.91047 -20657704.27745  21860795.8674                   21860793.0234
 -13380231.33648 -10414778.69146  21828356.1094                   21828351.9344
 11  9 30  2 10  0.0000000  0  7G15G29G22G21G05G26G18
 -26624893.55948 -20726100.99446  20596506.5084                   20596503.2934
 -38320072.46548 -29840756.45246  20576454.2194                   20576451.2854
  20550858.28146  16027799.80943  24563285.9384                   24563281.4224
 -18402290.80148 -14322811.97745  22010862.7584                   22010858.8094
 -40110245.07846 -31230527.27743  24653485.8594                   24653483.4884
 -26556879.44147 -20673522.08245  21856932.8204                   21856929.5904
 -13501846.37948 -10509543.62145  21805213.4614                   21805209.5474
 11  9 30  2 10 30.0000000  0  7G15G29G22G21G05G26G18
 -26706151.80148 -20789419.09647  20581043.2344                   20581040.3484
 -38361246.49248 -29872840.10746  20568618.9844                   20568615.9924
  20392518.49246  15904418.32744  24533154.8674                   24533151.0004
 -18550277.79748 -14438126.48145  21982701.9924                   21982697.5124
 -40112360.03946 -31232175.31943  24653083.5004                   24653081.7274
 -26576616.26247 -20688901.41345  21853176.8754                   21853174.0354
 -13623244.84048 -10604139.79445  21782112.2424                   21782107.9224
 11  9 30  2 11  0.0000000  0  7G15G29G22G21G05G26G18
 -26786822.12948 -20852279.08546  20565692.3364                   20565689.0664
 -38401904.35948 -29904521.56246  20560882.1174                   20560879.3094
  20234329.08646  15781153.99243  24503051.8834                   24503047.9654
 -18698217.01648 -14553403.76545  21954550.1484                   21954545.8674
 -40114553.20746 -31233884.17743  24652666.3914                   24652664.4104
 -26595789.31647 -20703841.48145  21849528.8984                   21849526.1054
 -13744423.67648 -10698564.81845  21759052.3834                   21759048.5474
 11  9 30  2 11 30.0000000  0  7G15G29G22G21G05G26G18
 -26866907.52348 -20914683.28346  20550452.4384                   20550449.3324
 -38442049.52048 -29935803.50846  20553242.7034                   20553240.1174
  20076287.98046  15658005.24843  24472978.2114                   24472973.4024
 -18846109.31648 -14668644.48146  21926406.9384                   21926402.8094
 -40116827.17246 -31235656.21243  24652233.5944                   24652231.4884
 -26614403.66847 -20718346.16845  21845986.2974                   21845983.7854
 -13865385.99248 -10792821.13745  21736034.1954                   21736029.7194
 11  9 30  2 12  0.0000000  0  7G15G29G22G21G05G26G18
 -26946409.53548 -20976632.88346  20535324.1254                   20535320.6884
 -38481684.66448 -29966688.04547  20545700.1414                   20545697.7154
  19918394.05146  15534971.14143  24442931.3754                   24442927.4344
 -18993954.22348 -14783848.29146  21898273.1954                   21898268.8984
 -40119183.81646 -31237492.52443  24651785.3054                   24651783.1294
 -26632462.66847 -20732418.10245  21842550.4844                   21842546.9454
 -13986133.39548 -10886909.98146  21713056.3204                   21713052.7464
 11  9 30  2 12 30.0000000  0  7G15G29G22G21G05G26G18
 -27025327.21548 -21038127.16146  20520306.2274                   20520302.8284
 -38520810.13748 -29997175.43346  20538255.1334                   20538252.3794
  19760648.57446  15412052.70343  24412913.3524                   24412909.3714
 -19141749.23048 -14899013.20646  21870148.4384                   21870144.4264
 -40121622.74246 -31239393.01043  24651320.9144                   24651319.1844
 -26649967.86347 -20746058.54845  21839218.6644                   21839215.3594
 -14106665.31248 -10980830.92646  21690120.1414                   21690116.4224
 11  9 30  2 13  0.0000000  0  7G15G29G22G21G05G26G18
 -27103661.13348 -21099166.57746  20505399.9454                   20505396.6644
 -38559426.80948 -30027266.34146  20530906.6804                   20530903.7814
  19603051.68046  15289250.11443  24382923.7194                   24382919.0354
 -19289493.03148 -15014138.19946  21842033.9534                   21842029.8134
 -40124144.52747 -31241358.01543  24650841.9144                   24650839.3674
 -26666921.84447 -20759269.41545  21835992.4384                   21835989.4694
 -14226982.26648 -11074584.36946  21667224.6644                   21667221.3324
 11  9 30  2 13 30.0000000  0  7G15G29G22G21G05G26G18
 -27181411.57448 -21159751.32746  20490604.4304                   20490601.0984
 -38597535.93448 -30056961.76746  20523654.5164                   20523652.0594
  19445603.50347  15166563.37944  24352962.2584                   24352958.2274
 -19437183.79747 -15129221.88046  21813929.1414                   21813924.8714
 -40126749.93046 -31243388.19543  24650345.8674                   24650343.4694
 -26683326.94547 -20772052.61045  21832870.4614                   21832868.0744
 -14347085.11748 -11168170.97946  21644369.8284                   21644365.8554
 11  9 30  2 14  0.0000000  0  7G15G29G22G21G05G26G18
 -27258580.29748 -21219882.77646  20475919.6644                   20475916.2584
 -38635140.22748 -30086263.81247  20516498.6954                   20516496.4884
  19288303.41047  15043991.97044  24323028.8054                   24323024.7854
 -19584821.14547 -15244263.94846  21785834.7664                   21785830.5984
 -40129439.44546 -31245483.91244  24649833.6414                   24649831.7704
 -26699186.97747 -20784411.08845  21829852.3134                   21829850.1094
 -14466975.41048 -11261591.96546  21621555.3204                   21621551.6024
 11  9 30  2 14 30.0000000  0  7G15G29G22G21G05G26G18
 -27335163.93748 -21279558.33446  20461346.6024                   20461342.8714
 -38672237.39848 -30115170.70146  20509439.2504                   20509436.7814
  19131154.53947  14921538.45344  24293124.4304                   24293120.3404
 -19732400.62147 -15359260.91446  21757750.9774                   21757746.9774
 -40132211.02746 -31247643.61043  24649306.0704                   24649304.2894
 -26714501.23447 -20796344.29245  21826938.3204                   21826936.0594
 -14586650.12547 -11354844.96446  21598781.8444                   21598778.3204
 11  9 30  2 15  0.0000000  0  7G15G29G22G21G05G26G18
 -25835740.87548 -20111176.70546  20746676.9454                   20746673.5314
 -37133408.24248 -28916083.05646  20802268.7504   20802266.3754   20549582.12946
  16026806.81744                  24563041.8754                   24563038.3444
 -18304495.95748 -14246607.90146  22029472.5864                   22029468.3134
 -38559645.64146 -30022267.98444  24948555.5164                   24948553.0634
 -25153852.16847 -19580254.11645  22123920.3984                   22123917.5274
 -13130686.25448 -10220327.62446  21875842.5474                   21875838.7464
 11  9 30  2 15 30.0000000  0  6G15G29G22G21G26G18
 -25911156.15648 -20169941.85146  20732326.1804                   20732322.6414
 -37169495.67648 -28944203.13146  20795401.5314   20795399.2194   20392736.72746
  15904589.69744                  24533194.8444                   24533191.1804
 -18451954.66847 -14361510.75446  22001412.2034                   22001408.0004
 -25168082.69547 -19591342.83545  22121212.4844                   22121210.0394
 -13249932.11348 -10313246.45946  21853150.9384                   21853147.2584
 11  9 30  2 16  0.0000000  0  6G15G29G22G21G26G18
 -25985987.93748 -20228252.31646  20718086.0314                   20718082.3914
 -37205080.37148 -28971931.47646  20788630.3364   20788627.6684   20236043.16446
  15782490.97444                  24503377.8134                   24503372.2934
 -18599350.70347 -14476364.77146  21973363.6174                   21973359.0314
 -25181775.18047 -19602012.31945  22118606.8524                   22118604.1174
 -13368964.46547 -10405998.91746  21830500.1174                   21830496.1024
 11  9 30  2 16 30.0000000  0  6G15G29G22G21G26G18
 -26060229.38748 -20286102.78347  20703958.4844                   20703955.2894
 -37240155.87948 -28999263.04446  20781955.5784   20781952.7194   20079509.53946
  15660516.82644                  24473590.3444                   24473585.7814
 -18746674.65647 -14591162.62546  21945328.4224                   21945324.3754
 -25194924.69147 -19612258.70345  22116104.4304                   22116101.9344
 -13487775.97747 -10498579.29846  21807890.7894                   21807886.9144
 11  9 30  2 17  0.0000000  0  6G15G29G22G21G26G18
 -26133880.34448 -20343493.13546  20689942.8984                   20689939.7664
 -37274723.25048 -29026198.65946  20775377.8444   20775374.5394   19923135.97746
  15538667.47143                  24443832.2664                   24443828.6764
 -18893924.85247 -14705903.01846  21917307.5634                   21917303.2584
 -25207533.56247 -19622083.82145  22113705.1954                   22113703.6054
 -13606366.87147 -10590987.76746  21785323.4694                   21785319.9064
 11  9 30  2 17 30.0000000  0  6G15G29G22G21G26G18
 -26206940.56648 -20400423.16746  20676039.8754                   20676037.0164
 -37308782.95748 -29052738.69547  20768896.3914   20768893.3554   19766924.19146
  15416944.11143                  24414106.1094                   24414102.5044
 -19041098.18747 -14820583.50246  21889301.4384                   21889297.4694
 -25219602.80147 -19631488.42345  22111408.3054                   22111405.4614
 -13724736.53947 -10683223.85046  21762798.4144                   21762795.0434
 11  9 30  2 18  0.0000000  0  6G15G29G22G21G26G18
 -26279411.99248 -20456894.40446  20662249.3364                   20662246.2854
 -37342338.02048 -29078885.49146  20762511.1884   20762508.3324   19610872.18446
  15295345.27243                  24384410.5554                   24384406.7934
 -19188195.19547 -14935204.52646  21861309.8674                   21861305.5354
 -25231137.39547 -19640476.41845  22109213.5944                   22109210.9844
 -13842887.58247 -10775289.57246  21740315.1334                   21740311.6764
 11  9 30  2 18 30.0000000  0  6G15G29G22G21G26G18
 -26351296.35548 -20512908.17346  20648569.9844                   20648566.6954
 -37375390.31248 -29104640.52847  20756221.4304   20756218.3714   19454980.44147
  15173871.29943                  24354745.9144                   24354741.5744
 -19335214.60948 -15049765.07946  21833332.9614                   21833328.3484
 -25242140.00447 -19649049.86944  22107119.4454                   22107116.9264
 -13960820.76247 -10867185.53546  21717873.4924                   21717869.6804
 11  9 30  2 19  0.0000000  0  6G15G29G22G21G26G18
 -26422592.16048 -20568463.33546  20635002.9774                   20634999.3984
 -37407940.46548 -29130004.28646  20750027.2814   20750024.4844   19299249.56347
  15052522.67943                  24325110.9224                   24325106.2034
 -19482153.59447 -15164262.95646  21805371.4694                   21805367.1914
 -25252612.67247 -19657210.41944  22105126.4924                   22105124.1994
 -14078536.01647 -10958911.69246  21695472.6644                   21695469.0274
 11  9 30  2 19 30.0000000  0  6G15G29G22G21G26G18
 -26493304.03948 -20623563.50346  20621547.2424                   20621543.4734
 -37439993.36748 -29154980.58546  20743927.8134   20743924.6054   19143676.15247
  14931296.73043                  24295506.6024                   24295501.4224
 -19629014.34847 -15278699.89446  21777424.5864                   21777420.2424
 -25262561.54347 -19664962.79044  22103233.2974                   22103230.7624
 -14196036.76247 -11050470.69446  21673112.7504                   21673109.1134
 11  9 30  2 20  0.0000000  0  6G15G29G22G21G26G18
 -26563432.12548 -20678208.75746  20608201.9694                   20608198.5044
 -37471549.67248 -29179569.91146  20737923.2034   20737920.2464   18988261.33647
  14810194.35543                  24265932.2034                   24265927.4694
 -19775794.23447 -15393073.79946  21749493.7034                   21749488.8984
 -25271988.30547 -19672308.34044  22101439.3754                   22101436.7384
 -14313323.04347 -11141862.57946  21650794.2424                   21650790.4454
 11  9 30  2 20 30.0000000  0  6G15G29G22G21G26G18
 -26632977.28148 -20732399.78346  20594968.1174                   20594964.5554
 -37502611.33248 -29203773.80946  20732012.2974   20732009.2424   18833005.03147
  14689215.53743                  24236387.3984                   24236382.3284
 -19922491.54747 -15507383.36446  21721577.8524                   21721573.5784
 -25280895.94547 -19679249.35945  22099744.2734                   22099742.0124
 -14430395.85947 -11233088.12646  21628515.9304                   21628511.8954
 11  9 30  2 21  0.0000000  0  6G15G29G22G21G26G18
 -26701939.69148 -20786136.71746  20581844.6954                   20581841.5474
 -37533179.21548 -29227592.94346  20726194.9384   20726191.9574   18677907.88747
  14568360.72743                  24206873.1804                   24206869.0314
 -20069104.34448 -15621627.09946  21693678.3754                   21693673.9494
 -25289286.91847 -19685787.79044  22098147.8914                   22098144.6134
 -14547254.89547 -11324147.07746  21606278.5084                   21606274.5274
 11  9 30  2 21 30.0000000  0  7G15G29G22G09G21G26G18
 -26770322.53948 -20839422.04646  20568832.1484                   20568828.8404
 -37563257.86748 -29251030.85946  20720471.0944   20720468.3364   18522967.00447
  14447627.62044                  24177389.4614                   24177383.6334
  23380621.68456  18233743.98953  24801361.3444                   24801359.6294
 -20215633.68748 -15735805.78746  21665795.1024                   21665790.6054
 -25297166.60947 -19691927.83045  22096647.9924                   22096645.7194
 -14663903.71548 -11415042.25046  21584080.6724                   21584076.8954
 11  9 30  2 22  0.0000000  0  7G15G29G22G09G21G26G18
 -26838133.78148 -20892261.96746  20555927.5944                   20555924.6764
 -37592855.43748 -29274093.90046  20714839.0944   20714836.0554   18368176.10547
  14327011.43244                  24147933.2424                   24147928.7424
  23208850.30146  18099896.29743  24768674.7034                   24768672.3524
 -20362084.62548 -15849923.37946  21637925.8364                   21637921.4064
 -25304544.67247 -19697676.96845  22095244.3054                   22095241.6844
 -14780349.99248 -11505779.58546  21561922.1254                   21561918.2504
 11  9 30  2 22 30.0000000  0  7G15G29G22G09G21G26G18
 -26905375.39148 -20944658.02446  20543132.5944                   20543128.9304
 -37621974.89548 -29296784.38346  20709297.5554   20709294.9414   18213533.78946
  14206511.01444                  24118505.8914                   24118501.1174
  23036967.82446  17965961.90043  24735966.8914                   24735963.9734
 -20508456.76648 -15963979.60146  21610072.6954                   21610068.4184
 -25311425.17647 -19703038.41444  22093935.3524                   22093932.4534
 -14896595.19547 -11596360.23346  21539801.1334                   21539797.0124
 11  9 30  2 23  0.0000000  0  7G15G29G22G09G21G26G18
 -26972048.69948 -20996611.25346  20530444.8524                   20530441.4924
 -37650618.34847 -29319103.96946  20703847.0864   20703844.2154   18059039.62946
  14086126.03844                  24089106.3914                   24089101.8794
  22864976.69546  17831942.97343  24703237.8674                   24703234.6054
 -20654748.97348 -16077973.50746  21582234.0164                   21582229.3054
 -25317811.46547 -19708014.76344  22092719.3204                   22092716.9344
 -15012640.69948 -11686785.27146  21517718.5084                   21517714.1294
 11  9 30  2 23 30.0000000  0  7G15G29G22G09G21G26G18
 -27038152.79748 -21048120.92546  20517865.4144                   20517862.0354
 -37678785.81248 -29341052.64346  20698486.7424   20698483.9414   17904695.45746
  13965857.97144                  24059735.7974                   24059730.9884
  22692881.73046  17697843.02543  24670488.9774                   24670486.2934
 -20800957.78947 -16191902.44246  21554411.1334                   21554406.8324
 -25323704.62547 -19712606.84645  22091598.9924                   22091595.4734
 -15128485.02047 -11777053.54546  21495673.8204                   21495670.1094
 11  9 30  2 24  0.0000000  0  7G15G29G22G09G21G26G18
 -25528265.94148 -19871585.71046  20805187.6334                   20805183.7774
 -36131057.62147 -28135030.68046  20993010.3364   20993007.2234   19325927.11746
  15073311.27444                  24330186.5474   24330182.7934   24096112.00046
  18791269.31243                  24937514.8754                   24937512.2424
 -19371656.20347 -15078160.94246  21826398.2894                   21826393.9964
 -23753686.68447 -18489216.27045  22390363.2344                   22390360.1134
 -13668704.78547 -10639562.43246  21773460.6724                   21773456.7734
 11  9 30  2 24 30.0000000  0  7G15G29G22G09G21G26G18
 -25593232.62148 -19922209.09146  20792824.7814                   20792820.7894
 -36158276.25847 -28156240.01246  20987830.3364   20987827.8484   19171885.79746
  14953279.10743                  24300873.1644   24300868.9694   23923819.99246
  18657015.89243                  24904728.8834                   24904726.1054
 -19517691.12147 -15191954.37546  21798608.8204                   21798604.2074
 -23758599.92247 -18493044.75645  22389427.9774                   22389425.4804
 -13784147.37147 -10729517.66446  21751492.8594                   21751489.0314
 11  9 30  2 25  0.0000000  0  7G15G29G22G09G21G26G18
 -25657630.85948 -19972389.51846  20780569.9224                   20780566.5204
 -36185021.88347 -28177080.76046  20982741.0634   20982738.1094   19017996.53946
  14833365.58244                  24271589.3054   24271584.7544   23751435.06346
  18522690.00943                  24871925.6334                   24871922.0904
 -19663635.38747 -15305677.15546  21770836.3054                   21770832.0704
 -23763026.43747 -18496494.03244  22388585.6254                   22388583.3204
 -13899388.84047 -10819316.17246  21729562.9924                   21729559.1884
 11  9 30  2 25 30.0000000  0  7G15G29G22G09G21G26G18
 -25721461.82448 -20022127.92246  20768423.7274                   20768419.8834
 -36211296.42647 -28197554.44446  20977740.9064   20977738.8164   18864259.27746
  14713570.35644                  24242333.2894   24242329.7894   23578959.80146
  18388293.73243                  24839104.2194                   24839102.3204
 -19809487.28947 -15419327.97446  21743081.4844                   21743077.3284
 -23766969.28947 -18499566.38044  22387835.2584                   22387832.8874
 -14014429.87547 -10908958.50546  21707671.2034                   21707667.6954
 11  9 30  2 26  0.0000000  0  7G15G29G22G09G21G26G18
 -25784725.51648 -20071424.29946  20756384.7814                   20756381.4064
 -36237100.87147 -28217661.81546  20972830.4454   20972827.9654   18710674.95346
  14593894.38344                  24213107.8754   24213103.3244   23406398.21946
  18253830.21343                  24806266.1724                   24806263.7774
 -19955244.55947 -15532905.04746  21715344.9064                   21715340.7234
 -23770430.79347 -18502263.68144  22387176.7194                   22387174.1994
 -14129270.67647 -10998444.81546  21685817.9694                   21685814.4344
 11  9 30  2 26 30.0000000  0  7G15G29G22G09G21G26G18
 -25847421.77748 -20120278.52946  20744454.3204                   20744450.9184
 -36262436.08648 -28237403.55346  20968010.0004   20968006.8634   18557245.05946
  14474338.72044                  24183910.9924   24183906.1454   23233754.69546
  18119302.90043                  24773414.1334                   24773410.2274
 -20100904.15247 -15646406.00146  21687626.7504                   21687622.5944
 -23773412.59047 -18504587.16944  22386609.2734                   22386606.7934
 -14243910.16047 -11087774.25746  21664002.5474                   21663998.9304
 11  9 30  2 27  0.0000000  0  7G15G29G22G09G21G26G18
 -25909552.47748 -20168692.05446  20732631.0084                   20732627.6994
 -36287304.30147 -28256781.38346  20963277.4454   20963274.6054   18403969.00446
  14354902.88444                  24154743.4064   24154738.5634   23061031.85646
  17984713.74343                  24740545.4144                   24740543.1844
 -20246464.85247 -15759829.91046  21659927.8524                   21659923.0234
 -23775917.93747 -18506539.42744  22386132.6564                   22386130.3364
 -14358349.87147 -11176948.03946  21642225.2424                   21642221.8834
 11  9 30  2 27 30.0000000  0  7G15G29G22G09G21G26G18
 -25971118.93048 -20216665.91046  20720915.2424                   20720911.7384
 -36311707.59847 -28275796.95646  20958633.3834   20958630.7424   18250846.01246
  14235586.38344                  24125605.0634   24125600.3364   22888232.26246
  17850064.71543                  24707662.7034                   24707660.3554
 -20391925.52047 -15873175.86346  21632247.6484                   21632243.0354
 -23777950.62947 -18508123.33344  22385745.8984                   22385742.5394
 -14472590.95747 -11265967.04046  21620485.8984                   21620482.1454
 11  9 30  2 28  0.0000000  0  7G15G29G22G09G21G26G18
 -26032119.43048 -20264198.76446  20709307.4694                   20709304.0354
 -36335645.11748 -28294449.56646  20954078.3524   20954075.1684   18097879.15246
  14116391.47044                  24096496.7114   24096491.9384   22715361.55146
  17715360.37143                  24674766.4224                   24674763.9654
 -20537281.30547 -15986440.07546  21604587.1804                   21604582.9734
 -23779510.47347 -18509338.81844  22385449.0634                   22385446.3204
 -14586630.98447 -11354829.37946  21598784.9844                   21598781.2114
 11  9 30  2 28 30.0000000  0  7G15G29G22G09G21G26G18
 -26092556.12148 -20311292.27746  20697806.6094                   20697803.1804
 -36359119.57847 -28312741.35446  20949611.3914   20949608.2774   17945067.53947
  13997317.55544                  24067417.5314   24067413.0984   22542421.89846
  17580602.19743                  24641856.9224                   24641854.0434
 -20682531.47347 -16099622.00446  21576946.9304                   21576942.6564
 -23780601.39547 -18510188.92044  22385241.6414                   22385238.8364
 -14700471.57447 -11443536.31446  21577122.0084                   21577118.3484
 11  9 30  2 29  0.0000000  0  7G15G29G22G09G21G26G18
 -26152430.47348 -20357947.61446  20686413.0004                   20686409.3164
 -36382133.13347 -28330674.00346  20945232.4224   20945229.1174   17792410.88347
  13878364.44744                  24038367.9144   24038362.4494   22369416.15646
  17445792.60943                  24608935.5394                   24608932.9344
 -20827674.22747 -16212720.22246  21549327.1254                   21549322.8484
 -23781226.71547 -18510676.18144  22385122.0704                   22385119.2774
 -14814113.77347 -11532088.63746  21555496.6024                   21555492.2814
 11  9 30  2 29 30.0000000  0  7G15G29G22G09G21G26G18
 -26211745.82048 -20404167.35846  20675125.3134                   20675122.3914
 -36404689.89848 -28348250.70646  20940939.7504   20940937.0274   17639907.03947
  13759530.38144                  24009347.1954   24009342.2624   22196345.41846
  17310932.30643                  24575999.9694                   24575998.1294
 -20972710.54747 -16325735.52046  21521727.5234                   21521723.0434
 -23781391.56647 -18510804.65044  22385091.0164                   22385087.7814
 -14927560.49247 -11620488.65746  21533908.1954                   21533904.5704
 11  9 30  2 30  0.0000000  0  7G15G29G22G09G21G26G18
 -26270500.47348 -20449950.19946  20663945.0704                   20663941.7464
 -36426788.96147 -28365470.76546  20936734.2814   20936731.4064   17487558.74647
  13640817.47044                  23980356.7114   23980351.6484   22023215.09046
  17176025.61043                  24543054.9064                   24543051.5784
 -21117635.90248 -16438664.34146  21494149.4304                   21494144.5274
 -23781096.23847 -18510574.55244  22385147.6254                   22385144.5274
 -15040809.66447 -11708734.75246  21512357.7974                   21512353.7854
 11  9 30  2 30 30.0000000  0  7G15G29G22G09G21G26G18
 -26328694.87948 -20495296.48946  20652870.7584                   20652867.3484
 -36448431.96547 -28382335.44246  20932615.6254   20932612.7384   17335366.62147
  13522226.31044                  23951394.0864   23951389.7584   21850029.04745
  17041075.49743                  24510098.3054                   24510096.5664
 -21262447.16048 -16551504.27646  21466592.3134                   21466588.0354
 -23780343.24247 -18509987.79144  22385290.7814                   22385287.7234
 -15153861.12947 -11796826.77546  21490844.5944                   21490840.4574
 11  9 30  2 31  0.0000000  0  7G15G29G22G09G21G26G18
 -26386331.02747 -20540207.76746  20641902.9304                   20641899.8204
 -36469621.21548 -28398846.54846  20928583.8754   20928580.9734   17183330.10547
  13403756.36744                  23922462.9224   23922457.7664   21676790.08646
  16906084.19443                  24477132.8134                   24477130.2194
 -21407143.71548 -16664254.80946  21439057.9534                   21439053.0394
 -23779136.00047 -18509047.10244  22385520.5234                   22385517.4414
 -15266716.33647 -11884765.86846  21469369.2894                   21469365.0354
 11  9 30  2 31 30.0000000  0  7G15G29G22G09G21G26G18
 -26443411.93048 -20584686.39346  20631041.0554                   20631037.7034
 -36490360.15248 -28415006.76146  20924637.0634   20924633.9574   17031447.27747
  13285406.17044                  23893561.0234   23893555.8444   21503499.63346
  16771052.72943                  24444156.1564                   24444154.4734
 -21551724.99248 -16776915.52046  21411544.9534                   21411540.4344
 -23777479.08247 -18507756.05144  22385835.7664                   22385832.7774
 -15379377.01247 -11972553.39546  21447930.4924                   21447926.4144
 11  9 30  2 32  0.0000000  0  8G15G29G22G09G06G21G26G18
 -26499937.55147 -20628732.31146  20620284.5944                   20620281.4064
 -36510649.98848 -28430817.03046  20920775.8444   20920773.1094   16879719.18447
  13167176.55744                  23864688.3204   23864682.7344   21330161.54346
  16635984.09443                  24411171.2344                   24411168.6214
  24954706.53156  19460411.48753  24710670.2734                   24710668.4734
 -21696188.43047 -16889484.41546  21384054.3444                   21384049.5984
 -23775374.98846 -18506116.47844  22386235.7194                   22386232.8484
 -15491843.53947 -12060189.63346  21426528.7424                   21426524.6054
 11  9 30  2 32 30.0000000  0  8G15G29G22G09G06G21G26G18
 -26555916.58248 -20672352.33846  20609632.1484                   20609628.7814
 -36530499.98448 -28446284.56146  20916998.6414   20916995.8634   16728138.69147
  13049061.94544                  23835843.5084   23835837.5124   21156771.89546
  16500875.34243                  24378176.6174                   24378173.5044
  24782460.40246  19326193.71043  24677893.1174                   24677890.6054
 -21840539.30547 -17001965.60546  21356585.4774                   21356580.7234
 -23772833.42247 -18504136.05544  22386719.6884                   22386717.3984
 -15604123.17248 -12147680.23146  21405162.9614                   21405158.3794
 11  9 30  2 33  0.0000000  0  8G15G29G22G09G06G21G26G18
 -25035933.82847 -19487950.18046  20898875.3204                   20898871.6334
 -34974496.85248 -27233814.60146  21213096.2344   21213093.2774   18152125.11746
  14158661.82044                  24106818.3754   24106813.3634   22558754.06346
  17593328.98743                  24644964.7274
  24644961.1414   26185882.10546  20419769.21143  24944955.3054   24944953.0394
 -20409356.56247 -15886758.26246  21628930.4304                   21628925.7624
 -22194443.45747 -17274221.83744  22687077.8914                   22687074.5944
 -14140798.88348 -11007427.51346  21683624.0394                   21683620.0744
 11  9 30  2 33 30.0000000  0  8G15G29G22G09G06G21G26G18
 -25090829.76247 -19530726.23646  20888428.9304                   20888425.2934
 -34993479.21548 -27248606.06046  21209484.0864   21209481.0744   18000833.09447
  14040772.02644                  24078028.2114   24078023.0594   22385264.53145
  17458142.35843                  24611950.9614
  24611947.6804   26014127.42646  20285934.42243  24912270.8754   24912268.9494
 -20553483.02747 -15999064.59446  21601503.5784                   21601499.1524
 -22191043.03147 -17271572.17344  22687725.2814                   22687721.5234
 -14252713.94548 -11094634.04346  21662327.0084                   21662322.9924
 11  9 30  2 34  0.0000000  0  8G15G29G22G09G06G21G26G18
 -25145183.61748 -19573079.87246  20878085.6884                   20878081.9454
 -35012028.17248 -27263059.79246  21205954.5474   21205952.0354   17849688.05547
  13922996.75444                  24049266.4224   24049261.3984   22211732.36746
  17322922.53943                  24578928.3834
  24578926.7974   25842624.78546  20152296.03043  24879634.7344   24879631.9264
 -20697491.61748 -16111279.04946  21574099.8134                   21574095.2344
 -22187214.98447 -17268589.27244  22688453.3754                   22688450.1764
 -14364445.05948 -11181697.22046  21641065.9694                   21641061.6454
 11  9 30  2 34 30.0000000  0  8G15G29G22G09G06G21G26G18
 -25198997.48048 -19615012.75846  20867845.2584                   20867841.8834
 -35030146.52748 -27277178.00246  21202506.7664   21202503.6724   17698689.28547
  13805335.42244                  24020532.1024   24020527.4494   22038160.12546
  17187671.53243                  24545898.4454
  24545895.8634   25671375.71546  20018855.30943  24847046.6884   24847045.7424
 -20841381.57448 -16223401.07646  21546718.8204                   21546713.8014
 -22182963.16847 -17265276.17944  22689262.4064                   22689259.5554
 -14475993.33248 -11268617.92946  21619838.6254                   21619834.4064
 11  9 30  2 35  0.0000000  0  8G15G29G22G09G06G21G26G18
 -25252270.91047 -19656524.51846  20857707.5704                   20857704.1724
 -35047834.48448 -27290960.82446  21199140.4304   21199137.3954   17547838.50447
  13687789.44044                  23991826.3364   23991821.3524   21864553.13346
  17052393.37843                  24512862.3054
  24512860.1804   25500384.66446  19885615.58543  24814509.1484   24814507.3364
 -20985148.56248 -16335427.29146  21519360.6484                   21519355.7504
 -22178288.65246 -17261633.72544  22690151.0784                   22690149.1414
 -14587357.75047 -11355395.38346  21598646.5234                   21598642.7734
 11  9 30  2 35 30.0000000  0  8G15G29G22G09G06G21G26G18
 -25305004.47747 -19697615.61046  20847672.5554                   20847669.4964
 -35065093.24248 -27304409.21646  21195856.1724   21195853.5314   17397136.14547
  13570359.05744                  23963149.0554   23963143.4104   21690915.00046
  16917090.94843                  24479820.1804
  24479817.6214   25329654.62545  19752579.28943  24782019.5634   24782018.9494
 -21128790.47347 -16447356.03646  21492026.3984                   21492021.9804
 -22173193.85247 -17257663.74744  22691120.6884                   22691118.5904
 -14698538.10547 -11442029.41146  21577489.9064                   21577485.2774
 11  9 30  2 36  0.0000000  0  8G15G29G22G09G06G21G26G18
 -25357198.87547 -19738286.56146  20837740.2664                   20837737.1844
 -35081924.28948 -27317524.33746  21192653.5474   21192650.8094   17246583.12147
  13453045.11244                  23934499.2734   23934493.4734   21517249.94546
  16781767.57643                  24446772.6094
  24446770.1524   25159188.93445  19619748.93243  24749581.2344   24749580.1564
 -21272304.65648 -16559185.25746  21464716.3674                   21464712.1484
 -22167680.96547 -17253368.04044  22692170.2194                   22692168.1254
 -14809534.50047 -11528520.08346  21556367.5704                   21556363.3554
 11  9 30  2 36 30.0000000  0  8G15G29G22G09G06G21G26G18
 -25408855.00447 -19778538.08246  20827910.3364                   20827907.1374
 -35098329.21148 -27330307.39646  21189531.5004   21189528.6644   17096179.88347
  13335847.82044                  23905878.6884   23905873.5554   21343561.35246
  16646425.80743                  24413720.4924
  24413718.8594   24988990.28545  19487126.66943  24717192.9844   24717191.5234
 -21415688.32848 -16670912.77146  21437431.8594                   21437427.4224
 -22161753.05146 -17248748.91244  22693298.0474                   22693295.6294
 -14920346.98048 -11614867.44746  21535280.6334                   21535276.5314
 11  9 30  2 37  0.0000000  0  8G15G29G22G09G06G21G26G18
 -25459973.41848 -19818370.61246  20818183.0084                   20818179.6414
 -35114309.11348 -27342759.27646  21186490.7584   21186488.0704   16945927.23847
  13218767.93444                  23877286.2114   23877281.7344   21169853.52746
  16511069.12843                  24380664.9774
  24380662.6334   24819062.32846  19354715.38443  24684857.3914   24684855.9144
 -21558938.84448 -16782536.54846  21410172.0084                   21410167.4304
 -22155411.84447 -17243807.72244  22694504.8754                   22694502.3364
 -15030975.18048 -11701071.22446  21514229.1094                   21514224.9494
 11  9 30  2 37 30.0000000  0  8G15G29G22G09G06G21G26G18
 -25510557.56648 -19857786.81846  20808557.9774                   20808554.2854
 -35129867.96948 -27354883.07546  21183529.9924   21183527.4774   16795823.27747
  13101803.89744                  23848722.3594   23848717.3874   20996127.81646
  16375698.51343                  24347606.8364
  24347603.8444   24649405.43045  19222515.28643  24652572.6644   24652570.5904
 -21702056.19548 -16894056.54146  21382937.7974                   21382932.9654
 -22148662.50047 -17238548.50144  22695789.1174                   22695787.1094
 -15141421.94148 -11787133.60046  21493211.2274                   21493207.4614
 11  9 30  2 38  0.0000000  0  8G15G29G22G09G06G21G26G18
 -25560604.17648 -19896784.18246  20799033.8204                   20799030.6914
 -35145003.34048 -27366676.87146  21180650.0004   21180647.1684   16645872.58647
  12984959.25244                  23820187.0864   23820182.4064   20822392.05146
  16240319.98943                  24314545.6564
  24314543.1844   24480026.71946  19090531.92743  24620340.8364   24620338.1454
 -21845033.64548 -17005467.52546  21355729.9694                   21355725.4614
 -22141503.31246 -17232969.94144  22697151.4694                   22697149.2814
 -15251683.19148 -11873051.43846  21472229.5314                   21472224.9304
 11  9 30  2 38 30.0000000  0  8G15G29G22G09G06G21G26G18
 -25610118.29748 -19935366.59846  20789611.1884                   20789607.8874
 -35159720.86348 -27378145.07546  21177849.5784   21177846.5824   16496071.43047
  12868231.15344                  23791681.2034   23791676.9844   20648646.15646
  16104933.61243                  24281483.0944
  24281480.0944   24310925.20746  18958764.71343  24588160.9844   24588159.4144
 -21987872.80548 -17116770.76146  21328548.3914                   21328543.9964
 -22133940.87946 -17227077.19344  22698591.0084                   22698588.3484
 -15361762.67648 -11958827.64146  21451282.2664                   21451277.8634
 11  9 30  2 39  0.0000000  0  8G15G29G22G09G06G21G26G18
 -25659100.35248 -19973534.42746  20780290.6564                   20780287.2624
 -35174021.48048 -27389288.43646  21175128.1564   21175125.3364   16346421.32047
  12751620.74944                  23763204.0164   23763198.9184   20474894.66846
  15969542.85143                  24248419.2424
  24248416.3204   24142104.41446  18827216.11943  24556036.0944   24556034.0354
 -22130570.40648 -17227963.67946  21301393.9774                   21301389.3954
 -22125977.33246 -17220871.85544  22700106.4614                   22700104.3014
 -15471660.18748 -12044462.04646  21430369.3594                   21430365.3834
 11  9 30  2 39 30.0000000  0  8G15G29G22G09G06G21G26G18
 -25707550.39547 -20011287.70946  20771070.5944                   20771067.2464
 -35187906.01248 -27400107.56546  21172485.9064   21172483.4924   16196923.34047
  12635128.91544                  23734755.1484   23734750.2774   20301141.89146
  15834151.15143                  24215355.1884
  24215352.1604   23973567.80146  18695888.95143  24523964.3674   24523963.0004
 -22273123.14848 -17339043.71946  21274266.5944                   21274262.3634
 -22117614.16446 -17214355.13044  22701697.9774                   22701695.6764
 -15581375.03148 -12129954.11046  21409490.9844                   21409487.1764
 11  9 30  2 40  0.0000000  0  8G15G29G22G09G06G21G26G18
 -25755470.96548 -20048628.41046  20761951.8754                   20761948.4844
 -35201377.72748 -27410605.01846  21169922.5084   21169919.7304   16047575.97747
  12518754.39144                  23706335.8524   23706330.8834   20127390.37546
  15698760.35843                  24182291.3284
  24182288.4104   23805316.87946  18564784.36143  24491947.8674   24491944.9804
 -22415530.05948 -17450010.12346  21247167.9774                   21247163.6374
 -22108855.75846 -17207530.39544  22703364.3444                   22703361.6174
 -15690908.84448 -12215305.10846  21388647.7734                   21388643.4534
 11  9 30  2 40 30.0000000  0  8G15G29G22G09G06G21G26G18
 -25802863.05548 -20085557.31746  20752933.1174                   20752929.8164
 -35214438.44148 -27420782.20946  21167436.9144   21167434.4774   15898380.21147
  12402497.99544                  23677943.7894   23677939.4384   19953644.21346
  15563373.73643                  24149227.8984
  24149225.7274   23637354.88346  18433904.98243  24459984.7894   24459982.3714
 -22557788.44948 -17560860.80846  21220097.0004                   21220092.7544
 -22099704.30946 -17200399.41644  22705105.5314                   22705103.3554
 -15800261.61748 -12300515.05346  21367838.3204                   21367834.0704
 11  9 30  2 41  0.0000000  0  8G15G29G22G09G06G21G26G18
 -25849730.19948 -20122077.16946  20744014.9064                   20744011.8244
 -35227091.77748 -27430641.95446  21165029.3134   21165026.5944   15749333.95747
  12286358.12344                  23649581.3754   23649576.8364   19779904.64546
  15427992.36143                  24116166.7504
  24116164.4224   23469682.21946  18303251.03443  24428078.0784   24428075.2154
 -22699898.19148 -17671595.65946  21193054.4064                   21193049.8524
 -22090165.12546 -17192966.29044  22706921.0314                   22706918.8164
 -15909435.61748 -12385585.67946  21347063.2424                   21347059.3094
 11  9 30  2 41 30.0000000  0  8G15G29G22G09G06G21G26G18
 -25896073.53148 -20158188.85646  20735196.0704                   20735192.8054
 -35239339.34848 -27440185.53446  21162698.6024   21162695.7274   15600437.78947
  12170335.20644                  23621247.9224   23621242.6484   19606175.82846
  15292619.24844                  24083107.4614
  24083104.6914   23302302.00846  18172824.97543  24396226.6484   24396224.7154
 -22841856.89848 -17782212.82446  21166040.6094                   21166036.0004
 -22080240.41846 -17185232.78344  22708809.4454                   22708806.9264
 -16018431.07448 -12470517.18946  21326322.1484                   21326318.1484
 11  9 30  2 42  0.0000000  0  8G15G29G22G09G06G21G26G18
 -24366472.53548 -18966291.96946  21026269.2274                   21026265.5704
 -33675762.69948 -26221814.13046  21460237.3134   21460234.3834   17027117.02747
  13282033.35444                  23892735.3914   23892730.8484   21007887.14146
  16384861.89143                  24349843.6724
  24349841.7304   24710642.75845  19270233.47143  24664225.1024   24664222.4184
 -21408237.12548 -16665106.50246  21438849.3524                   21438844.5664
 -20494513.23446 -15949601.22644  23010563.9064                   23010560.8524
 -14551824.22348 -11327706.62646  21605408.2114                   21605403.9304
 11  9 30  2 42 30.0000000  0  8G15G29G22G09G06G21G26G18
 -24411769.39148 -19001588.20346  21017649.7814                   21017646.3164
 -33687202.59848 -26230728.34946  21458060.2974   21458057.2624   16878523.67647
  13166246.40744                  23864459.4694   23864453.6134   20834192.76646
  16249515.63643                  24316791.0944                   24316787.9734
  24543857.73046                  19140271.19143  24632486.6174   24632482.7584
 -21549884.26248 -16775480.88946  21411894.6024                   21411890.0204
 -20483823.69246 -15941271.75444  23012597.8444                   23012594.3524
 -14660461.26248 -11412358.85846  21584734.9454                   21584730.5234
 11  9 30  2 43  0.0000000  0  8G15G29G22G09G06G21G26G18
 -24456546.87148 -19036479.76146  21009128.7814                   21009125.4344
 -33698243.48448 -26239331.65446  21455959.1484   21455956.7854   16730080.50847
  13050576.49644                  23836211.3134   23836206.0784   20660519.05546
  16114185.49743                  24283741.7424                   24283739.7854
  24377372.48046                  19010542.53743  24600805.5864   24600802.2274
 -21691373.69948 -16885732.38146  21384970.3204                   21384965.8284
 -20472757.98446 -15932649.11044  23014703.3204                   23014701.2114
 -14768921.60248 -11496873.39946  21564095.9774                   21564091.8954
 11  9 30  2 43 30.0000000  0  8G15G29G22G09G06G21G26G18
 -24500806.89548 -19070968.08446  21000706.3054                   21000702.8594
 -33708887.55148 -26247625.74146  21453933.8674   21453930.9184   16581786.89847
  12935023.09844                  23807992.1484   23807986.5474   20486869.44146
  15978874.16943                  24250697.4304                   24250694.9494
  24211189.23446                  18881049.20343  24569181.9304   24569178.3094
 -21832703.70348 -16995859.63446  21358076.1094                   21358071.4924
 -20461319.21147 -15923735.79144  23016880.8674                   23016877.8834
 -14877205.52748 -11581250.45046  21543490.1724                   21543485.6994
 11  9 30  2 44  0.0000000  0  8G15G29G22G09G06G21G26G18
 -24544547.60948 -19105051.75546  20992382.9924                   20992379.1174
 -33719133.34848 -26255609.48646  21451984.2114   21451981.4304   16433646.57447
  12819589.10244                  23779802.4774   23779797.0164   20313250.95346
  15843587.06643                  24217658.2034                   24217655.9694
  24045314.10546                  18751795.87243  24537616.4694   24537613.6024
 -21973868.30948 -17105858.02646  21331213.2274                   21331208.6454
 -20449506.85547 -15914531.39444  23019128.8054                   23019125.4574
 -14985310.28148 -11665487.91446  21522918.4844                   21522914.2114
 11  9 30  2 44 30.0000000  0  8G15G29G22G09G06G21G26G18
 -24587775.87548 -19138736.11746  20984156.9064                   20984153.1024
 -33728988.25848 -26263288.64946  21450109.2274   21450106.1914   16285654.60947
  12704270.73744                  23751639.9454   23751635.0744   20139662.33247
  15708323.20243                  24184626.3444                   24184623.6094
  23879744.61746                  18622780.70643  24506109.8754   24506107.6094
 -22114870.38748 -17215729.75846  21304381.5554                   21304376.9304
 -20437328.93447 -15905042.10044  23021446.1804                   23021443.2234
 -15093241.66048 -11749590.26146  21502379.7504                   21502375.6334
 11  9 30  2 45  0.0000000  0  8G15G29G22G09G06G21G26G18
 -24630490.24248 -19172020.05346  20976028.7194                   20976025.1764
 -33738452.07448 -26270663.06746  21448308.3204   21448305.0204   16137813.24647
  12589069.68244                  23723506.7584   23723501.0314   19966109.05546
  15573086.91144                  24151600.4224                   24151597.0944
  23714485.36747                  18494007.36443  24474662.2814   24474659.5004
 -22255706.05148 -17325471.81346  21277581.3914                   21277576.7234
 -20424786.18447 -15895268.55644  23023832.9144                   23023829.3054
 -15200997.55548 -11833555.89246  21481874.4694                   21481870.5904
 11  9 30  2 45 30.0000000  0  8G15G29G22G09G06G21G26G18
 -24672693.21948 -19204905.48246  20967997.4534                   20967994.1954
 -33747527.43748 -26277734.77746  21446581.0864   21446578.1254   15990122.05147
  12473985.67644                  23695402.2814   23695396.4264   19792594.14846
  15437880.49843                  24118581.8594                   24118578.7854
  23549538.46146                  18365477.37843  24443273.5474   24443271.0634
 -22396372.90648 -17435082.33946  21250813.5164                   21250808.7234
 -20411882.05147 -15885213.39444  23026288.3754                   23026285.3404
 -15308579.09848 -11917385.63946  21461402.5784                   21461398.6764
 11  9 30  2 46  0.0000000  0  8G15G29G22G09G06G21G26G18
 -24714386.74248 -19237393.94546  20960063.4844                   20960060.4384
 -33756217.00848 -26284505.87946  21444927.5474   21444924.6954   15842580.59847
  12359018.35244                  23667326.1884   23667319.9534   19619120.81647
  15302706.51544                  24085570.1644                   24085567.6484
  23384906.05147                  18237192.48144  24411945.6174   24411943.0634
 -22536869.33648 -17544560.05346  21224077.7974                   21224073.3364
 -20398619.96147 -15874879.30944  23028812.0394                   23028809.1174
 -15415986.43048 -12001079.64746  21440963.5004                   21440959.7894
 11  9 30  2 46 30.0000000  0  8G15G29G22G09G06G21G26G18
 -24755573.44548 -19269487.48146  20952226.1724                   20952223.0904
 -33764523.80948 -26290978.72346  21443346.7034   21443343.9384   15695187.72747
  12244166.83044                  23639277.4304   23639272.2544   19445691.69547
  15167566.94944                  24052568.3674                   24052565.4224
  23220589.28947                  18109153.48544  24380676.5634   24380674.8244
 -22677193.85948 -17653903.83446  21197375.1334                   21197370.5354
 -20385003.85246 -15864269.39144  23031402.8364                   23031400.2974
 -15523222.07448 -12084639.87146  21420557.2424                   21420553.1844
 11  9 30  2 47  0.0000000  0  8G15G29G22G09G06G21G26G18
 -24796253.33248 -19301186.10246  20944484.7274                   20944481.5904
 -33772448.64148 -26297153.92946  21441838.5944   21441835.3364   15547945.22347
  12129432.44944                  23611258.3674   23611252.8874   19272312.12547
  15032466.05544                  24019574.8284                   24019572.2894
  23056592.64547                  17981363.93044  24349469.1644   24349466.6764
 -22817343.06648 -17763110.99546  21170705.3524                   21170700.9804
 -20371035.22346 -15853384.78444  23034061.1564                   23034058.1254
 -15630284.48848 -12168065.11546  21400183.9844                   21400179.5084
 11  9 30  2 47 30.0000000  0  8G15G29G22G09G06G21G26G18
 -24836429.73048 -19332492.38246  20936839.5164                   20936836.5784
 -33779994.77348 -26303034.04446  21440402.8594   21440399.5514   15400852.02047
  12014814.41944                  23583267.0944   23583261.4344   19098984.10546
  14897405.27244                  23986591.3674                   23986589.0864
  22892917.16847                  17853824.68644  24318322.5084   24318320.3594
 -22957315.89548 -17872180.71246  21144069.1644                   21144065.1724
 -20356718.27346 -15842228.71244  23036785.3524                   23036783.2234
 -15737175.40248 -12251356.72946  21379843.0394                   21379839.4384
 11  9 30  2 48  0.0000000  0  8G15G29G22G09G06G21G26G18
 -24876103.78948 -19363407.23646  20929289.6254                   20929286.7154
 -33787164.41048 -26308620.77446  21439038.3364   21439035.5904   15253908.07047
  11900312.67144                  23555305.2114   23555299.8634   18925711.70346
  14762387.91343                  23953619.1724                   23953616.2464
  22729565.71146                  17726537.87144  24287238.0314   24287235.1024
 -23097109.66448 -17981110.90646  21117467.4454                   21117463.0984
 -20342055.76246 -15830803.38444  23039575.6334                   23039573.1914
 -15843894.99248 -12334514.83246  21359535.1724                   21359531.3484
 11  9 30  2 48 30.0000000  0  8G15G29G22G09G06G21G26G18
 -24915277.28148 -19393932.03046  20921835.3914                   20921831.5824
 -33793959.70748 -26313915.82146  21437745.6334   21437742.5474   15107113.08247
  11785926.99144                  23527371.3754   23527365.1454   18752498.16447
  14627416.28243                  23920657.9384                   23920654.1884
  22566540.41446                  17599505.26544  24256215.3444   24256212.5354
 -23236721.94548 -18089899.68646  21090900.4844                   21090895.9734
 -20327050.99647 -15819111.42244  23042431.5314                   23042428.6764
 -15950444.18748 -12417540.16746  21339259.4384                   21339255.1804
 11  9 30  2 49  0.0000000  0  8G15G29G22G09G06G21G26G18
 -24953951.71148 -19424067.95546  20914475.8914                   20914472.6334
 -33800383.19948 -26318921.15346  21436523.0864   21436520.2234   14960467.51247
  11671657.77644                  23499465.0634   23499459.5594   18579346.89847
  14492493.25243                  23887707.3834                   23887706.0394
  22403843.95346                  17472728.83944  24225255.8754   24225252.7384
 -23376151.02748 -18198545.71946  21064367.5394                   21064363.1294
 -20311706.43446 -15807154.59644  23045351.2344                   23045348.5944
 -16056823.33248 -12500432.98946  21319016.1804                   21319012.2464
 11  9 30  2 49 30.0000000  0  8G15G29G22G09G06G21G26G18
 -24992129.93748 -19453817.21546  20907210.8134                   20907207.0944
 -33806437.48447 -26323638.79346  21435370.7114   21435367.6214   14813970.53547
  11557504.35644                  23471587.4454   23471581.8094   18406260.86346
  14357621.07843                  23854770.4844                   23854767.4344
  22241477.93446                  17346209.95743  24194357.7734   24194355.5084
 -23515395.15248 -18307047.62546  21037870.3754                   21037865.8834
 -20296026.32847 -15794936.36244  23048334.5784                   23048333.4454
 -16163033.31648 -12583194.00346  21298805.0004                   21298801.0864
 11  9 30  2 50  0.0000000  0  8G15G29G22G09G06G21G26G18
 -25029811.28548 -19483179.30546  20900040.3284                   20900036.4844
 -33812122.73448 -26328068.85846  21434288.9614   21434286.0354   14667624.05147
  11443468.15944                  23443738.3914   23443732.9344   18233245.99647
  14222804.28943                  23821846.8204                   23821844.3444
  22079446.90646                  17219952.08443  24163523.9454   24163521.4924
 -23654449.86348 -18415401.93746  21011409.0234                   21011404.5594
 -20280011.29747 -15782457.12044  23051382.1094                   23051380.4144
 -16269072.48048 -12665821.91146  21278626.2504                   21278622.5594
 11  9 30  2 50 30.0000000  0  8G15G29G22G09G06G21G26G18
 -25067001.21548 -19512158.47146  20892962.9304                   20892959.6954
 -33817445.00047 -26332216.09746  21433275.9844   21433273.1724   14521424.51247
  11329546.50344                  23415918.1024   23415911.4064   18060302.35547
  14088043.01643                  23788937.1334                   23788933.3834
  21917749.84046                  17093954.45143  24132754.4384   24132751.2734
 -23793316.35548 -18523609.58146  20984983.5474                   20984979.0394
 -20263668.03547 -15769722.14144  23054492.6484                   23054490.2974
 -16374945.25848 -12748320.16646  21258479.6484                   21258475.7304
 11  9 30  2 51  0.0000000  0  8G15G29G22G09G06G21G26G18
 -25103700.86348 -19540755.60446  20885979.3914                   20885975.7074
 -33822405.88747 -26336081.73446  21432332.0004   21432329.0394   14375372.54347
  11215739.80544                  23388124.7974   23388119.3444   17887434.12547
  13953340.52444                  23756040.9924                   23756037.7734
  21756389.70746                  16968219.34743  24102048.3674   24102044.9264
 -23931991.80548 -18631668.36846  20958594.3754                   20958590.0704
 -20246998.84447 -15756733.16243  23057664.2194                   23057662.2194
 -16480651.13348 -12830688.36946  21238364.4774                   21238360.3324
 11  9 30  2 51 30.0000000  0  8G15G29G22G09G06G21G26G18
 -23564489.99648 -18341370.50546  21178881.3754                   21178878.1524
 -32251586.79748 -25112066.86746  21731249.4384   21731246.4064   15804893.60947
  12329652.39144                  23660153.3914   23660147.6524   19290071.62947
  15046304.80543                  24022954.5004   24022951.7384   23170794.96546
  18070353.35043                  24371200.6644                   24371197.5864
 -22495048.85548 -17511972.56246  21232035.4924                   21232031.4224
 -18654586.70746 -14515892.57643  23360690.2194                   23360689.1334
 -15010766.74648 -11685323.88646  21518074.2344                   21518070.3524
 11  9 30  2 52  0.0000000  0  8G15G29G22G09G06G21G26G18
 -23600214.61348 -18369207.87246  21172083.4534                   21172079.8164
 -32255831.77047 -25115374.66046  21730441.3594   21730438.9884   15659136.70747
  12216075.63344                  23632416.3834   23632410.9534   19117365.31347
  14911728.49344                  23990088.9694   23990086.0634   23010115.95347
  17945148.96743                  24340624.5554                   24340621.1134
 -22633335.25848 -17619728.19546  21205720.6414                   21205716.1914
 -18637274.61746 -14502402.63744  23363985.4304                   23363983.3014
 -15116140.57048 -11767433.34446  21498022.0314                   21498018.1684
 11  9 30  2 52 30.0000000  0  8G15G29G22G09G06G21G26G18
 -23635454.25448 -18396667.32446  21165377.5554                   21165373.7894
 -32259722.14147 -25118406.13946  21729701.0314   21729698.2854   15513527.29347
  12102613.81344                  23604708.1564   23604703.1844   18944745.27046
  14777219.40844                  23957239.9924   23957237.9264   22849781.19947
  17820212.79643                  24310114.1954                   24310111.0084
 -22771423.53948 -17727329.44246  21179443.3834                   21179438.8484
 -18619645.78547 -14488665.93843  23367339.5164                   23367337.4844
 -15221349.01648 -11849413.94246  21478001.4774                   21477997.7464
 11  9 30  2 53  0.0000000  0  8G15G29G22G09G06G21G26G18
 -23670212.32048 -18423751.52746  21158763.2664                   21158760.0864
 -32263261.73447 -25121164.27646  21729027.2734   21729024.7304   15368063.89147
  11989265.76944                  23577027.3524   23577021.9304   18772213.48847
  14642779.10744                  23924408.7504   23924406.5314   22689791.34447
  17695545.38443                  24279668.8914                   24279665.6764
 -22909313.14548 -17834775.88446  21153203.6254                   21153199.7304
 -18601704.53546 -14474685.77943  23370753.8914                   23370751.1604
 -15326394.18748 -11931267.31546  21458012.3364                   21458008.3284
 11  9 30  2 53 30.0000000  0  8G15G29G22G09G06G21G26G18
 -23704489.71148 -18450461.17746  21152240.2584                   21152237.1414
 -32266452.05948 -25123650.24646  21728420.3594   21728417.3984   15222747.23047
  11876032.05744                  23549374.8284   23549368.1994   18599774.48846
  14508411.06343                  23891594.5164   23891591.8954   22530149.95747
  17571149.56144                  24249290.1724                   24249287.6024
 -23047001.05548 -17942065.16146  21127002.8054                   21126998.4964
 -18583452.92647 -14460463.75744  23374226.3754                   23374224.9024
 -15431275.64848 -12012993.10646  21438054.0314                   21438050.1764
 11  9 30  2 54  0.0000000  0  8G15G29G22G09G06G21G26G18
 -23738290.84048 -18476799.71646  21145808.1024                   21145804.8134
 -32269297.82447 -25125867.74446  21727879.2114   21727876.5004   15077575.19147
  11762911.01544                  23521749.1564   23521743.8954   18427429.74646
  14374116.49144                  23858798.7664   23858795.7704   22370857.05547
  17447025.24843                  24218977.7424                   24218975.1294
 -23184486.85548 -18049196.95046  21100839.9144                   21100835.7194
 -18564896.21546 -14446004.03143  23377757.7814                   23377755.7814
 -15535996.11748 -12094593.47046  21418126.2814                   21418122.1604
 11  9 30  2 54 30.0000000  0  8G15G29G22G09G06G21G26G18
 -23771613.84848 -18502765.70146  21139467.4534                   21139463.6374
 -32271797.91848 -25127815.87946  21727403.3134   21727400.6994   14932550.68847
  11649904.97644                  23494152.1174   23494146.9304   18255186.03547
  14239900.63644                  23826021.6414   23826019.2344   22211918.31347
  17323176.90243                  24188732.5554                   24188729.4534
 -23321764.59048 -18156166.59546  21074716.8284                   21074712.4774
 -18546034.26247 -14431306.44343  23381348.1174                   23381345.4534
 -15640552.68748 -12176066.11946  21398229.8754                   21398225.2584
 11  9 30  2 55  0.0000000  0  8G15G29G22G09G06G21G26G18
 -23804459.46147 -18528359.68446  21133216.9144                   21133213.4614
 -32273953.67247 -25129495.68646  21726993.1094   21726990.0044   14787675.14847
  11537014.99544                  23466582.9534   23466578.0354   18083048.53547
  14105767.54644                  23793265.7424   23793262.1724   22053337.15647
  17199607.22343                  24158555.3444                   24158552.4384
 -23458831.41848 -18262971.92046  21048633.8594                   21048629.5824
 -18526868.71547 -14416372.25643  23384994.7194                   23384992.1094
 -15744944.64148 -12257410.48246  21378364.7344                   21378360.5394
 11  9 30  2 55 30.0000000  0  8G15G29G22G09G06G21G26G18
 -23836832.19948 -18553585.19746  21127056.6094                   21127053.3754
 -32275769.62148 -25130910.71746  21726647.2114   21726644.3794   14642946.01647
  11424239.06544                  23439041.7344   23439036.4734   17911018.51647
  13971718.21344                  23760528.9064   23760525.8754   21895113.77346
  17076316.34944                  24128446.2584                   24128444.0634
 -23595687.14148 -18369612.73846  21022591.0784                   21022586.5314
 -18507405.02047 -14401205.77943  23388698.1254                   23388695.5394
 -15849174.03148 -12338628.17546  21358530.5944                   21358526.0744
 11  9 30  2 56  0.0000000  0  8G15G29G22G09G06G21G26G18
 -23868735.43748 -18578444.86346  21120985.5164                   21120982.3204
 -32277249.48448 -25132063.88446  21726365.6024   21726363.0394   14498361.97747
  11311576.23744                  23411528.7664   23411523.2974   17739098.30947
  13837754.40444                  23727813.6564   23727811.2894   21737249.14847
  16953304.97444                  24098405.7274                   24098403.2624
 -23732330.81248 -18476088.32546  20996588.6484                   20996584.3794
 -18487647.39847 -14385810.21043  23392457.4534                   23392454.9454
 -15953243.76248 -12419721.46146  21338726.5864                   21338722.7274
 11  9 30  2 56 30.0000000  0  8G15G29G22G09G06G21G26G18
 -23900170.92648 -18602940.05246  21115003.4454                   21114999.9064
 -32278395.93447 -25132957.22946  21726147.7734   21726145.1994   14353922.69547
  11199026.17544                  23384042.3054   23384037.1334   17567291.35547
  13703878.87744                  23695119.5864   23695117.6844   21579745.30946
  16830574.76743                  24068433.2274                   24068431.1484
 -23868760.35548 -18582397.05046  20970627.0474                   20970622.4414
 -18467599.12547 -14370188.17243  23396272.8444                   23396270.6374
 -16057154.22348 -12500690.64146  21318953.0704                   21318948.8014
 11  9 30  2 57  0.0000000  0  8G15G29G22G09G06G21G26G18
 -23931141.03148 -18627072.59746  21109109.8984                   21109106.5514
 -32279211.56648 -25133592.80946  21725992.2424   21725989.8554   14209627.93047
  11086588.74744                  23356583.8204   23356578.4144   17395600.83647
  13570094.07744                  23662448.1564   23662445.7154   21422604.30546
  16708127.31344                  24038530.6484                   24038527.6484
 -24004973.40648 -18688537.07646  20944706.4534                   20944701.7504
 -18447263.53946 -14354342.28943  23400142.4774                   23400139.7384
 -16160906.02748 -12581536.19546  21299209.6804                   21299205.5204
 11  9 30  2 57 30.0000000  0  8G15G29G22G09G06G21G26G18
 -23961647.83248 -18650844.13346  21103304.7734                   21103301.2934
 -32279698.44947 -25133972.20746  21725899.5554   21725897.1334   14065477.93847
  10974264.10944                  23329153.3444   23329147.4304   17224030.89147
  13436403.23744                  23629800.0234   23629796.4804   21265828.84446
  16585964.68744                  24008696.6254                   24008695.2034
 -24140967.32448 -18794506.35946  20918828.0314                   20918823.1914
 -18426643.32046 -14338274.63043  23404066.2424                   23404064.4064
 -16264499.18048 -12662258.12346  21279496.7584                   21279492.4184
 11  9 30  2 58  0.0000000  0  8G15G29G22G09G06G21G26G18
 -23991693.23848 -18674256.13446  21097587.5864                   21097583.8134
 -32279859.78547 -25134097.95946  21725868.8134   21725866.5824   13921471.80147
  10862051.58144                  23301749.6564   23301744.6454   17052584.43047
  13302808.60544                  23597174.6414   23597171.5824   21109420.30946
  16464087.98544                  23978933.3054                   23978931.4804
 -24276740.53148 -18900303.66046  20892991.1094                   20892986.3914
 -18405742.01246 -14321987.88643  23408043.6884                   23408041.5664
 -16367935.18748 -12742857.59646  21259813.3834                   21259809.0044
 11  9 30  2 58 30.0000000  0  8G15G29G22G09G06G21G26G18
 -24021278.79348 -18697309.82446  21091957.3834                   21091954.0314
 -32279697.57047 -25133971.55546  21725899.6644   21725897.1564   13777609.96947
  10749951.49445                  23274373.7504   23274368.0704   16881265.71947
  13169313.52244                  23564573.9844   23564571.1094   20953381.88746
  16342499.64844                  23949240.4774                   23949238.3284
 -24412290.09048 -19005926.68946  20867196.8444                   20867192.0474
 -18384561.96546 -14305483.96843  23412074.0784                   23412072.1684
 -16471213.81648 -12823334.45046  21240160.2344                   21240155.8834
 11  9 30  2 59  0.0000000  0  8G15G29G22G09G06G21G26G18
 -24050407.02348 -18720007.14446  21086414.5084                   21086411.0744
 -32279214.25447 -25133594.96146  21725992.0084   21725989.1684   13633892.17647
  10637963.63845                  23247025.2974   23247020.0044   16710078.28147
  13035920.76244                  23531997.3754   23531994.5124   20797715.34047
  16221201.10444                  23919618.4614                   23919616.7814
 -24547614.10248 -19111373.95146  20841445.5784                   20841441.0984
 -18363106.79746 -14288765.75143  23416156.9614                   23416155.4494
 -16574335.60248 -12903689.07946  21220536.7584                   21220532.3634
 11  9 30  2 59 30.0000000  0  8G15G29G22G09G06G21G26G18
 -24079080.87148 -18742350.38846  21080957.9454                   21080954.6954
 -32278413.40647 -25132970.93546  21726144.3754   21726141.7154   13490317.35947
  10526087.21745                  23219704.2424   23219699.0554   16539024.87947
  12902632.41644                  23499446.4774   23499444.4264   20642421.98047
  16100193.30843                  23890066.6094                   23890064.6604
 -24682710.92648 -19216644.20046  20815737.5234                   20815733.2074
 -18341380.26246 -14271836.00243  23420292.0554                   23420289.3054
 -16677301.70348 -12983922.39946  21200943.1484                   21200938.3134
 11  9 30  3  0  0.0000000  0  8G15G29G22G09G06G21G26G18
 -24107302.54347 -18764341.31946  21075588.2894                   21075584.3984
 -32277297.12547 -25132101.13046  21726356.6414   21726354.1454   13346885.52347
  10414322.16745                  23192409.8364   23192404.5044   16368109.15247
  12769451.37544                  23466922.9454   23466919.6954   20487504.14846
  15979478.16843                  23860586.4924                   23860583.5984
 -24817578.40648 -19321735.73846  20790073.0864                   20790068.2384
 -18319385.07846 -14254696.94643  23424477.2584                   23424474.6454
 -16780113.09048 -13064035.15446  21181378.8914                   21181374.3134
 11  9 30  3  0 30.0000000  0  8G15G29G22G09G06G21G26G18
 -22559652.68747 -17558380.39346  21370095.6644                   21370092.5594
 -30700448.33647 -23903387.79946  22026421.2974                   22026418.6844
  14779021.31647                  11530272.16745  23464936.0784   23464930.6524
  17772760.52747  13863984.91644  23734219.6174   23734216.4574   21908389.50047
  17086661.56344                  24130972.2584                   24130969.0314
 -23376789.30548 -18199042.93146  21064246.2194                   21064241.2894
 -16721705.18746 -13009751.57943  23728505.2664                   23728503.8754
 -15307346.59448 -11916424.88246  21461636.7344                   21461632.3164
 11  9 30  3  1  0.0000000  0  8G15G29G22G09G06G21G26G18
 -22586975.46147 -17579670.86346  21364896.5704                   21364893.3754
 -30698709.25047 -23902032.67546  22026751.5554                   22026749.2974
  14635874.87547                  11418729.51145  23437696.1254   23437690.5514
  17602131.09847  13731026.96744  23701749.5704   23701746.4384   21754229.58247
  16966537.00443                  24101636.2584                   24101633.6804
 -23511190.43048 -18303771.06946  21038670.5234                   21038665.8054
 -16699182.08646 -12992201.14344  23732791.7664                   23732789.5044
 -15409849.39548 -11996297.19346  21442131.0234                   21442126.5984
 11  9 30  3  1 30.0000000  0  8G15G29G22G09G06G21G26G18
 -22613853.46147 -17600614.75146  21359781.9304                   21359778.7734
 -30696663.78947 -23900438.82846  22027141.5394                   22027138.8674
  14492869.44947                  11307296.73745  23410482.6254   23410477.9384
  17431648.70347  13598183.54344  23669307.7424   23669304.7934   21600450.27047
  16846708.98943                  24072373.2894                   24072369.6604
 -23645356.52348 -18408316.07546  21013139.6804                   21013134.7304
 -16676400.90647 -12974449.62744  23737126.8674                   23737124.2774
 -15512199.97348 -12076050.87746  21422654.3284                   21422650.1214
 11  9 30  3  2  0.0000000  0  8G15G29G22G09G06G21G26G18
 -22640287.52748 -17621212.73346  21354751.6414                   21354748.2624
 -30694313.31647 -23898607.30746  22027588.6564                   22027586.1094
  14350006.25047                  11195974.82845  23383296.9694   23383291.9264
  17261318.44947  13465458.73644  23636894.7734   23636891.9144   21447055.44947
  16727180.60344                  24043183.3284                   24043180.6764
 -23779283.85948 -18512675.02346  20987654.0004                   20987648.9304
 -16653363.50447 -12956498.41743  23741510.9534                   23741508.2504
 -15614397.59048 -12155685.38546  21403206.9064                   21403202.5824
 11  9 30  3  2 30.0000000  0  9G15G29G22G09G06G21G14G26G18
 -22666282.48047 -17641468.54446  21349804.8444                   21349801.5904
 -30691662.96947 -23896542.11346  22028092.8134                   22028090.4884
  14207282.21147                  11084761.34145  23356137.8754   23356132.4344
  17091141.21147  13332853.12844  23604511.2664   23604508.4654   21294043.89547
  16607950.84744                  24014066.3054                   24014062.6054
 -23912973.04748 -18616848.40546  20962213.9064                   20962209.0234
  31225058.94156  24348343.07452  24649918.2344                   24649913.0824
 -16630075.71947 -12938352.14443  23745942.7424                   23745939.7584
 -15716445.87148 -12235203.51846  21383787.7664                   21383783.2934
 11  9 30  3  3  0.0000000  0  9G15G29G22G09G06G21G14G26G18
 -22691846.33647 -17661388.43546  21344940.4144                   21344936.6024
 -30688721.53147 -23894250.10346  22028652.7194                   22028649.9184
  14064691.49247                  10973651.69545  23329003.3594   23328998.5864
  16921114.73447  13200364.97044  23572156.0234   23572153.5944   21141411.94947
  16489016.87843                  23985021.5474                   23985018.0554
 -24046427.60248 -18720838.96346  20936818.2584                   20936813.2704
  31031120.10946  24197222.06843  24613011.8284                   24613008.6484
 -16606546.46547 -12920017.68043  23750420.2274                   23750417.0554
 -15818351.02748 -12314610.13146  21364395.5164                   21364391.0084
 11  9 30  3  3 30.0000000  0  9G15G29G22G09G06G21G14G26G18
 -22716982.76648 -17680975.25746  21340157.3364                   21340153.4964
 -30685492.71547 -23891734.16546  22029266.7814                   22029264.4264
  13922232.45747                  10862644.69045  23301894.1954   23301888.9454
  16751241.02747  13067995.88744  23539829.9144   23539827.7624   20989160.44147
  16370379.38444                  23956048.3364                   23956046.2034
 -24179646.59048 -18824645.96346  20911467.7974                   20911462.7384
  30837274.46546  24046173.70243  24576124.7344                   24576121.2774
 -16582780.13747 -12901498.44943  23754942.8594                   23754940.1764
 -15920114.97748 -12393906.70446  21345030.6804                   21345026.2344
 11  9 30  3  4  0.0000000  0  9G15G29G22G09G06G21G14G26G18
 -22741694.61348 -17700231.25246  21335454.7274                   21335451.3954
 -30681979.86347 -23888996.88246  22029935.9064                   22029932.8484
  13779903.68847                  10751739.17245  23274810.3364   23274804.8954
  16581523.07447  12935748.17344  23507534.2424   23507531.7424   20837290.90247
  16252039.50643                  23927148.2344                   23927145.9884
 -24312628.44948 -18928268.17746  20886161.7274                   20886157.1844
  30643523.61746  23895199.14843  24539254.1414                   24539251.2664
 -16558780.43047 -12882797.41943  23759509.0784                   23759507.0354
 -16021738.37147 -12473093.74646  21325692.2814                   21325688.0784
 11  9 30  3  4 30.0000000  0  9G15G29G22G09G06G21G14G26G18
 -22765982.27048 -17719156.69146  21330832.5554                   21330829.2034
 -30678183.82047 -23886038.93646  22030658.1884                   22030655.5204
  13637707.19947                  10640936.73545  23247751.2424   23247745.5164
  16411966.39147  12803626.08444  23475268.7034   23475266.3364   20685807.02046
  16134000.14344                  23898322.1954                   23898320.0354
 -24445369.04348 -19031702.39846  20860902.0394                   20860897.4884
  30449872.05546  23744301.91643  24502403.4614                   24502401.1954
 -16534548.65246 -12863915.53743  23764120.3914                   23764118.5474
 -16123220.52748 -12552170.75246  21306381.2424                   21306376.6254
 11  9 30  3  5  0.0000000  0  9G15G29G22G09G06G21G14G26G18
 -22789849.17248 -17737754.27346  21326290.7734                   21326287.8674
 -30674108.27047 -23882863.19246  22031433.8594                   22031431.1914
  13495641.81347                  10530236.47345  23220716.7194   23220711.1604
  16242573.78547  12671631.86144  23443033.6804   23443031.5474   20534709.72746
  16016262.01544                  23869569.5164                   23869567.1724
 -24577867.17248 -19134947.69946  20835688.6644                   20835684.0824
  30256320.87546  23593482.94243  24465572.6094                   24465569.5314
 -16510088.95346 -12844856.07343  23768775.0704                   23768773.0514
 -16224562.83248 -12631138.77146  21287096.0944                   21287091.7424
 11  9 30  3  5 30.0000000  0  9G15G29G22G09G06G21G14G26G18
 -22813296.07848 -17756024.59746  21321829.1024                   21321825.8834
 -30669754.49247 -23879470.67546  22032262.2974                   22032259.8484
  13353708.61747                  10419639.21445  23193708.1094   23193702.3984
  16073350.09047  12539769.26644  23410831.6804   23410829.0124   20384002.49246
  15898827.79844                  23840890.5944                   23840887.9844
 -24710118.62548 -19238000.77246  20810521.6024                   20810517.2934
  30062873.89846  23442745.13843  24428760.6724                   24428756.8754
 -16485402.80946 -12825620.19043  23773472.4064                   23773471.2074
 -16325764.59848 -12709997.28446  21267837.9924                   21267833.5394
 11  9 30  3  6  0.0000000  0  9G15G29G22G09G06G21G14G26G18
 -22836322.52348 -17773967.27346  21317446.9534                   21317444.0084
 -30665122.40647 -23875861.26446  22033143.8914                   22033141.2384
  13211909.56647                  10309146.47845  23166724.3364   23166718.9454
  15904301.45347  12408043.08044  23378662.8834   23378660.2664   20233689.94546
  15781701.16044                  23812286.8364                   23812285.2114
 -24842119.59847 -19340858.66446  20785402.8984                   20785398.4654
  29869536.12546  23292092.41543  24391969.1954                   24391965.9304
 -16460490.91446 -12806208.36243  23778213.6024                   23778211.1454
 -16426823.52047 -12788744.46946  21248607.2344                   21248602.8754
 11  9 30  3  6 30.0000000  0  9G15G29G22G09G06G21G14G26G18
 -22858930.44548 -17791583.84946  21313145.1174                   21313141.7194
 -30660213.97747 -23872036.53245  22034077.5314                   22034075.1724
  13070245.17647                  10198758.67145  23139766.2814   23139761.5204
  15735432.13747  12276456.61444  23346528.2504   23346524.9454   20083774.48047
  15664883.96544                  23783759.0944                   23783756.2234
 -24973867.07847 -19443519.03446  20760331.7584                   20760327.8444
  29676310.69946  23141527.31043  24355200.6644                   24355196.1094
 -16435355.59847 -12786622.42643  23782996.8054                   23782994.1764
 -16527739.60947 -12867380.37646  21229403.3754                   21229399.1764
 11  9 30  3  7  0.0000000  0  9G15G29G22G09G06G21G14G26G18
 -22881123.24648 -17808876.93946  21308921.9774                   21308918.2584
 -30655033.21147 -23867999.56945  22035063.2974                   22035060.7384
  12928714.16047                  10088474.78545  23112833.7584   23112828.6994
  15566744.40247  12145011.61744  23314427.3914   23314424.9344   19934257.09446
  15548376.94644                  23755306.8984                   23755303.5744
 -25105359.56248 -19545980.71246  20735310.1334                   20735305.6174
  29483198.63346  22991050.39142  24318451.4304                   24318446.5124
 -16410001.35547 -12766865.91443  23787821.5004                   23787819.0594
 -16628514.88348 -12945906.56046  21210226.7974                   21210222.6724
 11  9 30  3  7 30.0000000  0  9G15G29G22G09G06G21G14G26G18
 -22902904.53148 -17825849.37246  21304777.1484                   21304773.7974
 -30649584.29347 -23863753.68645  22036100.3914                   22036097.7734
  12787314.73847   9978293.44945                  23085926.7194   23085921.1954
  15398240.34847  12013709.80644  23282362.6414   23282360.6804   19785138.16847
  15432180.39144                  23726930.4694                   23726927.2734
 -25236596.08248 -19648242.92346  20710336.5944                   20710331.9614
  29290201.35545  22840663.08642  24281725.3054                   24281720.2114
 -16384432.34446 -12746942.03443  23792687.3284                   23792684.6644
 -16729151.23448 -13024324.47046  21191076.0474                   21191072.0664
 11  9 30  3  8  0.0000000  0  9G15G29G22G09G06G21G14G26G18
 -22924275.31648 -17842501.92446  21300710.2114                   21300707.2344
 -30643868.62947 -23859299.94645  22037187.7274                   22037185.3834
  12646047.92647   9868215.43445                  23059044.4614   23059039.1914
  15229925.05947  11882555.05544  23250333.2664   23250331.2424   19636420.95346
  15316296.89044                  23698630.4384                   23698628.1524
 -25367573.00048 -19750302.85946  20685412.4454                   20685408.2114
  29097322.43446  22690367.89142  24245022.2114                   24245017.0904
 -16358650.42647 -12726852.26144  23797593.4844                   23797590.9924
 -16829647.59448 -13102633.31446  21171952.2734                   21171947.6564
 11  9 30  3  8 30.0000000  0  9G15G29G22G09G06G21G14G26G18
 -22945235.40248 -17858834.46946  21296721.7814                   21296718.2114
 -30637886.14547 -23854638.28445  22038326.7504                   22038323.7934
  12504916.13347   9758242.62045                  23032188.2584   23032182.7854
  15061804.51247  11751552.06744  23218340.7814   23218338.4774   19488110.07046
  15200730.00044                  23670407.7424                   23670405.5634
 -25498285.69548 -19852156.89546  20660538.6644                   20660534.1294
  28904566.67246  22540168.61742  24208341.8134                   24208336.6684
 -16332655.90646 -12706596.79543  23802539.6024                   23802537.8714
 -16930001.97748 -13180831.51646  21152855.3444                   21152850.8954
 11  9 30  3  9  0.0000000  0  9G15G29G22G09G06G21G14G26G18
 -22965789.09448 -17874850.33046  21292810.3914                   21292806.9144
 -30631641.53947 -23849772.37045  22039514.6414                   22039512.2584
  12363916.94547   9648373.17145                  23005356.6334   23005350.7504
  14893880.35547  11620702.07944  23186386.2584   23186383.2034   19340205.43446
  15085479.65944                  23642262.7274                   23642260.1564
 -25628734.00848 -19953804.92446  20635715.1174                   20635710.6414
  28711934.35246  22390065.59842  24171684.4064                   24171680.2974
 -16306453.85946 -12686179.72643  23807525.7894                   23807523.6644
 -17030216.84448 -13258921.01946  21133785.2424                   21133781.0554
 11  9 30  3  9 30.0000000  0 10G15G29G22G09G06G21G14G03G26G18
 -21410519.54348 -16662951.98346  21588768.7274                   21588765.0274
 -29049719.13747 -22617105.56646  22340544.6174                   22340542.4304
  13798473.29747  10766209.31345                  23278342.8284   23278337.6954
  16301580.39147  12717611.22344  23454262.6954   23454259.1804   20768132.35546
  16198150.02044                  23913987.6254                   23913985.3014
 -24183491.91048 -18827642.25646  20910735.5084                   20910730.9654
  30094853.19146                  23467664.74743                  24434845.5784
  24434842.3364   32856124.53556  25615941.60353  24278092.1884   24278089.9224
 -14704629.73046 -11438005.14743  24112342.9144                   24112340.7894
 -15554870.94148 -12109300.83346  21414534.2344                   21414529.5864
 11  9 30  3 10  0.0000000  0 10G15G29G22G09G06G21G14G03G26G18
 -21430277.26648 -16678347.61046  21585008.4774                   21585005.5594
 -29042968.16047 -22611845.08645  22341829.2114                   22341826.7274
  13657728.62947  10656538.15745                  23251560.6024   23251555.3014
  16134050.05547  12587068.13144  23422382.9144   23422379.6994   20621035.82846
  16083529.37244                  23885996.3284                   23885993.9344
 -24313414.01648 -18928880.24746  20886012.1024                   20886007.9414
  29902465.62946                  23317752.39443                  24398235.5944
  24398232.0474   32700704.63746  25494835.25043  24248517.0554   24248514.7304
 -14678031.71946 -11417279.42643  24117403.9454                   24117401.3874
 -15654818.66448 -12187182.15746  21395514.9694                   21395510.6564
 11  9 30  3 10 30.0000000  0 10G15G29G22G09G06G21G14G03G26G18
 -21449649.12548 -16693442.56746  21581322.7504                   21581319.2894
 -29035976.57447 -22606397.11245  22343159.9534                   22343157.0044
  13517102.31347  10546959.20345                  23224800.2114   23224794.5004
  15966713.36347  12456675.96044  23390539.4844   23390536.5744   20474337.50047
  15969219.00944                  23858081.1094                   23858078.5004
 -24443078.81648 -19029917.75646  20861337.8054                   20861333.3554
  29710195.30947                  23167931.41743                  24361647.5234
  24361644.7384   32545696.09446  25374049.49643  24219019.7034   24219016.0274
 -14651249.09446 -11396409.95443  24122500.6094                   24122497.9344
 -15754642.02348 -12264966.58946  21376519.1254                   21376514.5704
 11  9 30  3 11  0.0000000  0 10G15G29G22G09G06G21G14G03G26G18
 -21468633.04348 -16708235.23146  21577709.9534                   21577706.8444
 -29028743.00447 -22600760.56845  22344536.3444                   22344533.6094
  13376598.44947  10437475.71645                  23198063.4774   23198056.8284
  15799578.43447  12326440.95244  23358734.2664   23358731.2034   20328043.78547
  15855223.94444                  23830242.3674                   23830239.7974
 -24572478.57048 -19130748.72546  20836714.0004                   20836709.3834
  29518048.85546                  23018207.00443                  24325083.0004
  24325079.3954   32391105.97346  25253589.65343  24189601.8834   24189599.2034
 -14624280.12546 -11375395.13243  24127633.1334                   24127630.6214
 -15854337.17648 -12342651.10546  21357547.6804                   21357543.1604
 11  9 30  3 11 30.0000000  0 10G15G29G22G09G06G21G14G03G26G18
 -21487230.97748 -16722727.11846  21574170.5704                   21574167.0704
 -29021269.67247 -22594937.19845  22345958.3054                   22345955.6804
  13236217.00847  10328087.58145                  23171349.8134   23171343.6914
  15632649.05547  12196366.14144  23326969.2424   23326966.7154   20182156.56346
  15741545.62844                  23802480.6644                   23802477.9774
 -24701610.99648 -19231371.38646  20812141.0864                   20812136.0824
  29326029.12546                  22868581.30643                  24288542.4844
  24288539.3634   32236936.46546  25133457.72143  24160264.5394   24160261.0944
 -14597127.69946 -11354237.40743  24132799.5474                   24132797.1914
 -15953904.27048 -12420235.84446  21338600.8834                   21338596.3484
 11  9 30  3 12  0.0000000  0 10G15G29G22G09G06G21G14G03G26G18
 -21505447.25448 -16736921.62546  21570704.3984                   21570700.8674
 -29013560.88347 -22588930.38845  22347424.8834                   22347423.3554
  13095955.93447  10218793.26745                  23144658.6174   23144653.0204
  15465927.10547  12066452.96644  23295242.8524   23295239.9774   20036676.25846
  15628184.36344                  23774797.1254                   23774794.6724
 -24830476.43048 -19331786.01146  20787618.7034                   20787613.8014
  29134136.79746                  22719054.91443                  24252027.2504
  24252023.4454   32083188.09846  25013653.80343  24131007.1024   24131004.1454
 -14569796.70746 -11332940.57743  24138001.2894                   24137997.3554
 -16053345.80148 -12497722.75346  21319677.7734                   21319673.0514
 11  9 30  3 12 30.0000000  0 10G15G29G22G09G06G21G14G03G26G18
 -21523278.44148 -16750816.05446  21567311.1644                   21567307.4104
 -29005613.87547 -22582737.92845  22348937.4384                   22348935.3444
  12955820.73447  10109597.04445                  23117992.1094   23117985.8834
  15299422.19947  11936708.92744  23263557.9534   23263556.0004   19891610.32447
  15515145.98944                  23747191.5474                   23747188.9494
 -24959066.08648 -19431985.74546  20763149.0084                   20763144.0354
  28942379.92246                  22569634.08143                  24215536.3754
  24215533.7034   31929868.95346  24894184.30643  24101830.9694   24101828.7194
 -14542284.03146 -11311502.13043  24143236.1644                   24143233.2154
 -16152656.16448 -12575107.43946  21300779.7274                   21300774.8914
 11  9 30  3 13  0.0000000  0 10G15G29G22G09G06G21G14G03G26G18
 -21540728.02048 -16764413.12846  21563990.4844                   21563987.1254
 -28997432.40647 -22576362.77745  22350494.2894                   22350492.1954
  12815809.70747  10000497.57245                  23091348.6484   23091343.4844
  15133136.22747  11807135.46444  23231914.8984   23231912.2974   19746959.27747
  15402430.92244                  23719665.6334                   23719662.3874
 -25087378.99648 -19531969.82446  20738731.4694                   20738727.1804
  28750759.66446                  22420319.68943                  24179071.7584
  24179068.5664   31776979.33646  24775049.56543  24072737.5944   24072734.3094
 -14514594.03946 -11289925.59743  24148505.3914                   24148503.0204
 -16251837.32848 -12652391.45746  21281905.9614                   21281901.7384
 11  9 30  3 13 30.0000000  0 10G15G29G22G09G06G21G14G03G26G18
 -21557800.87948 -16777716.66046  21560741.6564                   21560737.9614
 -28989021.59447 -22569808.92145  22352095.2504                   22352092.4804
  12675920.47347   9891492.98445                  23064729.3364   23064723.3594
  14967070.54747  11677733.65244  23200313.3204   23200310.4614   19602722.45347
  15290038.63244                  23692218.1334                   23692215.5204
 -25215415.49248 -19631738.52446  20714366.6334                   20714362.1914
  28559275.74646                  22271111.56143                  24142633.7894
  24142630.5164   31624519.03146  24656249.39143  24043724.9064   24043722.2774
 -14486732.33646 -11268215.17343  24153807.5084                   24153805.1954
 -16350892.19148 -12729577.06246  21263056.2194                   21263051.7114
 11  9 30  3 14  0.0000000  0 10G15G29G22G09G06G21G14G03G26G18
 -21574498.03948 -16790727.43846  21557564.6024                   21557560.8984
 -28980383.03947 -22563077.59145  22353738.8674                   22353736.3324
  12536153.59047   9782583.75545                  23038132.3984   23038126.5164
  14801229.95347  11548507.19744  23168755.1024   23168752.2544   19458902.93047
  15177971.49044                  23664849.8204                   23664847.2584
 -25343171.70747 -19731288.81246  20690055.5004                   20690050.9104
  28367932.09046                  22122012.67743                  24106222.0004
  24106218.6524   31472491.69946  24537786.50343  24014795.2664   24014792.9844
 -14458700.35546 -11246372.12743  24159141.5944                   24159139.1454
 -16449819.92647 -12806663.60946  21244231.1094                   21244226.7624
 11  9 30  3 14 30.0000000  0 10G15G29G22G09G06G21G14G03G26G18
 -21590820.03548 -16803445.88846  21554458.4534                   21554454.8984
 -28971517.46547 -22556169.36945  22355426.2814                   22355423.6334
  12396510.88347   9673771.27345                  23011558.6564   23011552.7384
  14635620.09847  11419460.60844  23137240.8364   23137237.4654   19315504.36347
  15066232.38644                  23637561.7504                   23637558.9144
 -25470643.78148 -19830617.69146  20665798.5944                   20665794.2154
  28176732.85546                  21973026.29343                  24069838.5084
  24069834.6724   31320901.37946  24419664.30043  23985949.1954   23985946.0204
 -14430499.27746 -11224397.28943  24164508.6564                   24164505.9184
 -16548619.16448 -12883650.01946  21225430.2734                   21225425.9694
 11  9 30  3 15  0.0000000  0 10G15G29G22G09G06G21G14G03G26G18
 -21606770.69948 -16815874.98346  21551423.2274                   21551419.4804
 -28962428.91047 -22549087.39645  22357155.8834                   22357153.4224
  12256990.82847   9565054.36845                  22985009.1484   22985003.5594
  14470243.30147  11290595.58344  23105770.5394   23105767.8914   19172527.36747
  14954821.73744                  23610354.4144                   23610351.8284
 -25597830.71548 -19929724.39346  20641595.9224                   20641591.6604
  27985678.89546                  21824153.20643                  24033481.5234
  24033478.1644   31169748.33246  24301882.69743  23957185.2974   23957182.5554
 -14402133.43746 -11202294.04443  24169906.2734                   24169903.0944
 -16647291.68448 -12960537.68546  21206653.4064                   21206649.3094
 11  9 30  3 15 30.0000000  0 10G15G29G22G09G06G21G14G03G26G18
 -21622349.69948 -16828014.46746  21548458.8914                   21548455.7814
 -28953117.47747 -22541831.75445  22358928.0784                   22358925.3204
  12117595.43847   9456434.61645                  22958482.9454   22958477.8284
  14305105.91847  11161917.11844  23074345.9224   23074343.4024   19029976.00846
  14843742.78744                  23583227.6414                   23583224.9064
 -25724727.70748 -20028605.16246  20617447.9694                   20617443.7304
  27794775.45746                  21675397.24143                  23997154.4534
  23997150.3524   31019037.39846  24184445.60143  23928506.1254   23928502.8134
 -14373602.77046 -11180062.36043  24175335.0394                   24175332.3714
 -16745835.26248 -13037324.87946  21187901.0084                   21187897.0164
 11  9 30  3 16  0.0000000  0 10G15G29G22G09G06G21G14G03G26G18
 -21637560.18048 -16839866.80046  21545564.0784                   21545560.7774
 -28943586.35547 -22534404.91845  22360741.0004                   22360738.6804
  11978324.27347   9347911.66645                  22931980.3914   22931974.6024
  14140210.84047  11033427.46644  23042967.4144   23042964.4344   18887851.60547
  14732996.52444                  23556181.7894                   23556179.1954
 -25851332.87948 -20127258.54546  20593356.1414                   20593351.2114
  27604024.12547                  21526759.92443                  23960855.5554
  23960851.5904   30868769.98846  24067354.17943  23899910.8444   23899908.4184
 -14344911.26646 -11157705.40243  24180795.0784                   24180792.5634
 -16844250.85548 -13114012.34046  21169173.3284                   21169169.2464
 11  9 30  3 16 30.0000000  0 10G15G29G22G09G06G21G14G03G26G18
 -21652404.48448 -16851433.79546  21542739.7344                   21542736.4024
 -28933838.71547 -22526809.37345  22362596.3134                   22362593.4804
  11839176.73447   9239485.02645                  22905501.2894   22905496.2664
  13975561.45347  10905129.27644  23011635.8284   23011633.1884   18746155.75847
  14622584.19244                  23529218.5704                   23529215.3954
 -25977643.53148 -20225682.42846  20569319.7424                   20569315.4184
  27413427.30946                  21378243.03443                  23924585.7894
  23924583.1174   30718948.30346  23950610.02243  23871400.3594   23871398.4574
 -14316061.59846 -11135225.20643  24186285.1954                   24186282.5204
 -16942539.14548 -13190600.63046  21150469.7814                   21150465.3054
 11  9 30  3 17  0.0000000  0  9G15G29G22G09G06G21G14G03G18
 -21666884.91848 -16862717.25946  21539983.6414                   21539980.6024
 -28923876.96147 -22519046.98345  22364491.7274                   22364489.3714
  11700152.66847   9131154.61445                  22879046.1804   22879040.3444
  13811161.47747  10777025.41544  22980351.4304   22980348.1094   18604890.21546
  14512507.16344                  23502336.4924                   23502333.4344
 -26103658.08248 -20323875.58046  20545340.4384                   20545335.5234
  27222987.71146                  21229848.60543                  23888346.8054
  23888342.8874   30569574.41846  23834214.87543  23842976.2664   23842973.0824
 -17040700.34448 -13267089.86546  21131790.0234                   21131786.1644
 11  9 30  3 17 30.0000000  0  9G15G29G22G09G06G21G14G03G18
 -21681003.48848 -16873718.75946  21537297.0234                   21537294.1054
 -28913703.62147 -22511119.71845  22366427.6484                   22366425.3444
  11561252.05147   9022920.39945                  22852613.6564   22852608.8984
  13647014.72347  10649118.88144  22949115.2504   22949112.4494   18464057.11746
  14402767.09144                  23475536.8984                   23475533.9384
 -26229373.28148 -20421835.46546  20521417.1884                   20521412.5664
  27032707.37546                  21081578.29443                  23852136.9454
  23852133.3954   30420650.45346  23718170.23643  23814636.5944   23814634.3284
 -17138734.94148 -13343480.46246  21113134.9144                   21113130.3634
 11  9 30  3 18  0.0000000  0  9G15G29G22G09G06G21G14G03G18
 -21694754.71948 -16884434.01146  21534680.4774                   21534676.7664
 -28903313.05147 -22503023.18045  22368405.2974                   22368402.3524
  11422482.71147   8914788.47545                  22826207.2274   22826201.4804
  13483133.10947  10521418.93144  22917929.3674   22917927.2304   18323665.99647
  14293371.44244                  23448821.4144                   23448818.5044
 -26354779.00848 -20519554.20546  20497553.4144                   20497548.9224
  26842597.04346                  20933440.41343                  23815960.6174
  23815956.0704   30272186.23447  23602483.89543  23786385.0944   23786382.1254
 -17236635.00048 -13419766.20646  21094505.1414                   21094500.5434
 11  9 30  3 18 30.0000000  0  9G15G29G22G09G06G21G14G03G18
 -20132717.63348 -15667262.25946  21831926.1954                   21831922.8484
 -27317285.93447 -21267157.90945  22670216.3524                   22670213.1024
  12859271.84847  10034364.44345                  23099618.8284   23099613.3094
  14894948.15647  11621534.59544  23186589.1254   23186586.5984   19759145.97347
  15411927.22844                  23721984.1884                   23721981.6564
 -24904446.54748 -19389425.01046  20773542.6094                   20773537.7544
  28228087.92247                  22013043.72643                  24079610.9064
  24079607.3364   31699611.20346  24714763.09544  24058015.0164   24058011.5124
 -15758975.10948 -12268342.91046  21375694.6024                   21375690.2814
 11  9 30  3 19  0.0000000  0  9G15G29G22G09G06G21G14G03G18
 -20145737.34448 -15677407.49846  21829448.2814                   21829445.0864
 -27306465.55547 -21258726.46645  22672275.1414                   22672272.4694
  12720768.09047   9926439.46045                  23073262.6414   23073257.2194
  14731611.43047  11494259.23644  23155506.8914   23155504.4384   19619647.98847
  15303227.55544                  23695438.7114                   23695435.5084
 -25029223.09448 -19486653.48246  20749798.2974                   20749793.8014
  28038328.46546                  21865179.25843                  24043501.1334
  24043497.3204   31552076.60246  24599801.14444  24029940.0864   24029937.0234
 -15856603.52048 -12344416.99246  21357116.5554                   21357111.8444
 11  9 30  3 19 30.0000000  0  9G15G29G22G09G06G21G14G03G18
 -20158396.83648 -15687272.05246  21827039.5004                   21827036.4884
 -27295435.87947 -21250131.93945  22674374.0164                   22674371.2034
  12582395.12947   9818616.40845                  23046930.8984   23046925.4264
  14568550.75447  11367198.96844  23124477.5864   23124475.2624   19480597.41447
  15194876.46944                  23668977.8834                   23668975.6804
 -25153682.45348 -19583634.79946  20726114.3054                   20726109.7424
  27848746.58246                  21717453.15643                  24007425.0234
  24007420.8634   31405008.20746  24485202.45644  24001953.8834   24001951.1484
 -15954098.28148 -12420386.94146  21338563.6644                   21338559.0204
 11  9 30  3 20  0.0000000  0  9G15G29G22G09G06G21G14G03G18
 -20170700.44548 -15696859.28546  21824698.3364                   21824694.8094
 -27284202.53547 -21241378.69845  22676511.4304                   22676509.6254
  12444149.68847   9710892.71445                  23020623.9144   23020618.6094
  14405767.01647  11240354.53044  23093500.7194   23093497.7234   19341992.97347
  15086873.02844                  23642602.5634                   23642599.6294
 -25277826.43448 -19680370.36946  20702490.6414                   20702485.4414
  27659341.46946                  21569864.79943                  23971382.0084
  23971377.9964   31258404.97346  24370966.19943  23974056.4384   23974053.6214
 -16051462.79348 -12496255.38946  21320036.0394                   21320031.5554
